[[{"header":{"parameterUnit":"m.s-1","parameterCategory":1,"la1":30.6,"la2":29.2853,"lo1":-89.7004,"lo2":-87.6739,"dy":0.0162,"dx":0.0183,"nx":112,"ny":82,"refTime":"2023-03-13T00:00:00:Z","depth":0,"parameterNumber":2,"parameterNumberName":"U-component_of_WINDS"},"data":[0.0,0.0,0.0,0.0,0.0,0.0,0.0,0.0,0.0,0.0,0.0,0.0,0.0,0.0,0.0,0.0,0.0,0.0,0.0,0.0,0.0,0.0,0.0,0.0,0.0,0.0,0.0,0.0,0.0,0.0,0.0,0.0,0.0,0.0,0.0,0.0,0.0,0.0,0.0,0.0,0.0,0.0,0.0,0.0,0.0,0.0,0.0,0.0,0.0,0.0,0.0,0.0,0.0,0.0,0.0,0.0,0.0,0.0,0.0,0.0,0.0,0.0,0.0,0.0,0.0,0.0,0.0,0.0,0.0,0.0,0.0,0.0,0.0,0.0,0.0,0.0,0.0,0.0,0.0,0.0,0.0,0.0,0.0,0.0,0.0,0.0,0.0,0.0,0.0,0.0,0.0,7.8149,8.2293,8.4558,8.3933,8.3035,8.0341,7.5305,0.0,0.0,0.0,0.0,0.0,0.0,0.0,0.0,0.0,0.0,0.0,0.0,0.0,0.0,0.0,0.0,0.0,0.0,0.0,0.0,0.0,0.0,0.0,0.0,0.0,0.0,0.0,0.0,0.0,0.0,0.0,0.0,0.0,0.0,0.0,0.0,0.0,0.0,0.0,0.0,0.0,0.0,0.0,0.0,0.0,0.0,0.0,0.0,0.0,0.0,0.0,0.0,0.0,0.0,0.0,0.0,0.0,0.0,0.0,0.0,0.0,0.0,0.0,0.0,0.0,0.0,0.0,0.0,0.0,0.0,0.0,0.0,0.0,0.0,0.0,0.0,0.0,0.0,0.0,0.0,0.0,0.0,0.0,0.0,0.0,0.0,0.0,0.0,0.0,0.0,0.0,0.0,0.0,0.0,0.0,0.0,0.0,0.0,0.0,0.0,0.0,0.0,0.0,0.0,7.7798,8.4089,8.4753,8.5065,8.5651,8.4245,8.1435,7.6984,0.0,0.0,0.0,0.0,0.0,0.0,0.0,0.0,0.0,0.0,0.0,0.0,0.0,0.0,0.0,0.0,0.0,0.0,0.0,0.0,0.0,0.0,0.0,0.0,0.0,0.0,0.0,0.0,0.0,0.0,0.0,0.0,0.0,0.0,0.0,0.0,0.0,0.0,0.0,0.0,0.0,0.0,0.0,0.0,0.0,0.0,0.0,0.0,0.0,0.0,0.0,0.0,0.0,0.0,0.0,0.0,0.0,0.0,0.0,0.0,0.0,0.0,0.0,0.0,0.0,0.0,0.0,0.0,0.0,0.0,0.0,0.0,0.0,0.0,0.0,0.0,0.0,0.0,0.0,0.0,0.0,0.0,0.0,0.0,0.0,0.0,0.0,0.0,0.0,0.0,0.0,0.0,0.0,0.0,0.0,0.0,0.0,0.0,0.0,0.0,0.0,0.0,0.0,7.6464,8.068,8.6197,8.6464,8.6378,8.6783,8.5651,8.2684,7.7414,7.5188,0.0,0.0,0.0,0.0,0.0,0.0,0.0,0.0,0.0,0.0,0.0,0.0,0.0,0.0,0.0,0.0,0.0,0.0,0.0,0.0,0.0,0.0,0.0,0.0,0.0,0.0,0.0,0.0,0.0,0.0,0.0,0.0,0.0,0.0,0.0,0.0,0.0,0.0,0.0,0.0,0.0,0.0,0.0,0.0,0.0,0.0,0.0,0.0,0.0,0.0,0.0,0.0,0.0,0.0,0.0,0.0,0.0,0.0,0.0,0.0,0.0,0.0,0.0,0.0,0.0,0.0,0.0,0.0,0.0,0.0,0.0,0.0,0.0,0.0,0.0,0.0,0.0,0.0,0.0,0.0,0.0,0.0,0.0,0.0,0.0,0.0,0.0,0.0,0.0,0.0,0.0,0.0,0.0,0.0,0.0,0.0,0.0,0.0,0.0,0.0,0.0,0.0,7.9931,8.3787,8.7315,8.7885,8.7924,8.7706,8.6893,8.3926,7.8071,7.6516,0.0,0.0,0.0,0.0,0.0,0.0,0.0,0.0,0.0,0.0,0.0,0.0,0.0,0.0,0.0,0.0,0.0,0.0,0.0,0.0,0.0,0.0,0.0,0.0,0.0,0.0,0.0,0.0,0.0,0.0,0.0,0.0,0.0,0.0,0.0,0.0,0.0,0.0,0.0,0.0,0.0,0.0,0.0,0.0,0.0,0.0,0.0,0.0,0.0,0.0,0.0,0.0,0.0,0.0,0.0,0.0,0.0,0.0,0.0,0.0,0.0,0.0,0.0,0.0,0.0,0.0,0.0,0.0,0.0,0.0,0.0,0.0,0.0,0.0,0.0,0.0,0.0,0.0,0.0,0.0,0.0,0.0,0.0,0.0,0.0,0.0,0.0,0.0,0.0,0.0,0.0,0.0,0.0,0.0,0.0,0.0,0.0,0.0,0.0,0.0,0.0,0.0,8.3319,8.7369,8.8394,8.9252,8.9408,8.8589,8.775,8.5036,7.9768,7.7134,0.0,0.0,0.0,0.0,0.0,0.0,0.0,0.0,0.0,0.0,0.0,0.0,0.0,0.0,0.0,0.0,0.0,0.0,0.0,0.0,0.0,0.0,0.0,0.0,0.0,0.0,0.0,0.0,0.0,0.0,0.0,0.0,0.0,0.0,0.0,0.0,0.0,0.0,0.0,0.0,0.0,0.0,0.0,0.0,0.0,0.0,0.0,0.0,0.0,0.0,0.0,0.0,0.0,0.0,0.0,0.0,0.0,0.0,0.0,0.0,0.0,0.0,0.0,0.0,0.0,0.0,0.0,0.0,0.0,0.0,0.0,0.0,0.0,0.0,0.0,0.0,0.0,0.0,0.0,0.0,0.0,0.0,0.0,0.0,0.0,0.0,0.0,0.0,0.0,0.0,0.0,0.0,0.0,0.0,0.0,0.0,0.0,0.0,0.0,0.0,0.0,0.0,8.3479,8.7487,0.0,8.9972,8.9933,9.0189,8.895,8.5916,8.0743,0.0,0.0,0.0,0.0,0.0,0.0,0.0,0.0,0.0,0.0,0.0,0.0,0.0,0.0,0.0,0.0,0.0,0.0,0.0,0.0,0.0,0.0,0.0,0.0,0.0,0.0,0.0,0.0,0.0,0.0,0.0,0.0,0.0,0.0,0.0,0.0,0.0,0.0,0.0,0.0,0.0,0.0,0.0,0.0,0.0,0.0,0.0,0.0,0.0,0.0,0.0,0.0,0.0,0.0,0.0,0.0,0.0,0.0,0.0,0.0,0.0,0.0,0.0,0.0,0.0,0.0,0.0,0.0,0.0,0.0,0.0,0.0,0.0,0.0,0.0,0.0,0.0,0.0,0.0,0.0,0.0,0.0,0.0,0.0,0.0,0.0,0.0,0.0,0.0,0.0,0.0,0.0,0.0,0.0,0.0,0.0,0.0,0.0,0.0,0.0,0.0,0.0,7.9734,8.4473,8.8623,0.0,9.1469,9.1457,9.1559,9.0245,8.6941,8.1273,0.0,0.0,0.0,0.0,0.0,0.0,0.0,0.0,0.0,0.0,0.0,0.0,0.0,0.0,0.0,0.0,0.0,0.0,0.0,0.0,0.0,0.0,0.0,0.0,0.0,0.0,0.0,0.0,0.0,0.0,0.0,0.0,0.0,0.0,0.0,0.0,0.0,0.0,0.0,0.0,0.0,0.0,0.0,0.0,0.0,0.0,0.0,0.0,0.0,0.0,0.0,0.0,0.0,0.0,0.0,0.0,0.0,0.0,0.0,0.0,0.0,0.0,0.0,0.0,0.0,0.0,0.0,0.0,0.0,0.0,0.0,0.0,0.0,0.0,0.0,0.0,0.0,0.0,0.0,0.0,0.0,0.0,0.0,0.0,0.0,0.0,0.0,0.0,0.0,0.0,0.0,0.0,0.0,0.0,0.0,0.0,0.0,0.0,0.0,0.0,0.0,0.0,8.0719,8.6908,9.1469,9.2313,9.3911,9.4223,9.2586,9.16,8.8206,0.0,0.0,0.0,0.0,0.0,0.0,0.0,0.0,0.0,0.0,0.0,0.0,0.0,0.0,0.0,0.0,0.0,0.0,0.0,0.0,0.0,0.0,0.0,0.0,0.0,0.0,0.0,0.0,0.0,0.0,0.0,0.0,0.0,0.0,0.0,0.0,0.0,0.0,0.0,0.0,0.0,0.0,0.0,0.0,0.0,0.0,0.0,0.0,0.0,0.0,0.0,0.0,0.0,0.0,0.0,0.0,0.0,0.0,0.0,0.0,0.0,0.0,0.0,0.0,0.0,0.0,0.0,0.0,0.0,0.0,0.0,0.0,0.0,0.0,0.0,0.0,0.0,0.0,0.0,0.0,0.0,0.0,0.0,0.0,0.0,0.0,0.0,0.0,0.0,0.0,0.0,0.0,0.0,0.0,0.0,0.0,0.0,0.0,0.0,0.0,0.0,0.0,0.0,8.3298,8.8508,9.2561,9.4028,9.4613,9.469,9.4184,9.2834,8.9612,8.3944,0.0,0.0,0.0,0.0,0.0,0.0,0.0,0.0,0.0,0.0,0.0,0.0,0.0,0.0,0.0,0.0,0.0,0.0,0.0,0.0,0.0,0.0,0.0,0.0,0.0,0.0,0.0,0.0,0.0,0.0,0.0,0.0,0.0,0.0,0.0,0.0,0.0,0.0,0.0,0.0,0.0,0.0,0.0,0.0,0.0,0.0,0.0,0.0,0.0,0.0,0.0,0.0,0.0,0.0,0.0,0.0,0.0,0.0,0.0,0.0,0.0,0.0,0.0,0.0,0.0,0.0,0.0,0.0,0.0,0.0,0.0,0.0,0.0,0.0,0.0,0.0,0.0,0.0,0.0,0.0,0.0,0.0,0.0,0.0,0.0,0.0,0.0,0.0,0.0,0.0,0.0,0.0,0.0,0.0,0.0,0.0,0.0,0.0,0.0,0.0,0.0,0.0,8.4351,8.9455,9.3638,9.5665,9.5898,9.5898,9.5937,9.4067,9.0846,8.6038,0.0,0.0,0.0,0.0,0.0,0.0,0.0,0.0,0.0,0.0,0.0,0.0,0.0,0.0,0.0,0.0,0.0,0.0,0.0,0.0,0.0,0.0,0.0,0.0,0.0,0.0,0.0,0.0,0.0,0.0,0.0,0.0,0.0,0.0,0.0,0.0,0.0,0.0,0.0,0.0,0.0,0.0,0.0,0.0,0.0,0.0,0.0,0.0,0.0,0.0,0.0,0.0,0.0,0.0,0.0,0.0,0.0,0.0,0.0,0.0,0.0,0.0,0.0,0.0,0.0,0.0,0.0,0.0,0.0,0.0,0.0,0.0,0.0,0.0,0.0,0.0,0.0,0.0,0.0,0.0,0.0,0.0,0.0,0.0,0.0,0.0,0.0,0.0,0.0,0.0,0.0,0.0,0.0,0.0,0.0,0.0,0.0,0.0,0.0,0.0,0.0,0.0,8.4635,9.0205,9.4855,9.7247,9.7574,9.7613,9.7613,9.5353,9.2132,8.7909,0.0,0.0,0.0,0.0,0.0,0.0,0.0,0.0,0.0,0.0,0.0,0.0,0.0,0.0,0.0,0.0,0.0,0.0,0.0,0.0,0.0,0.0,0.0,0.0,0.0,0.0,0.0,0.0,0.0,0.0,0.0,0.0,0.0,0.0,0.0,0.0,0.0,0.0,0.0,0.0,0.0,0.0,0.0,0.0,0.0,0.0,0.0,0.0,0.0,0.0,0.0,0.0,0.0,0.0,0.0,0.0,0.0,0.0,0.0,0.0,6.7293,0.0,0.0,0.0,0.0,0.0,0.0,0.0,0.0,0.0,0.0,0.0,0.0,0.0,0.0,0.0,0.0,0.0,0.0,0.0,0.0,0.0,0.0,0.0,0.0,0.0,0.0,0.0,0.0,0.0,0.0,0.0,0.0,0.0,0.0,0.0,0.0,0.0,0.0,0.0,0.0,0.0,8.7337,9.2869,9.703,9.8217,9.9012,9.9172,9.8509,9.6717,9.4145,9.0535,8.7079,0.0,0.0,0.0,0.0,0.0,0.0,0.0,0.0,0.0,0.0,0.0,0.0,0.0,0.0,0.0,0.0,0.0,0.0,0.0,0.0,0.0,0.0,0.0,0.0,0.0,0.0,0.0,0.0,0.0,0.0,0.0,0.0,0.0,0.0,0.0,0.0,0.0,0.0,0.0,0.0,0.0,0.0,0.0,0.0,0.0,0.0,0.0,0.0,0.0,0.0,0.0,0.0,0.0,0.0,0.0,0.0,0.0,0.0,0.0,0.0,6.8752,0.0,0.0,0.0,0.0,0.0,0.0,0.0,0.0,0.0,0.0,0.0,0.0,0.0,0.0,0.0,0.0,0.0,0.0,0.0,0.0,0.0,0.0,0.0,0.0,0.0,0.0,0.0,0.0,0.0,0.0,0.0,0.0,0.0,0.0,0.0,0.0,0.0,0.0,0.0,0.0,8.8667,9.39,9.7976,9.9646,9.9889,9.9968,9.9936,9.8042,9.5704,9.3093,8.9326,0.0,0.0,0.0,0.0,0.0,0.0,0.0,0.0,0.0,0.0,0.0,0.0,0.0,0.0,0.0,0.0,0.0,0.0,0.0,0.0,0.0,0.0,0.0,0.0,0.0,0.0,0.0,0.0,0.0,0.0,0.0,0.0,0.0,0.0,0.0,0.0,0.0,0.0,0.0,0.0,0.0,0.0,0.0,0.0,0.0,0.0,0.0,0.0,0.0,0.0,0.0,0.0,0.0,7.4227,7.4421,7.5118,7.5273,7.5661,7.6028,7.3413,7.3026,7.3956,7.0484,0.0,0.0,0.0,0.0,0.0,0.0,0.0,0.0,0.0,0.0,0.0,0.0,0.0,0.0,0.0,0.0,0.0,0.0,0.0,0.0,0.0,0.0,0.0,0.0,7.9134,7.9424,7.6653,0.0,0.0,0.0,0.0,0.0,0.0,0.0,0.0,0.0,0.0,0.0,8.9814,9.4652,9.8597,10.0788,10.0594,10.0607,10.1221,9.9094,9.7028,9.5431,9.1456,8.8027,0.0,0.0,0.0,0.0,0.0,0.0,0.0,0.0,0.0,0.0,0.0,0.0,0.0,0.0,0.0,0.0,0.0,0.0,0.0,0.0,0.0,0.0,0.0,0.0,0.0,0.0,0.0,0.0,0.0,0.0,0.0,0.0,6.5008,6.6747,0.0,0.0,0.0,0.0,0.0,0.0,0.0,0.0,0.0,0.0,0.0,0.0,0.0,7.3135,7.2637,7.4906,7.6458,7.7328,7.8744,7.9421,7.9509,8.0312,8.0268,7.9555,7.9951,0.0,7.508,7.4518,0.0,0.0,0.0,0.0,0.0,0.0,0.0,0.0,0.0,0.0,0.0,0.0,0.0,0.0,0.0,0.0,0.0,0.0,0.0,0.0,0.0,0.0,8.2164,8.3136,8.3563,8.3602,0.0,8.0162,7.7442,7.7209,7.7287,0.0,0.0,0.0,0.0,0.0,0.0,0.0,9.2455,9.6726,9.9856,10.0905,10.1604,10.1795,10.1299,9.9585,9.8143,9.7223,9.3833,9.0716,8.8105,8.5533,0.0,0.0,0.0,0.0,0.0,0.0,0.0,0.0,0.0,0.0,0.0,0.0,0.0,0.0,0.0,0.0,0.0,0.0,0.0,0.0,0.0,0.0,0.0,0.0,0.0,0.0,0.0,0.0,0.0,6.2507,6.5149,6.6873,6.5965,6.4993,0.0,0.0,0.0,0.0,0.0,0.0,0.0,0.0,0.0,7.4399,7.5178,7.6264,7.7715,7.8878,8.0329,8.2003,8.2777,8.3396,8.3875,8.4287,8.4223,8.3824,8.4237,8.3062,8.0686,7.7866,7.6295,7.5459,0.0,0.0,0.0,0.0,7.2967,7.4112,7.6206,7.7271,7.7754,7.7754,0.0,0.0,0.0,0.0,0.0,0.0,0.0,7.8243,8.1194,8.2514,8.3504,8.5346,8.6101,8.651,8.6532,8.5427,8.3718,0.0,8.0901,8.0512,7.9308,0.0,0.0,0.0,0.0,9.1484,9.4435,9.8536,10.1487,10.2404,10.2909,10.2995,10.2712,10.1093,9.9585,9.8314,9.5898,9.3366,9.0794,8.7754,8.4767,0.0,0.0,0.0,0.0,0.0,0.0,0.0,0.0,0.0,0.0,0.0,0.0,0.0,0.0,0.0,0.0,0.0,0.0,0.0,0.0,0.0,0.0,0.0,0.0,0.0,0.0,0.0,0.0,6.476,6.6586,6.7363,6.748,6.6858,0.0,0.0,0.0,0.0,0.0,0.0,7.4709,7.4789,7.5857,7.8263,7.8455,7.9825,8.2569,8.2375,8.3256,8.5294,8.5294,8.5643,8.6261,8.6494,8.6494,8.63,8.6494,8.6223,8.5294,8.1127,7.9501,7.9376,7.6643,7.5443,7.5266,7.5735,7.6609,7.781,7.9731,8.1043,8.1949,8.191,8.1591,8.0948,7.9764,0.0,0.0,0.0,0.0,8.1134,8.3889,8.4626,8.5148,8.7274,8.8282,8.8786,8.9066,8.9438,8.8723,0.0,8.4903,8.4709,8.3699,0.0,0.0,0.0,0.0,9.3691,9.647,9.9988,10.2614,10.3492,10.3609,10.3686,10.3803,10.2226,10.0691,9.9211,9.7496,9.5392,9.2859,9.0014,8.7417,8.5091,0.0,0.0,0.0,0.0,0.0,0.0,0.0,0.0,0.0,0.0,0.0,0.0,0.0,0.0,0.0,0.0,0.0,0.0,0.0,0.0,0.0,0.0,0.0,0.0,0.0,0.0,0.0,0.0,0.0,7.0316,7.2258,0.0,0.0,0.0,0.0,7.2422,7.3428,7.4748,7.6379,7.8786,8.0881,8.2622,8.3436,8.4243,8.5202,8.4389,8.4442,8.5294,8.5294,8.5333,8.5372,8.6223,8.6145,8.541,8.6261,8.6571,8.6377,8.4521,8.2819,8.1271,8.0266,7.9415,7.895,8.0536,8.0701,8.0477,8.2995,8.3421,8.284,8.284,8.1669,8.0266,8.026,7.9664,0.0,0.0,8.394,8.4715,8.8127,8.898,8.9213,9.0182,9.0453,9.0725,9.1539,9.1112,9.0245,0.0,8.9814,8.9809,8.8179,0.0,9.057,9.1461,9.3129,9.5519,9.8905,10.1,10.2501,10.3405,10.3483,10.3585,10.3686,10.2226,10.0793,9.9974,9.8353,9.6288,9.3741,9.2664,9.017,8.6001,8.4908,0.0,0.0,0.0,0.0,0.0,0.0,0.0,0.0,0.0,0.0,0.0,0.0,0.0,0.0,0.0,0.0,0.0,0.0,0.0,0.0,0.0,0.0,0.0,0.0,0.0,0.0,0.0,0.0,7.1861,7.3665,0.0,7.3239,7.4364,7.5411,7.5973,7.7894,7.9523,8.0644,8.1553,8.2576,8.3677,8.4002,8.4765,8.6172,8.5862,8.6675,8.8582,8.8582,8.8864,8.9388,9.0199,9.0431,9.0161,9.105,9.0847,8.9859,8.924,8.7345,8.4714,8.3824,8.367,8.3979,8.4559,8.4598,8.4546,8.6017,8.5978,8.5359,8.5939,8.6081,8.6029,8.6029,8.5822,8.5938,8.7793,8.8273,8.879,9.1153,9.1735,9.1812,9.2069,9.2146,9.2108,9.189,9.2044,9.2148,9.1936,9.1665,9.1447,9.1408,9.278,9.3981,9.4292,9.6269,9.8518,10.091,10.2705,10.4101,10.4993,10.5101,10.4905,10.4409,10.3389,10.1993,10.0091,9.9405,9.791,9.5335,9.392,9.1948,8.927,8.7844,8.5156,0.0,0.0,0.0,0.0,0.0,0.0,0.0,0.0,0.0,0.0,0.0,0.0,0.0,0.0,0.0,0.0,0.0,0.0,0.0,0.0,0.0,0.0,0.0,0.0,0.0,0.0,7.32,7.3161,7.5428,7.6553,7.539,7.7599,7.9227,7.9476,8.1669,8.3103,8.3367,8.4156,8.4829,8.5346,8.5604,8.6428,8.7831,8.7522,8.8257,8.9947,8.9919,9.0199,9.075,9.1261,9.1492,9.1531,9.2141,9.1784,9.0798,9.0865,8.9665,8.777,8.661,8.6532,8.6996,8.6726,8.661,8.6764,8.7925,8.835,8.8389,8.866,8.9345,8.9991,8.9681,8.9797,9.0249,9.1128,9.1399,9.1616,9.2777,9.3242,9.3474,9.3418,9.365,9.3766,9.3551,9.4198,9.4818,9.4834,9.393,9.3426,9.4279,9.5597,9.6616,9.6887,9.8863,10.0683,10.1884,10.3792,10.5302,10.5806,10.5923,10.58,10.5202,10.3686,10.2123,10.0494,9.953,9.815,9.6177,9.4479,9.2776,9.1023,8.9036,8.6334,8.2902,0.0,0.0,0.0,0.0,0.0,0.0,0.0,0.0,0.0,0.0,0.0,0.0,0.0,0.0,0.0,0.0,0.0,0.0,0.0,0.0,0.0,0.0,0.0,7.1862,7.4596,7.6108,7.4382,7.7909,7.9808,7.8103,8.0274,8.2111,8.2878,8.4591,8.5149,8.4211,8.6623,8.7978,8.7925,8.8654,8.9436,9.0325,8.9463,8.9038,8.9166,8.9038,8.9077,8.9166,8.9077,8.9085,8.9085,8.9175,8.9166,8.9166,8.929,8.9782,9.0323,8.8621,8.8002,8.7925,8.7074,8.6764,8.7035,8.8621,9.0323,9.1638,9.0749,9.1058,9.1638,9.0787,9.1097,9.1948,9.2837,9.307,9.307,9.3108,9.3727,9.4307,9.4307,9.4965,9.5816,9.6667,9.7518,9.8098,9.8098,9.6803,9.5969,9.6821,9.7654,9.8446,9.922,10.0806,0.0,10.2005,10.421,10.568,10.5828,10.5796,10.5922,10.589,10.3002,10.1099,10.1099,9.886,9.7104,9.6228,9.4542,9.2788,9.1066,8.8461,8.6294,8.457,0.0,0.0,0.0,0.0,0.0,0.0,0.0,0.0,0.0,0.0,0.0,0.0,0.0,0.0,0.0,0.0,0.0,0.0,0.0,0.0,0.0,0.0,7.5614,7.5171,7.7534,7.9083,7.8572,8.0662,8.194,8.1475,8.3178,8.4185,8.3811,8.5926,8.6803,8.5871,8.7677,8.8692,8.8643,8.9424,9.0273,9.1084,9.1477,9.1978,9.2627,9.1978,9.1946,9.2531,9.2498,9.2844,9.3384,9.3417,9.3136,9.2643,9.2054,9.1938,9.1977,9.0334,9.0091,9.0633,9.04,9.071,9.1058,8.9665,9.1097,9.3263,9.1774,9.2248,9.3407,9.3175,9.3252,9.36,9.4549,9.481,9.4965,9.5584,9.6297,9.6885,9.6885,9.7015,9.7253,9.7511,9.7813,9.7967,9.8098,9.8176,9.836,9.8592,9.9336,9.9994,10.0187,10.1696,10.3088,10.3591,10.4906,10.5525,10.4874,10.4913,10.479,10.4226,10.2798,10.2016,10.2006,10.0805,9.9384,9.7998,9.6832,9.4854,9.1919,8.9307,8.7444,0.0,0.0,0.0,0.0,0.0,0.0,0.0,0.0,0.0,0.0,0.0,0.0,0.0,0.0,0.0,0.0,0.0,0.0,0.0,0.0,0.0,0.0,7.6132,7.8606,7.8979,8.0034,8.1064,8.1736,8.2677,8.3412,8.3824,8.5009,8.5716,8.5666,8.7301,8.8084,8.7524,8.9068,8.9995,8.9933,9.1136,9.1952,9.2415,9.2883,9.3384,9.3957,9.3384,9.3389,9.389,9.3855,9.4051,9.4513,9.4583,9.4381,9.3978,9.3508,9.3276,9.3153,0.0,0.0,0.0,0.0,9.2422,9.3224,9.1378,9.2731,9.4965,9.2789,9.3261,9.4574,9.4196,9.4319,9.4891,9.612,9.6228,9.6112,9.697,9.7517,9.7871,9.7871,9.8108,9.8344,9.8405,9.8747,9.9049,9.9143,9.9839,0.0,10.0419,10.0496,10.0613,10.0613,10.2392,10.3707,10.3901,10.5293,10.6105,10.5493,10.557,10.5511,10.5003,10.36,0.0,0.0,0.0,9.9569,9.7548,9.7005,0.0,0.0,0.0,9.0032,8.9197,8.7156,0.0,0.0,8.2552,8.2075,0.0,0.0,0.0,0.0,0.0,0.0,0.0,0.0,0.0,0.0,0.0,0.0,0.0,0.0,0.0,0.0,7.9709,8.1831,8.2873,8.2482,8.2561,8.3915,8.4132,8.4491,8.5345,8.6201,8.7031,8.7862,8.8691,8.92,8.9169,0.0,0.0,0.0,0.0,9.4044,9.4044,9.3977,9.4093,9.4313,9.4093,9.4131,9.4467,9.4208,9.4172,9.4249,9.4202,9.4159,9.4159,9.4068,9.4062,9.3985,9.2518,9.2393,9.2844,9.211,9.2982,9.4317,9.33,0.0,0.0,9.3918,9.4234,9.5509,9.4563,9.491,9.5914,9.738,9.7303,9.6994,9.7765,9.8036,9.804,9.8079,9.8734,9.9386,9.9448,10.0105,10.0601,10.0697,10.1386,10.1889,10.2005,10.1309,10.0806,10.0883,10.2895,10.421,10.3591,10.5603,10.7111,10.6879,10.6879,0.0,10.7013,10.4891,10.3624,10.3881,10.1487,9.9002,9.6555,9.6344,9.5528,9.3858,9.3726,9.3259,9.2382,9.2304,9.1548,9.0072,8.5149,8.4108,0.0,0.0,0.0,0.0,0.0,0.0,0.0,0.0,0.0,0.0,0.0,0.0,0.0,0.0,0.0,7.7317,8.0249,8.3143,8.5342,8.5565,8.5063,8.3982,8.5063,8.5989,8.6143,8.7541,8.8467,8.8691,9.0049,9.0905,9.084,9.2498,9.3389,9.3281,9.4247,9.4785,9.4785,9.5441,9.6134,9.6825,9.6095,0.0,9.7825,9.7096,9.7134,9.775,9.644,9.5861,9.5816,9.4502,9.4381,9.4949,9.394,9.3631,9.3747,9.3592,9.4596,9.5831,9.4287,9.5972,9.8283,9.5533,9.588,9.7148,9.6232,9.6544,0.0,9.7693,9.819,9.8653,9.8807,9.9278,9.9743,9.9743,10.0287,10.0904,10.1015,10.1203,10.1423,10.149,10.1703,10.2082,10.2817,10.2199,10.1889,10.2585,10.3707,10.4597,10.51,10.6918,10.7498,10.6105,10.6028,10.6099,10.6085,10.4505,10.4128,10.5371,10.322,10.1293,10.0089,9.8714,9.751,9.6499,9.5783,9.5006,9.4207,9.3469,9.3314,9.3607,8.9877,8.8434,0.0,0.0,0.0,0.0,0.0,0.0,0.0,0.0,0.0,0.0,0.0,7.1544,0.0,0.0,7.794,7.9635,8.2062,8.4335,8.603,8.6993,8.7256,8.6461,8.7087,8.7596,8.7657,8.8682,8.9382,8.9446,9.0995,9.1929,9.1895,9.3512,9.4436,9.4326,9.5595,9.6057,9.5634,9.648,9.6903,9.6903,9.648,9.6942,9.8134,9.7711,9.798,9.875,9.7904,9.7595,9.7554,9.6707,9.6628,9.701,9.6586,9.5962,9.5258,9.5191,9.6034,9.6955,9.5654,9.6955,9.8764,9.6467,9.666,9.7623,9.7129,9.7246,9.7785,9.8705,9.8937,9.9129,9.9977,10.021,10.0288,10.0711,10.102,10.1328,10.1481,10.1786,10.209,10.1804,10.2489,10.3101,10.3204,10.3204,10.3282,10.3707,10.4519,10.5409,10.6183,10.7498,10.8001,10.7111,10.7001,10.6885,10.6492,10.5408,10.4905,10.541,10.392,10.2404,10.1099,10.019,9.9374,9.852,9.7665,9.6771,9.5956,9.5062,9.4674,9.4635,9.2947,9.2152,0.0,0.0,0.0,0.0,0.0,0.0,0.0,0.0,7.0025,7.1563,7.2678,7.4293,7.7246,7.8054,7.9246,8.2324,8.4132,8.5517,8.6671,8.8055,8.9046,8.9331,8.9151,8.9112,8.9331,8.997,9.0514,9.0697,9.213,9.2979,9.2979,9.4441,9.5326,9.548,9.6788,9.7211,9.6557,9.7326,9.7442,9.6788,9.6942,9.7442,9.825,9.825,9.8634,9.9288,9.9135,9.8942,9.8788,9.8788,9.8788,9.8788,9.8788,9.8053,9.6926,9.6895,9.7469,9.8121,9.7203,9.8047,9.9274,9.7473,9.7437,9.813,9.7864,9.7865,9.8288,9.9712,9.9712,9.9596,10.0904,10.0904,10.0712,10.1404,10.1712,10.1789,10.1904,10.252,10.2788,10.2311,10.331,10.4228,10.3714,10.421,10.4713,10.4713,10.5409,10.6299,10.7111,10.8117,10.8813,10.8813,10.8818,10.8393,10.7382,10.6698,10.5903,10.5099,10.4308,10.3104,10.1604,10.1177,10.0672,9.9996,9.918,9.8403,9.7704,9.6849,9.6072,9.5412,9.5256,9.5027,6.4269,6.5953,6.8712,7.1622,7.2534,7.314,0.0,0.0,7.4166,7.5127,7.6523,7.7982,7.9292,8.0683,8.2304,8.4324,8.5363,8.6786,8.9133,8.9633,9.0056,9.086,9.0248,9.0056,9.086,9.171,9.2518,9.321,9.4172,9.4711,9.4711,9.5634,9.648,9.7211,9.7403,9.7442,9.7365,9.8211,9.8596,9.8519,9.9288,10.0096,10.0904,10.0904,10.0904,10.1019,10.0289,9.9519,9.8788,9.8788,9.8788,9.8788,9.8788,9.8673,9.8557,9.8557,9.9095,9.9711,9.8865,9.971,10.0901,9.9095,9.9171,9.9747,9.8903,9.9211,9.9827,9.9981,10.0481,10.1096,10.1289,10.1789,10.2289,10.2404,10.302,10.3597,10.3597,10.3676,10.3791,10.379,10.4013,10.4503,10.5199,10.5498,10.5603,10.5603,10.6299,10.7189,10.8001,10.9509,11.0515,11.0477,11.0477,10.993,10.8421,10.7492,10.6718,10.5915,10.5085,10.4293,10.3298,10.1783,10.1006,10.0889,10.0112,9.9607,9.953,9.8636,9.817,9.8053,9.7276,9.6115,6.9788,6.9911,7.0498,0.0,7.472,7.5096,7.6293,7.699,7.756,7.7911,7.9714,8.121,8.1124,8.2472,8.4007,0.0,8.6537,8.815,9.0184,9.0875,9.149,9.2373,9.1794,9.1446,9.1902,9.271,9.3326,9.3672,9.4518,9.5211,9.5711,9.6557,9.7365,9.8211,9.875,9.875,9.825,9.9096,9.9288,9.8788,9.9173,9.9788,10.0596,10.0596,10.0904,10.1289,10.0904,10.0596,10.0289,10.0289,10.0289,10.0289,10.0289,10.0289,10.0096,9.9173,9.9327,9.9981,9.9673,10.0404,10.1289,10.0481,10.0519,10.0789,10.0404,10.0519,10.0789,10.0789,10.1404,10.2097,10.2097,10.2712,10.3405,10.3405,10.3597,10.3905,10.3905,10.4291,10.4484,10.4099,10.4907,10.5598,10.5589,10.6006,10.6387,10.6415,10.7189,10.8078,10.8891,11.009,11.0593,11.0094,10.92,10.8272,10.7575,10.6802,10.6208,10.602,10.5205,10.44,10.3587,10.2409,10.1711,10.1583,10.0895,10.0415,10.0415,9.9623,9.8986,9.8481,9.8131,9.7587,7.3161,0.0,0.0,7.589,7.6925,7.7226,7.7577,7.8611,7.9531,7.9761,8.1259,8.2562,8.2674,8.3901,8.5242,8.6352,8.7771,8.9305,9.0992,9.1721,9.2334,9.3025,9.3025,9.2947,9.2828,9.3364,9.3903,9.4364,9.5211,9.5865,9.6212,9.725,9.8096,9.8711,9.9596,9.975,9.9096,9.9981,9.9981,9.9173,9.9365,9.9827,10.0404,10.0404,10.0712,10.1289,10.1289,10.1289,10.1289,10.1289,10.1289,10.1289,10.1289,10.1289,10.1212,9.9942,9.9904,10.0404,10.0404,10.0789,10.1289,10.1289,10.1289,10.1289,10.1289,10.1289,10.1289,10.1289,10.1904,10.2597,10.2597,10.3405,10.4212,10.4212,10.4405,10.4597,10.4597,10.4982,10.533,10.4831,10.5717,10.6372,10.5904,10.6403,10.6902,10.7199,10.8011,10.8784,10.9393,11.0515,11.0902,11.0288,10.847,10.7382,10.7685,10.6492,10.5912,10.6221,10.5319,10.4492,10.3896,10.2798,10.21,10.2085,10.1505,10.1298,10.1298,10.0516,9.9802,9.918,9.8947,9.8986,0.0,0.0,7.5064,7.8432,7.9957,8.0413,7.9539,7.9351,7.9619,8.0423,8.058,8.1383,8.4054,8.5167,8.6241,8.8039,8.9036,9.0148,9.1836,9.2066,9.2143,9.2334,9.3755,9.4408,0.0,9.3637,9.4403,9.6095,9.698,9.7058,9.6136,9.7672,9.8554,9.8511,9.9437,9.99,9.9862,10.0827,10.0904,10.0096,10.0904,10.1212,10.1289,10.1289,10.1289,10.1289,10.1289,10.1289,10.1289,10.1289,10.1289,10.1289,10.1289,10.1289,10.1289,10.1212,10.1212,10.1289,10.1289,10.1289,10.1289,10.1289,10.1289,10.1289,10.1289,10.1289,10.1289,10.1289,10.1904,10.2597,10.2597,10.3789,10.5097,10.5097,10.5713,10.629,10.629,10.629,10.6405,10.629,10.6409,10.6488,10.6488,10.6565,10.6986,10.7797,10.8684,10.9299,10.9476,11.1018,11.2101,11.2024,10.9819,10.8614,10.9407,10.7105,10.6105,10.6995,10.5486,10.4583,10.4699,10.2987,10.2068,10.2085,10.2087,10.219,10.219,10.141,10.0889,10.0889,10.0112,10.019,0.0,0.0,7.8394,8.1115,8.1612,8.1498,8.1765,8.2225,8.2531,8.2225,8.2646,8.3142,8.3448,8.5131,8.6621,8.7234,8.9455,9.1482,9.263,9.3281,9.3855,9.4432,9.4551,0.0,0.0,0.0,0.0,9.6098,9.702,9.7596,9.7749,9.8825,9.9706,10.008,10.0506,10.0701,10.0783,10.1093,10.1095,10.0904,10.1212,10.1289,10.1289,10.1289,10.1289,10.1289,10.1289,10.1289,10.1289,10.1289,10.1289,10.1289,10.1289,10.1289,10.1289,10.1289,10.1289,10.1289,10.1289,10.1289,10.1289,10.1289,10.1289,10.1289,10.1289,10.1712,10.2212,10.2212,10.3212,10.4289,10.4289,10.5097,10.602,10.602,10.6213,10.6405,10.6405,10.6405,10.6405,10.6405,10.6407,10.6409,10.6526,10.7027,10.7914,10.9417,10.988,11.0304,11.0882,11.1606,11.1714,11.1177,10.9398,10.8426,10.871,10.6873,10.6105,10.6995,10.6007,10.541,10.541,10.3801,10.2882,10.2794,10.232,10.2107,10.2073,10.188,10.1502,10.1006,10.0695,10.0695,0.0,7.8899,8.0389,8.2875,8.2837,8.234,8.2875,8.341,8.3754,8.3524,8.341,8.341,8.3448,8.5053,8.6237,8.597,8.8721,9.1204,9.2083,9.2924,9.3879,9.5069,9.5079,9.5083,0.0,0.0,0.0,9.6481,9.7366,9.8057,9.8472,9.9585,10.031,10.0372,10.0798,10.1038,10.1081,10.1203,10.1402,10.1789,10.2097,10.2212,10.2212,10.1904,10.1789,10.1712,10.1404,10.1289,10.1289,10.1289,10.1289,10.1289,10.1597,10.1789,10.1789,10.2097,10.2212,10.2097,10.152,10.1289,10.1327,10.1288,10.1519,10.1671,10.1671,10.2286,10.3018,10.3097,10.3982,10.5097,10.5097,10.5713,10.6405,10.6405,10.6405,10.6405,10.6405,10.6405,10.6405,10.6405,10.6405,10.6367,10.6486,10.7371,10.8682,11.0188,11.0689,11.1114,11.1693,11.177,11.1725,11.11,10.9403,10.82,10.8298,10.6718,10.6028,10.6608,10.6105,10.5796,10.5789,10.4411,10.3521,10.3197,10.2694,10.2299,10.2078,10.2203,10.1891,10.141,10.1511,10.1511,7.9474,8.0659,8.1347,8.3754,8.3754,8.3104,8.3142,8.3142,8.3333,8.4136,8.2951,8.2302,0.0,0.0,8.5206,8.4556,8.7269,8.9791,9.0669,9.151,9.2623,0.0,0.0,0.0,0.0,0.0,0.0,9.7242,9.8091,9.8511,9.8375,9.9906,10.0397,9.9534,10.0435,10.0901,10.0901,10.1196,10.1784,10.2712,10.352,10.3905,10.3905,10.302,10.2597,10.2597,10.1712,10.1327,10.1404,10.1404,10.1404,10.152,10.2289,10.2712,10.2789,10.3597,10.3905,10.3712,10.202,10.1404,10.1365,10.14,10.1782,10.2512,10.2512,10.3088,10.3821,10.3903,10.452,10.5213,10.5213,10.579,10.6405,10.6405,10.6405,10.6405,10.6405,10.6405,10.6405,10.6405,10.6405,10.6521,10.6521,10.7905,10.929,11.0098,11.0983,11.1606,11.1809,11.1808,11.1809,11.1877,10.9673,10.8166,10.8305,10.6686,10.5686,10.5686,10.5686,10.5802,10.5802,10.4913,10.41,10.3313,10.3313,10.2926,10.2082,10.21,10.2201,10.219,10.2303,10.2327,8.1003,8.2837,8.4365,8.5015,8.5013,8.482,8.4862,8.4782,8.4706,8.4365,8.2951,8.192,0.0,0.0,0.0,8.6008,8.9523,0.0,9.3306,9.4108,0.0,9.526,0.0,9.5834,9.6254,9.6533,0.0,0.0,9.8615,9.8738,9.9309,10.0295,10.0895,10.1292,10.1529,10.1996,10.27,10.2884,10.3084,10.3311,10.3708,10.3788,10.3706,10.2784,10.2517,10.252,10.1594,10.1594,10.2289,10.2289,10.2712,10.3289,10.3482,10.3597,10.3597,10.3789,10.3826,10.3706,10.3206,10.317,10.3212,10.3091,10.3203,10.3318,10.3191,10.3886,10.4586,10.4628,10.5284,10.6097,10.6097,10.6213,10.6405,10.6405,10.6405,10.6405,10.6405,10.6405,10.6405,10.6405,10.6905,10.7598,10.8213,10.9213,11.0214,11.1021,11.1406,11.1483,11.1606,11.1571,11.1691,11.1809,11.0182,10.8891,10.8298,10.7299,10.6376,10.5686,10.6299,10.6686,10.6686,10.5802,10.5299,10.51,10.3932,10.312,10.3003,10.2406,10.2096,10.2087,10.2113,10.219,8.299,8.4402,8.5622,8.6347,8.5921,8.5346,8.5429,8.5123,8.4627,8.3907,8.2378,0.0,8.1729,8.3181,0.0,0.0,0.0,0.0,9.3153,9.3994,9.4796,0.0,9.5942,0.0,9.6859,9.7248,9.8057,0.0,9.9184,9.9304,10.0103,10.0895,10.1491,10.1903,10.2285,10.2676,10.3313,10.3793,10.4106,10.4106,10.4586,10.482,10.4692,10.3891,10.3514,10.3593,10.2707,10.2591,10.3093,10.3093,10.3283,10.3779,10.4087,10.4279,10.4279,10.4663,10.4816,10.4692,10.4692,10.4774,10.4701,10.3766,10.3805,10.4106,10.3978,10.4604,10.5383,10.5508,10.5899,10.6405,10.6405,10.6405,10.6405,10.6405,10.6405,10.6405,10.6405,10.6405,10.6521,10.6905,10.7713,10.8482,10.929,10.9906,11.0483,11.1406,11.1522,11.1522,11.1522,11.1487,11.1609,11.1689,11.0611,10.9403,10.8305,10.7802,10.6989,10.5802,10.6492,10.6995,10.6995,10.6492,10.6105,10.5686,10.479,10.4126,10.3777,10.3313,10.3103,10.3104,10.2783,10.2914,8.5053,8.5622,8.5921,8.7523,8.6561,8.5219,8.5384,8.4698,8.3786,8.2836,0.0,8.0697,8.1347,8.2913,8.4289,8.4709,0.0,9.1128,9.216,9.2962,9.3955,9.5446,9.6363,9.6936,9.705,9.7815,9.8701,9.9632,9.967,9.9893,10.0612,10.1406,10.2018,10.2209,10.3087,10.3594,10.3573,10.4423,10.4814,10.4905,10.5805,10.6112,10.6023,10.5229,10.4889,10.4893,10.4006,10.3702,10.3706,10.3818,10.3771,10.3799,10.4604,10.4988,10.4988,10.5601,10.5793,10.5786,10.5786,10.5786,10.5633,10.4124,10.4193,10.4806,10.4806,10.5319,10.603,10.6194,10.6322,10.6405,10.6405,10.6405,10.6405,10.6405,10.6405,10.6405,10.6405,10.6521,10.679,10.7713,10.8482,10.929,11.0098,11.0291,11.0598,11.1406,11.1522,11.1522,11.1522,11.1522,11.1487,11.1612,11.0883,10.9799,10.8122,10.8188,10.7492,10.5603,10.6492,10.6995,10.6995,10.6995,10.6608,10.5912,10.5802,10.5293,10.459,10.4474,10.4474,10.4474,10.3792,10.3995,8.6235,8.6379,8.648,8.7595,8.6437,8.5094,8.5346,8.4618,0.0,0.0,8.0697,8.0353,7.9818,8.1652,8.4136,8.6963,8.9791,9.2389,9.4643,9.5064,9.5255,0.0,0.0,0.0,0.0,0.0,0.0,0.0,10.0421,10.0497,10.078,10.1491,10.2514,10.389,10.4807,10.5303,10.5314,10.5486,10.5601,10.5505,10.5894,10.5978,10.5924,10.5005,10.4719,10.4816,10.3793,10.3574,10.3903,10.4385,10.4615,10.4697,10.5492,10.5793,10.5716,10.518,10.4905,10.4814,10.4814,10.4797,10.4826,10.5303,10.561,10.5686,10.5686,10.5817,10.603,10.6194,10.6322,10.6405,10.6405,10.6405,10.6405,10.6405,10.6405,10.6405,10.6405,10.7021,10.7713,10.8482,10.9406,10.9983,11.0214,11.0791,11.1291,11.1522,11.1522,11.1522,11.1522,11.1522,11.1487,11.1612,11.0883,10.957,10.7208,10.7813,10.7189,10.479,10.6105,10.6995,10.6995,10.6995,10.6879,10.6802,10.6105,10.557,10.5525,10.4797,10.441,10.441,10.4326,10.4319,8.6985,8.6823,8.6653,8.8036,8.6647,8.4886,8.4643,0.0,0.0,0.0,7.9667,7.9553,7.9247,8.1576,0.0,8.639,8.96,9.2389,9.407,9.5064,0.0,9.5598,9.6745,0.0,0.0,0.0,10.0183,10.0604,10.0604,10.0566,10.0696,10.1912,10.3087,10.4386,10.5189,10.5724,10.5724,10.5773,10.5773,10.5686,10.5916,10.5924,10.5783,10.5371,10.5273,10.541,10.489,10.4783,10.4999,10.5288,10.5396,10.5388,10.5686,10.5801,10.5801,10.5418,10.5218,10.5209,10.5209,10.5084,10.5189,10.5581,10.5821,10.5783,10.5916,10.5894,10.603,10.6194,10.6322,10.6405,10.6405,10.6713,10.7098,10.7098,10.7405,10.7713,10.7713,10.8406,10.9098,10.9483,11.0291,11.0906,11.0906,11.1214,11.1522,11.1522,11.1522,11.1522,11.1522,11.1522,11.1483,11.1529,11.1304,11.0305,10.8218,10.8598,10.7972,10.5912,10.6492,10.6995,10.6995,10.6995,10.6995,10.6995,10.6608,10.6415,10.6415,10.6028,10.5802,10.5686,10.5299,10.5409,8.7465,8.7262,8.7087,8.8463,8.6965,8.4909,8.3747,8.2347,0.0,0.0,7.8635,7.8902,7.8828,8.1574,8.4131,0.0,8.845,9.1434,9.2613,9.4108,9.5178,0.0,9.7089,0.0,9.8074,9.961,0.0,10.0595,10.0595,10.0671,10.0909,10.2209,10.3393,10.4386,10.5112,10.5495,10.5724,10.5724,10.5724,10.5686,10.5783,10.5783,10.5686,10.5783,10.5916,10.5878,10.5916,10.5801,10.5695,10.5801,10.5668,10.5505,10.5609,10.5724,10.5686,10.5495,10.5418,10.5418,10.5418,10.5418,10.5495,10.5609,10.5724,10.5686,10.5916,10.5894,10.6023,10.6194,10.628,10.6399,10.6595,10.7095,10.7671,10.7905,10.8406,10.8902,10.9094,10.9709,11.0209,11.0402,11.0978,11.1478,11.1522,11.1522,11.1522,11.1522,11.1522,11.1522,11.1522,11.1522,11.1522,11.1522,11.1606,11.092,10.9301,10.9299,10.8711,10.7111,10.6995,10.6995,10.6995,10.6995,10.6995,10.6995,10.6995,10.6995,10.6995,10.6995,10.6995,10.6995,10.6299,10.6415,8.7465,8.8007,8.8436,8.872,8.7383,8.5402,8.3101,0.0,0.0,7.7302,7.7835,7.8673,7.7989,8.0696,0.0,0.0,0.0,8.9214,9.1495,9.2728,9.3879,9.5407,0.0,0.0,9.7943,9.9564,10.0519,10.0375,10.0375,10.0805,10.1712,10.1903,10.282,10.431,10.4501,10.4921,10.5724,10.5724,10.5724,10.5724,10.5686,10.5686,10.5724,10.5686,10.5821,10.5916,10.5773,10.5409,10.4905,10.5477,10.5324,10.4797,10.539,10.5724,10.5609,10.4807,10.4501,10.4501,10.4501,10.4501,10.4616,10.5418,10.5724,10.5696,10.5894,10.5971,10.5932,10.6117,10.6074,10.6183,10.7198,10.7466,10.7702,10.8594,10.8782,10.8888,10.9694,10.9873,11.0096,11.1,11.1314,11.139,11.1478,11.1522,11.1522,11.1522,11.1522,11.1522,11.1522,11.1522,11.1522,11.1522,11.1606,11.092,10.9301,10.9299,10.8711,10.7111,10.6995,10.6995,10.6995,10.6995,10.6995,10.6995,10.6995,10.6995,10.6995,10.6995,10.6995,10.6995,10.6879,10.6879,8.7125,8.7345,8.7213,8.7791,8.6274,8.4067,8.2102,0.0,7.9035,7.6686,7.7179,7.7903,7.7602,8.0002,8.206,8.2365,0.0,0.0,8.9163,9.1457,9.36,9.5318,9.6998,0.0,0.0,0.0,10.0326,10.0315,10.0315,10.0506,10.0898,10.1775,10.288,10.41,10.4596,10.5104,10.5625,10.5625,10.5587,10.5724,10.5724,10.5724,10.5724,10.5724,10.5686,10.5821,10.5686,10.5276,10.4606,10.5428,10.5237,10.4588,10.538,10.5724,10.5686,10.5303,10.5189,10.5189,10.5189,10.5189,10.5189,10.5609,10.5991,10.6422,10.6039,10.5886,10.6001,10.6675,10.6797,10.6982,10.7871,10.853,10.9105,10.9995,11.018,11.0172,11.0602,11.0633,11.0701,11.1093,11.1216,11.1216,11.13,11.13,11.1307,11.139,11.1435,11.1396,11.1522,11.1522,11.1522,11.1522,11.1526,11.0916,10.9301,10.9186,10.8601,10.6972,10.7001,10.6995,10.6995,10.6995,10.6995,10.6995,10.6995,10.6995,10.6995,10.6995,10.6995,10.6995,10.6995,10.6995,8.6539,8.6994,8.6957,8.7336,8.5895,8.3733,0.0,0.0,7.8078,7.6145,7.6411,7.7135,7.7404,7.9575,8.1326,8.133,8.4039,8.6561,8.7628,9.0073,9.2436,9.4426,0.0,9.742,0.0,9.9404,10.0203,10.0177,10.0393,10.0621,10.0887,10.2205,10.3193,10.3603,10.4402,10.5026,10.5396,10.5396,10.5524,10.5625,10.5587,10.5598,10.5598,10.5724,10.5609,10.5303,10.5609,10.5112,10.4119,10.5189,10.5189,10.4501,10.5418,10.5724,10.5724,10.5724,10.5724,10.5724,10.5724,10.5724,10.5724,10.5724,10.6106,10.6488,10.5974,10.6213,10.6672,10.7388,10.7818,10.8124,10.8699,10.9504,11.0318,11.1008,11.1076,11.0999,11.0999,11.0989,11.0989,11.1037,11.0999,11.1114,11.1123,11.1085,11.1132,11.1224,11.1307,11.1314,11.1396,11.1478,11.1522,11.1522,11.1522,11.091,10.9608,10.9302,10.8606,10.7323,10.7117,10.6995,10.6995,10.6995,10.6995,10.6995,10.6995,10.6995,10.6995,10.6995,10.6995,10.6995,10.6995,10.6995,8.5569,8.7513,8.8577,8.7703,8.6867,8.5151,0.0,0.0,7.7889,7.5425,7.5539,7.6373,7.7244,7.9654,8.141,8.1154,8.354,8.5876,8.7293,8.841,8.9984,0.0,9.4296,9.5572,9.6447,9.8668,10.01,10.0215,10.0912,10.1605,10.2402,10.3205,10.3336,10.2727,10.3603,10.4402,10.5201,10.5201,10.5201,10.5201,10.5396,10.5485,10.5485,10.5598,10.5189,10.4501,10.5303,10.4807,10.3278,10.4998,10.5189,10.4501,10.5418,10.5724,10.5724,10.5724,10.5724,10.5724,10.5724,10.5724,10.5724,10.5724,10.5724,10.5724,10.5686,10.6908,10.8219,10.8279,10.9016,10.9591,10.9591,11.03,11.1085,11.1085,11.0989,11.0892,11.0892,11.0793,11.0704,11.0881,11.0892,11.0903,11.1123,11.1085,11.1085,11.1085,11.1178,11.1307,11.1307,11.1396,11.1522,11.1522,11.1522,11.1218,11.0418,10.9572,10.8876,10.8096,10.7426,10.6995,10.6995,10.6995,10.6995,10.6995,10.6995,10.6995,10.6995,10.6995,10.6995,10.6995,10.6995,10.6995,8.3088,8.3999,8.4385,8.412,8.2937,8.1268,7.8761,7.751,7.6524,7.5198,7.5539,7.6373,7.729,7.8663,7.9996,8.1051,8.2466,8.3954,8.5538,0.0,0.0,9.3193,9.6363,9.8424,0.0,0.0,9.9904,9.9904,10.0131,10.0571,10.1481,10.1822,10.2619,10.4133,10.4437,10.4664,10.5078,10.5078,10.5094,10.5201,10.5292,10.5292,10.5292,10.5306,10.5192,10.4963,10.5192,10.4837,10.3972,10.5078,10.509,10.4501,10.5418,10.5724,10.5724,10.5724,10.5724,10.5724,10.5724,10.5724,10.5724,10.5724,10.6106,10.6488,10.6488,10.6488,10.6679,10.7913,10.9289,11.0398,11.0398,11.0601,11.0804,11.0804,11.0793,11.078,11.078,11.0704,11.0691,11.078,11.078,11.0831,11.0793,11.0804,11.0881,11.0903,11.1123,11.1216,11.1307,11.1396,11.1522,11.1522,11.1522,11.0906,10.9486,10.9223,10.8531,10.7104,10.6907,10.6825,10.6825,10.6825,10.6783,10.6918,10.6879,10.6879,10.6995,10.6995,10.6995,10.6995,10.6995,10.6995,0.0,8.245,8.2867,8.257,8.1426,0.0,0.0,0.0,7.588,7.5084,7.5539,7.6373,7.729,7.8432,7.9689,8.1013,8.219,0.0,0.0,0.0,0.0,9.3807,0.0,0.0,0.0,9.9607,9.9796,9.9796,10.0099,10.0706,10.1502,10.1881,10.2904,10.4686,10.4496,10.4515,10.493,10.493,10.4968,10.5002,10.5094,10.5034,10.473,10.4958,10.4897,10.4288,10.4897,10.4569,0.0,10.4901,10.499,10.4365,10.5281,10.5587,10.5587,10.5724,10.5724,10.5724,10.5724,10.5724,10.5724,10.5724,10.622,10.6908,10.6908,10.6985,10.729,10.8398,10.9583,11.0691,11.0691,11.0691,11.0691,11.0691,11.0691,11.0691,11.0691,11.0691,11.0691,11.0691,11.0691,11.0691,11.0691,11.0691,11.0704,11.0793,11.0903,11.1076,11.1178,11.1314,11.1401,11.1522,11.1522,11.0791,10.8983,10.8988,10.8414,10.6603,10.6602,10.6716,10.6716,10.6716,10.6712,10.6817,10.6813,10.6813,10.689,10.6894,10.689,10.6879,10.6879,10.6879,0.0,0.0,0.0,0.0,0.0,0.0,0.0,0.0,0.0,0.0,0.0,7.6373,7.7244,7.8808,8.0254,0.0,0.0,0.0,0.0,8.8312,0.0,0.0,9.5806,0.0,9.847,9.9379,9.991,9.991,10.0592,10.1502,10.2298,10.298,10.3814,10.4686,10.4003,10.4003,10.4799,10.4799,10.4799,10.4799,10.493,10.4605,10.3922,10.479,10.4273,10.2866,10.4516,10.4378,10.3185,10.4607,10.4797,10.4418,10.5219,10.5524,10.5485,10.5598,10.5724,10.5724,10.5724,10.5724,10.5724,10.58,10.6297,10.6908,10.6985,10.8093,10.9392,10.9392,11.0003,11.0691,11.0691,11.0691,11.0691,11.0691,11.0691,11.0691,11.0691,11.0691,11.0691,11.0691,11.0691,11.0691,11.0691,11.0691,11.0691,11.0691,11.0793,11.0903,11.1123,11.1178,11.1314,11.1406,11.1406,11.0714,10.8983,10.8988,10.8299,10.6603,10.6603,10.6679,10.6679,10.6679,10.6716,10.6716,10.6676,10.6673,10.6673,10.6714,10.6709,10.6691,10.6691,10.6691,0.0,0.0,0.0,7.7859,7.7476,0.0,0.0,0.0,0.0,0.0,0.0,7.6414,7.7331,7.8891,0.0,0.0,0.0,0.0,8.7061,0.0,0.0,0.0,9.7105,9.822,9.8545,9.9948,10.0782,10.0782,10.1009,10.1502,10.2298,10.1881,10.2374,10.3814,10.37,10.4003,10.4799,10.4799,10.4799,10.4799,10.4818,10.4704,10.4591,10.4798,10.4685,10.4305,10.4795,10.4774,10.4486,10.4996,10.5087,10.4987,10.5216,10.5382,10.5485,10.5536,10.5587,10.5724,10.5724,10.5724,10.58,10.6412,10.6679,10.6985,10.7711,10.8589,10.9392,10.9392,11.0003,11.0691,11.0691,11.0691,11.0691,11.0691,11.0691,11.0691,11.0691,11.0691,11.0691,11.0691,11.0691,11.0691,11.0691,11.0691,11.0691,11.0691,11.0793,11.0903,11.1123,11.1178,11.1083,11.0598,11.0483,10.979,10.8098,10.8601,10.8216,10.6523,10.6484,10.6525,10.6525,10.6525,10.6526,10.6488,10.6602,10.6714,10.6714,10.6678,10.6714,10.6712,10.6712,10.6716,7.5539,7.6449,7.7207,7.6417,7.6149,7.588,0.0,0.0,0.0,0.0,0.0,0.0,7.7366,0.0,0.0,0.0,0.0,0.0,0.0,0.0,0.0,9.5854,9.6916,9.8053,0.0,10.0592,10.1312,10.1616,10.1691,10.1805,10.2298,10.2298,10.2677,10.3586,10.4003,10.4382,10.4799,10.4799,10.4799,10.4799,10.4799,10.461,10.4307,10.461,10.461,10.4269,10.4723,10.4892,10.4985,10.4985,10.5078,10.5094,10.5094,10.5201,10.5382,10.5524,10.5498,10.5587,10.5674,10.5724,10.58,10.6603,10.7176,10.7711,10.8513,10.9315,10.9889,10.9506,11.0003,11.0691,11.0691,11.0691,11.0691,11.0691,11.0691,11.0691,11.0691,11.0691,11.0691,11.0691,11.0691,11.0691,11.0691,11.0691,11.0691,11.0691,11.078,11.0881,11.1028,11.0692,11.0364,11.0078,10.9705,10.8975,10.7706,10.8094,10.779,10.6521,10.6405,10.6405,10.6405,10.6405,10.6407,10.6486,10.6526,10.6603,10.6603,10.6603,10.6603,10.6603,10.6603,10.6603,7.4895,7.6107,7.721,7.6306,7.6114,7.5918,0.0,0.0,0.0,0.0,0.0,0.0,0.0,0.0,0.0,0.0,0.0,0.0,0.0,9.2405,9.3846,9.6044,9.6484,0.0,10.0592,10.1312,10.1805,10.2411,10.2487,10.2487,10.2487,10.3207,10.3586,10.3586,10.4382,10.4799,10.4799,10.4686,10.4686,10.4799,10.4686,10.4307,10.3776,10.4496,10.4382,10.3776,10.4515,10.4912,10.4968,10.4912,10.4912,10.4985,10.4985,10.5094,10.5292,10.5434,10.5524,10.5498,10.5713,10.5724,10.58,10.6603,10.7405,10.8081,10.8883,10.9799,11.0296,10.9532,10.999,11.0678,11.0601,11.0678,11.0729,11.0729,11.0691,11.0691,11.0691,11.0691,11.0691,11.0691,11.0691,11.0691,11.0691,11.0691,11.0691,11.0691,11.0691,11.0704,11.093,11.0318,10.9792,10.9589,10.9105,10.8311,10.739,10.7399,10.7172,10.6402,10.6405,10.6405,10.6405,10.6405,10.6405,10.6405,10.6405,10.6405,10.6405,10.6405,10.6405,10.6405,10.6405,10.6405,7.4895,7.6107,7.7017,7.5501,7.5615,7.6069,0.0,0.0,0.0,0.0,0.0,0.0,0.0,0.0,0.0,0.0,0.0,0.0,0.0,0.0,0.0,9.7067,0.0,9.9291,9.9948,10.1995,10.3283,10.3397,10.3397,10.3397,10.3397,10.3511,10.3586,10.3586,10.4382,10.4799,10.4799,10.4079,10.4079,10.4799,10.4079,10.4079,10.461,10.4686,10.4686,10.4572,10.4874,10.4874,10.4818,10.493,10.5023,10.4985,10.4985,10.5186,10.5396,10.5292,10.5396,10.5674,10.5724,10.5724,10.58,10.6603,10.6935,10.7101,10.8016,10.8674,10.9176,10.9062,10.9818,11.0481,11.0412,11.0428,11.0535,11.0535,11.0587,11.0691,11.0691,11.0691,11.0691,11.0691,11.0691,11.0691,11.0691,11.0691,11.0691,11.0691,11.0691,11.0704,11.093,11.0815,11.0213,10.8899,10.8669,10.8031,10.6506,10.6391,10.6434,10.6203,10.6326,10.6405,10.6405,10.6405,10.6405,10.6405,10.6405,10.6405,10.6405,10.6405,10.6405,10.6405,10.6405,10.6405,7.4781,7.5463,7.6297,7.7358,7.7889,7.8154,0.0,0.0,0.0,0.0,0.0,0.0,0.0,0.0,0.0,0.0,0.0,0.0,0.0,0.0,9.6176,0.0,0.0,9.9557,10.1542,10.2791,10.3719,10.4193,10.4193,10.4079,10.3586,10.4003,10.4003,10.3586,10.4382,10.4799,10.4799,10.4003,10.4003,10.4799,10.4382,10.4382,10.4799,10.4799,10.4799,10.4799,10.4894,10.4894,10.4799,10.4856,10.493,10.4985,10.4985,10.5094,10.5292,10.5224,10.5201,10.5396,10.5306,10.5382,10.56,10.6401,10.6616,10.6792,10.7592,10.8072,10.8398,10.8782,10.9616,11.0335,10.9693,10.9595,10.9611,10.9116,10.9398,10.9795,10.99,11.032,11.0587,11.0691,11.0691,11.0691,11.0691,11.0691,11.0691,11.0691,11.0691,11.0742,11.0831,11.0028,10.9186,10.8519,10.7609,10.6898,10.6227,10.6194,10.6199,10.6199,10.628,10.6322,10.6322,10.6402,10.6405,10.6405,10.6405,10.6405,10.6405,10.6405,10.6405,10.6405,10.6405,10.6405,7.4626,7.5157,7.61,0.0,0.0,0.0,0.0,0.0,0.0,0.0,0.0,0.0,0.0,0.0,0.0,0.0,0.0,0.0,0.0,0.0,9.6309,9.8383,9.8836,10.0101,10.2996,10.3508,10.3907,10.4704,10.4799,10.4496,10.389,10.4496,10.4496,10.389,10.4496,10.4799,10.4799,10.4193,10.4193,10.4799,10.461,10.461,10.4799,10.4799,10.4799,10.4799,10.4799,10.4799,10.4799,10.4799,10.4912,10.4985,10.4985,10.5078,10.511,10.5078,10.5094,10.511,10.5078,10.5094,10.5315,10.6001,10.6229,10.6289,10.6898,10.7316,10.749,10.8024,10.8916,10.9505,10.9277,10.9104,10.88,10.8191,10.8398,10.8795,10.9132,10.9703,11.0214,11.0601,11.0678,11.0678,11.0691,11.0691,11.0691,11.0691,11.0691,11.0691,11.0691,10.9392,10.8398,10.8207,10.7006,10.6116,10.6023,10.6112,10.6194,10.6194,10.6194,10.6194,10.6194,10.6322,10.6402,10.6402,10.6405,10.6405,10.6405,10.6405,10.6405,10.6405,10.6405,10.6405,7.4464,7.5782,7.7326,7.9399,0.0,0.0,0.0,0.0,0.0,0.0,0.0,0.0,0.0,0.0,0.0,0.0,0.0,9.5951,9.7687,0.0,9.917,10.0328,10.1039,10.1769,10.3007,10.4017,10.4492,10.4567,10.4704,10.4799,10.4686,10.4799,10.4799,10.4686,10.4799,10.4799,10.4799,10.4686,10.4686,10.4799,10.4003,10.4079,10.4799,10.4799,10.4799,10.4799,10.4799,10.4799,10.4799,10.4799,10.4912,10.4985,10.4985,10.4985,10.504,10.511,10.5094,10.5002,10.511,10.5201,10.5201,10.5315,10.517,10.5099,10.5175,10.5727,10.6221,10.6335,10.6884,10.7869,10.9445,10.9276,10.8784,10.867,10.8288,10.8094,10.891,10.9138,10.9367,11.0329,11.0481,11.0611,11.0729,11.0691,11.0691,11.0691,11.0691,11.0691,11.0691,10.9889,10.901,10.8284,10.7405,10.6586,10.6023,10.5985,10.5985,10.5985,10.5985,10.5985,10.5985,10.6117,10.6199,10.6199,10.6326,10.6405,10.6405,10.6405,10.6405,10.6405,10.6405,10.6405,7.4185,7.5815,0.0,0.0,0.0,0.0,0.0,0.0,0.0,0.0,0.0,0.0,0.0,0.0,0.0,0.0,9.5459,9.732,9.8449,9.9253,10.0118,10.1007,10.1809,10.2624,10.3577,10.4054,10.4327,10.4388,10.4486,10.4508,10.4508,10.4508,10.4281,10.379,10.4206,10.4206,10.3676,10.4206,10.4508,10.4508,10.4381,10.4496,10.4799,10.4799,10.4799,10.4799,10.4799,10.4799,10.4799,10.4799,10.4912,10.4985,10.4985,10.4985,10.4985,10.4968,10.4874,10.4912,10.493,10.5006,10.5006,10.5006,10.4874,10.4912,10.4912,10.5084,10.5406,10.5898,10.6277,10.6694,10.7301,10.7321,10.6999,10.643,10.6468,10.6809,10.7168,10.7718,10.842,10.9405,10.9611,10.9818,11.0496,11.0625,11.0587,11.0691,11.0194,10.9889,10.9889,10.8704,10.7711,10.7405,10.6787,10.6192,10.6009,10.5978,10.5978,10.5932,10.5932,10.62,10.679,10.6924,10.701,10.7091,10.7172,10.6905,10.6405,10.6405,10.6405,10.6405,10.6405,10.6405,7.4809,7.6286,0.0,0.0,0.0,0.0,0.0,0.0,0.0,0.0,0.0,0.0,0.0,0.0,0.0,0.0,9.6802,9.8205,9.8829,9.958,10.0407,10.1308,10.2096,10.3024,10.3877,10.4091,10.4142,10.4167,10.4266,10.4327,10.4327,10.4327,10.4025,10.3497,10.4025,10.4025,10.3497,10.4025,10.4327,10.4327,10.4626,10.4704,10.4704,10.4799,10.4799,10.4799,10.4799,10.4799,10.4799,10.4799,10.4894,10.493,10.493,10.493,10.4874,10.4799,10.478,10.4799,10.478,10.478,10.4799,10.4799,10.4799,10.4799,10.4799,10.4989,10.5292,10.5595,10.5898,10.5974,10.5785,10.5898,10.5898,10.5406,10.5482,10.5804,10.6221,10.6904,10.772,10.8668,10.9104,10.9502,10.997,11.0291,11.0496,11.0309,10.9812,10.9392,10.9392,10.7902,10.6794,10.6488,10.6184,10.5894,10.5878,10.5894,10.5894,10.5878,10.6098,10.649,10.7204,10.7686,10.7894,10.8017,10.8098,10.779,10.7213,10.6905,10.679,10.679,10.6521,10.6405,7.647,0.0,0.0,0.0,0.0,0.0,0.0,0.0,0.0,0.0,0.0,0.0,0.0,0.0,0.0,0.0,9.713,9.8679,9.8842,9.9618,10.0407,10.1308,10.2096,10.2885,10.3711,10.399,10.4117,10.4117,10.4167,10.4327,10.4327,10.4327,10.4327,10.4327,10.4327,10.4327,10.4327,10.4327,10.4327,10.4327,10.4508,10.4605,10.4567,10.4704,10.4799,10.4799,10.4799,10.4799,10.4799,10.4799,10.4799,10.4799,10.4799,10.4799,10.4799,10.4588,10.4722,10.4799,10.4588,10.4684,10.4799,10.4799,10.4799,10.4799,10.4799,10.5406,10.5898,10.4989,10.5406,10.5898,10.4989,10.5406,10.6088,10.6088,10.5406,10.4989,10.5898,10.6694,10.7624,10.8575,10.9391,10.9809,10.9284,10.9909,11.0229,10.9494,10.9392,10.9392,10.9392,10.7902,10.6603,10.58,10.5783,10.5878,10.5878,10.5878,10.5878,10.5878,10.6509,10.6996,10.7102,10.8101,10.8696,10.8696,10.8825,10.8906,10.8906,10.8098,10.7713,10.7713,10.679,10.6405,7.5408,0.0,0.0,0.0,0.0,0.0,0.0,0.0,0.0,0.0,0.0,0.0,0.0,0.0,0.0,0.0,9.7317,9.8803,9.931,10.0226,10.1115,10.1902,10.2802,10.3393,10.3824,10.3926,10.3888,10.3888,10.3915,10.3877,10.3877,10.3877,10.3689,10.3088,10.3689,10.3689,10.3088,10.3689,10.3877,10.399,10.418,10.4266,10.4388,10.4684,10.4704,10.4664,10.4664,10.4664,10.4588,10.4508,10.447,10.4664,10.4664,10.4684,10.4799,10.4588,10.4722,10.4799,10.4588,10.4684,10.4799,10.4799,10.4799,10.4799,10.4799,10.4989,10.5103,10.4875,10.4989,10.5103,10.4875,10.4989,10.5178,10.5178,10.5482,10.5785,10.5974,10.6694,10.7604,10.8497,10.8876,10.92,10.9695,11.0111,11.0107,10.9428,10.8921,10.8093,10.6908,10.6412,10.5991,10.5724,10.5783,10.5869,10.5773,10.5792,10.6098,10.6575,10.7465,10.7973,10.7983,10.9014,10.9489,10.9617,10.9709,10.9483,10.8906,10.8713,10.8482,10.8482,10.829,10.7905,0.0,0.0,0.0,0.0,0.0,0.0,0.0,0.0,0.0,0.0,0.0,0.0,0.0,0.0,0.0,9.6798,9.7984,9.8983,9.9104,10.0479,10.1621,10.1799,10.2886,10.3701,10.3824,10.3824,10.3824,10.3824,10.3824,10.3824,10.3824,10.3824,10.3598,10.311,10.3523,10.3598,10.311,10.3598,10.3824,10.3824,10.4016,10.4079,10.4104,10.4373,10.4605,10.4486,10.4486,10.4486,10.4486,10.4252,10.4411,10.4605,10.4605,10.4722,10.4799,10.4588,10.4722,10.4837,10.4605,10.4588,10.4799,10.4704,10.478,10.4799,10.4799,10.4989,10.5178,10.4875,10.4989,10.5292,10.5292,10.5292,10.5292,10.5292,10.5671,10.6202,10.6505,10.7187,10.8021,10.8514,10.8893,10.9217,10.9486,10.9999,11.0014,10.9337,10.8869,10.8016,10.5991,10.5991,10.6106,10.5724,10.5773,10.5821,10.5686,10.6127,10.6509,10.6908,10.8115,10.8766,10.8766,10.9802,11.0364,11.0501,11.0627,11.0397,10.9897,10.9637,10.9406,10.9406,10.8713,10.8213,0.0,0.0,0.0,0.0,0.0,0.0,0.0,0.0,0.0,0.0,0.0,0.0,0.0,9.6311,9.7025,9.8113,9.8867,9.9128,9.8553,10.0457,10.1824,10.1209,10.2623,10.3626,10.3796,10.3824,10.3824,10.3824,10.3824,10.3824,10.3824,10.3824,10.3824,10.3824,10.3824,10.3824,10.3824,10.3824,10.3824,10.3824,10.399,10.399,10.3786,10.4067,10.4327,10.4266,10.4266,10.4266,10.4304,10.4304,10.4388,10.4605,10.4605,10.4722,10.4799,10.4588,10.4722,10.478,10.4411,10.447,10.478,10.4626,10.4722,10.4799,10.4799,10.5406,10.5898,10.5103,10.5482,10.6202,10.6202,10.6202,10.6202,10.6277,10.6277,10.6505,10.7301,10.8097,10.8703,10.8703,10.931,10.9634,10.8992,10.9695,11.009,10.9299,10.9213,10.8437,10.6106,10.6412,10.6603,10.58,10.5724,10.5724,10.58,10.6488,10.6985,10.7099,10.8589,10.9392,10.9506,11.0481,11.1208,11.1307,11.1192,11.1192,11.1192,11.0402,11.0098,10.9983,10.8482,10.779,0.0,0.0,0.0,0.0,0.0,0.0,0.0,0.0,0.0,0.0,0.0,0.0,9.6207,9.6548,9.6889,9.7881,9.8731,9.9246,9.8997,10.0555,10.1812,10.1732,10.2728,10.3425,10.3626,10.3721,10.3824,10.3824,10.3824,10.3824,10.3824,10.3824,10.3824,10.3824,10.3824,10.3824,10.3824,10.3824,10.3824,10.3824,10.3786,10.3786,10.3786,10.4067,10.4228,10.4104,10.4104,10.4117,10.3915,10.3915,10.4079,10.4426,10.4426,10.4529,10.4799,10.4588,10.4722,10.478,10.4411,10.4486,10.4626,10.4411,10.4508,10.4588,10.4588,10.531,10.6088,10.5898,10.6391,10.6998,10.6998,10.6998,10.7187,10.7907,10.8097,10.8097,10.8286,10.9006,10.9499,10.9499,10.9689,10.9802,10.9634,11.0018,11.009,10.948,10.8831,10.7864,10.6794,10.6794,10.6603,10.58,10.5724,10.5991,10.6603,10.6794,10.7481,10.8819,10.9201,10.9825,11.0498,11.0874,11.1085,11.1093,11.0699,11.0402,11.0402,10.9598,10.9213,10.9213,10.879,10.829,0.0,0.0,0.0,0.0,0.0,0.0,0.0,0.0,0.0,0.0,0.0,9.5343,9.6369,9.6926,9.7483,9.8338,9.9188,9.9778,9.9675,10.1195,10.2085,10.1816,10.2664,10.3394,10.3635,10.3693,10.3824,10.3824,10.3824,10.3824,10.3824,10.3824,10.3824,10.3824,10.3824,10.3824,10.3824,10.3824,10.3824,10.3824,10.3824,10.3824,10.3786,10.4016,10.3979,10.399,10.399,10.3888,10.3824,10.3824,10.399,10.4204,10.4266,10.4486,10.4684,10.4684,10.4704,10.478,10.4411,10.4411,10.4643,10.4681,10.503,10.5286,10.5702,10.6199,10.6694,10.6694,10.6998,10.7415,10.7794,10.7907,10.8097,10.9006,10.8893,10.8703,10.912,10.9499,10.9802,10.9802,10.9802,10.9802,10.9802,11.0075,11.009,10.939,10.8908,10.8182,10.7099,10.6908,10.6603,10.58,10.5724,10.5991,10.6794,10.729,10.8093,10.9315,10.9812,11.0321,11.0793,11.0903,11.0989,11.0989,11.0326,10.9873,10.9873,10.9118,10.8772,10.8696,10.8273,10.7889,0.0,0.0,0.0,0.0,0.0,0.0,0.0,0.0,0.0,9.5417,9.5752,9.6087,9.6666,9.7409,9.8115,9.8783,9.9563,10.0084,10.0084,10.1495,10.2311,10.1783,10.2702,10.3394,10.3493,10.3693,10.3824,10.3824,10.3824,10.3824,10.3824,10.3824,10.3824,10.3824,10.3824,10.3824,10.3824,10.3824,10.3824,10.3824,10.3824,10.3824,10.3824,10.3824,10.3824,10.3824,10.3824,10.3824,10.3824,10.3824,10.3888,10.4079,10.4228,10.4411,10.4567,10.478,10.4799,10.478,10.4411,10.4464,10.481,10.5222,10.5586,10.6095,10.6912,10.7297,10.7528,10.7528,10.7604,10.7907,10.8589,10.8817,10.9006,10.9613,10.931,10.9006,10.9689,10.9802,10.9802,10.9802,10.9802,10.9802,10.9764,10.9999,11.0035,10.9513,10.9504,10.9035,10.7279,10.7099,10.6794,10.5991,10.5915,10.6297,10.729,10.8016,10.8819,10.9621,11.0309,11.0691,11.0691,11.0793,11.0881,11.0881,10.9897,10.9409,10.9409,10.8584,10.8209,10.8094,10.7404,10.7097,0.0,0.0,0.0,0.0,0.0,0.0,0.0,0.0,9.3582,0.0,9.596,9.6703,9.7557,9.7817,9.7929,9.804,9.8746,9.9266,9.9266,10.0604,10.1607,10.1458,10.2595,10.3288,10.3288,10.3589,10.3824,10.3824,10.3824,10.3824,10.3824,10.3824,10.3824,10.3824,10.3824,10.3824,10.3824,10.3824,10.3824,10.3824,10.3824,10.3824,10.3824,10.3824,10.3824,10.3824,10.3824,10.3824,10.3824,10.3824,10.3888,10.4079,10.4228,10.4411,10.4567,10.478,10.4799,10.478,10.4411,10.478,10.5384,10.531,10.59,10.6691,10.6965,10.7713,10.84,10.84,10.8893,10.9499,10.9613,10.9613,10.9689,10.9802,10.9689,10.9689,10.9802,10.9802,10.9802,10.9802,10.9802,10.9824,10.9979,10.9883,10.9903,11.0111,11.0204,10.9611,10.8079,10.8042,10.7711,10.6794,10.6679,10.7405,10.8895,10.9201,10.9621,11.05,11.0614,11.0691,11.0691,11.0691,11.0704,11.0704,10.9409,10.8661,10.8661,10.7097,10.6292,10.6292,10.6215,10.6215,7.8441,8.1866,8.5254,0.0,8.9833,9.0775,9.1221,0.0,9.3991,9.5143,9.6034,9.6889,9.7743,9.7892,9.804,9.8486,9.8858,9.9415,10.0307,10.1087,10.1718,10.2127,10.2818,10.3288,10.3288,10.3626,10.3824,10.3824,10.3824,10.3824,10.3824,10.3824,10.3824,10.3824,10.3824,10.3824,10.3824,10.3824,10.3824,10.3824,10.3824,10.3824,10.3824,10.3824,10.3824,10.3824,10.3824,10.3824,10.3824,10.3824,10.3926,10.399,10.4204,10.4426,10.4486,10.4742,10.4799,10.4837,10.4529,10.4577,10.5006,10.5925,10.6378,10.7031,10.8174,10.8887,10.931,10.931,10.9499,10.984,10.9682,10.972,10.9659,10.9521,10.9459,10.9597,10.9659,10.9704,10.9802,10.9802,10.9802,10.9802,10.9921,10.9883,10.9979,11.0094,10.9789,10.9214,10.8064,10.7597,10.719,10.6908,10.6908,10.7596,10.9315,10.9392,10.9812,11.0614,11.0691,11.0691,11.0691,11.0691,11.0691,11.0691,10.9186,10.8404,10.8404,10.6672,10.5792,10.5792,10.5792,10.5792,0.0,0.0,8.4137,8.7551,8.925,9.0354,0.0,0.0,9.4437,9.5217,9.6034,9.6889,9.7743,9.7892,9.8115,9.8709,9.8783,9.9378,10.1012,10.1198,10.1607,10.261,10.3117,10.3288,10.3288,10.3626,10.3824,10.3824,10.3824,10.3824,10.3824,10.3824,10.3824,10.3824,10.3824,10.3824,10.3824,10.3824,10.3824,10.3824,10.3824,10.3824,10.3824,10.3824,10.3824,10.3824,10.3824,10.3824,10.3824,10.3824,10.3824,10.3786,10.4104,10.4228,10.4266,10.4567,10.4684,10.4722,10.4508,10.4539,10.4794,10.6302,10.6931,10.7408,10.9081,10.972,10.9802,10.9802,10.9802,10.978,10.9621,10.9597,10.9459,10.9334,10.9308,10.9409,10.9635,10.9682,10.9802,10.9802,10.9802,10.9802,10.9802,10.9921,10.9903,10.9903,10.96,10.9007,10.8262,10.7683,10.7406,10.7508,10.752,10.8093,10.9621,10.9697,11.0003,11.0691,11.0691,11.0576,11.0385,11.0385,11.0309,11.008,10.8589,10.8016,10.8207,10.6488,10.5724,10.5724,10.5724,10.5724,0.0,7.9056,0.0,8.4778,8.7007,8.8641,0.0,9.2431,9.4437,9.5217,9.6034,9.6889,9.7743,9.7892,9.7892,9.7966,9.7966,9.8523,10.0121,10.0381,10.0901,10.2498,10.3117,10.3288,10.3288,10.3626,10.3824,10.3824,10.3824,10.3824,10.3824,10.3824,10.3824,10.3824,10.3824,10.3824,10.3824,10.3824,10.3824,10.3824,10.3824,10.3824,10.3824,10.3824,10.3824,10.3824,10.3824,10.3824,10.3824,10.3824,10.3824,10.3786,10.4016,10.4079,10.4079,10.4304,10.429,10.4327,10.418,10.4569,10.5397,10.6263,10.7295,10.8201,10.927,10.972,10.9802,10.9802,10.9802,10.978,10.9621,10.9597,10.9459,10.9334,10.9308,10.9409,10.9635,10.9682,10.9802,10.9802,10.9802,10.9802,10.9802,10.9802,10.9802,10.9802,10.9883,10.9695,10.8898,10.891,10.9108,10.907,10.9175,10.9621,11.0576,11.0614,11.0691,11.0691,11.0691,11.0309,10.9506,10.9506,10.9124,10.8284,10.7405,10.7405,10.8207,10.6488,10.5724,10.5724,10.5724,10.5724,0.0,0.0,0.0,8.3923,8.6486,8.8381,8.9459,9.2431,9.5031,9.5328,9.648,9.752,9.7855,9.7892,9.7892,9.7892,9.7892,9.8263,9.9378,9.9526,10.0121,10.1718,10.2193,10.259,10.3213,10.3493,10.3693,10.3824,10.3824,10.3824,10.3824,10.3824,10.3824,10.3824,10.3824,10.3824,10.3824,10.3824,10.3824,10.3824,10.3824,10.3824,10.3824,10.3824,10.3824,10.3824,10.3824,10.3824,10.3824,10.3824,10.3824,10.3786,10.4016,10.4117,10.4079,10.4304,10.4327,10.4327,10.4228,10.4669,10.5472,10.639,10.7295,10.8086,10.9107,10.9397,10.9497,10.9497,10.9497,10.9397,10.9308,10.9206,10.9179,10.8982,10.8973,10.9104,10.9206,10.9409,10.9497,10.9497,10.9497,10.9459,10.9583,10.972,10.9682,10.9802,10.9824,10.9638,10.9011,10.9007,10.9132,10.9289,10.9379,10.9812,11.0614,11.0194,10.9889,10.9889,10.9392,10.901,10.8589,10.8589,10.8513,10.8207,10.729,10.7099,10.7405,10.622,10.5724,10.5724,10.5724,10.5724,7.7515,0.0,0.0,8.2675,8.4879,8.6808,8.87,9.1668,9.4123,9.4642,9.6087,9.7274,9.7274,9.7496,9.7752,9.7892,9.7892,9.8189,9.9006,9.9118,9.9601,10.0901,10.1489,10.211,10.2664,10.3207,10.3635,10.3693,10.3721,10.3796,10.3824,10.3824,10.3824,10.3824,10.3824,10.3824,10.3824,10.3824,10.3824,10.3824,10.3824,10.3824,10.3824,10.3824,10.3824,10.3824,10.3824,10.3824,10.3824,10.3824,10.3824,10.3786,10.3915,10.4016,10.4016,10.4079,10.4104,10.418,10.4481,10.4907,10.5408,10.6703,10.7419,10.7994,10.8878,10.9168,10.9308,10.9308,10.9308,10.9281,10.9114,10.8982,10.8877,10.878,10.8885,10.8907,10.8907,10.9076,10.927,10.9371,10.9334,10.9409,10.9635,10.9497,10.9635,10.9682,10.9704,10.9575,10.9334,10.9315,10.9388,10.9733,10.9709,10.999,11.0614,10.9889,10.9392,10.9392,10.8589,10.8093,10.7787,10.7787,10.7596,10.7405,10.6794,10.6488,10.6488,10.5991,10.5724,10.5724,10.5724,10.5724,0.0,0.0,0.0,8.077,8.2153,8.3756,8.7878,9.0069,9.1634,9.3222,9.4921,9.614,9.614,9.6768,9.7467,9.7822,9.7892,9.8189,9.8932,9.9043,9.9378,10.0195,10.108,10.1816,10.1816,10.2664,10.3394,10.3635,10.3597,10.3701,10.3824,10.3824,10.3824,10.3824,10.3824,10.3824,10.3824,10.3824,10.3824,10.3824,10.3824,10.3824,10.3824,10.3824,10.3824,10.3824,10.3824,10.3824,10.3824,10.3824,10.3824,10.3824,10.3824,10.3824,10.3824,10.3824,10.3824,10.4011,10.48,10.51,10.5401,10.6978,10.7712,10.7919,10.8709,10.9104,10.9308,10.9308,10.9308,10.9206,10.9038,10.8915,10.8818,10.8818,10.8818,10.8818,10.8818,10.9086,10.927,10.9497,10.9435,10.9334,10.9459,10.9435,10.9409,10.9635,10.9597,10.9621,10.984,10.9883,11.0094,11.034,11.0373,11.0496,11.0729,10.9927,10.943,10.943,10.8589,10.7711,10.6908,10.6908,10.6488,10.5724,10.5724,10.5724,10.5724,10.5724,10.5724,10.5724,10.5724,10.5724,7.6823,0.0,0.0,0.0,0.0,0.0,8.4754,8.8376,9.1449,9.252,9.4958,9.6952,9.6952,9.7137,9.7322,9.7467,9.7573,9.7826,9.8189,9.8226,9.8523,9.9341,10.0229,10.1006,10.1705,10.2632,10.3187,10.3394,10.3394,10.35,10.3626,10.3721,10.3824,10.3824,10.3824,10.3824,10.3824,10.3824,10.3824,10.3824,10.3824,10.3824,10.3824,10.3824,10.3824,10.3824,10.3824,10.3824,10.3824,10.3824,10.3824,10.3824,10.3824,10.3824,10.3824,10.3824,10.4199,10.48,10.4988,10.5476,10.6001,10.649,10.7119,10.7683,10.7871,10.8426,10.8877,10.8877,10.8877,10.8915,10.8885,10.8848,10.8818,10.8818,10.8818,10.8818,10.8818,10.8885,10.8953,10.8982,10.9019,10.8982,10.9104,10.9104,10.9179,10.9409,10.9371,10.9397,10.9621,10.9667,10.9883,11.0094,11.017,11.0395,11.0412,10.9223,10.8398,10.8398,10.7126,10.6297,10.5991,10.5991,10.5915,10.5724,10.5724,10.5713,10.5613,10.5713,10.5724,10.5724,10.5724,10.5724,0.0,0.0,0.0,0.0,0.0,0.0,8.4193,8.7254,8.9951,9.1794,9.3968,9.5553,9.5553,9.5847,9.6068,9.6251,9.6618,9.7132,9.7678,9.7822,9.8077,9.8523,9.9303,10.0043,10.0597,10.1378,10.197,10.2179,10.2478,10.2883,10.3388,10.3522,10.3626,10.3626,10.373,10.3693,10.3693,10.3796,10.3824,10.3824,10.3824,10.3824,10.3824,10.3824,10.3824,10.3824,10.3824,10.3824,10.3824,10.3824,10.3824,10.3824,10.3824,10.3824,10.3824,10.3824,10.4086,10.4612,10.4988,10.5401,10.5889,10.6189,10.6602,10.709,10.709,10.7391,10.7804,10.7804,10.7991,10.8405,10.8705,10.8818,10.8818,10.8818,10.8818,10.8818,10.8818,10.8818,10.878,10.8915,10.881,10.881,10.901,10.8982,10.8982,10.9104,10.9179,10.9093,10.8906,10.9432,10.9591,10.939,10.96,10.9713,10.9807,10.83,10.7402,10.7402,10.6299,10.5587,10.5587,10.5674,10.5724,10.5724,10.5598,10.5498,10.5382,10.5587,10.5674,10.5587,10.5674,10.5598,0.0,0.0,0.0,0.0,0.0,0.0,8.4625,8.6103,8.7472,9.0519,9.1877,9.2574,9.2684,9.3272,9.3897,9.4151,9.5069,9.6101,9.7314,9.7748,9.7892,9.7892,9.8598,9.9118,9.9118,9.9824,10.0415,10.0555,10.122,10.211,10.307,10.3213,10.3213,10.3288,10.3462,10.3635,10.3597,10.3693,10.3824,10.3824,10.3824,10.3824,10.3824,10.3824,10.3824,10.3824,10.3824,10.3824,10.3824,10.3824,10.3824,10.3824,10.3824,10.3824,10.3824,10.3824,10.3899,10.4086,10.48,10.51,10.5175,10.5889,10.6189,10.6189,10.6189,10.6189,10.6302,10.6302,10.6903,10.7766,10.848,10.8705,10.8818,10.8818,10.8818,10.8818,10.8818,10.8818,10.881,10.8982,10.8915,10.881,10.8982,10.8915,10.881,10.8982,10.8935,10.8737,10.8112,10.883,10.9068,10.8492,10.8517,10.867,10.8914,10.7393,10.6533,10.6533,10.5802,10.5524,10.5524,10.5625,10.5598,10.5598,10.5485,10.5382,10.5201,10.5498,10.5625,10.5524,10.5587,10.5485,0.0,0.0,0.0,0.0,0.0,0.0,8.1517,8.3067,8.4646,8.6554,8.8133,8.9344,9.0005,9.0262,9.0372,9.0443,9.1941,9.399,9.6486,9.7446,9.7892,9.7892,9.8598,9.9118,9.9118,9.9824,10.0307,10.0415,10.0704,10.1183,10.2035,10.2211,10.2616,10.3288,10.3288,10.3425,10.3597,10.356,10.373,10.3824,10.3824,10.3824,10.3824,10.3824,10.3824,10.3824,10.3824,10.3824,10.3824,10.3824,10.3824,10.3824,10.3824,10.3824,10.3824,10.3824,10.4199,10.4875,10.4988,10.51,10.51,10.5288,10.5288,10.5288,10.5288,10.5814,10.6302,10.6302,10.6903,10.7578,10.7804,10.8292,10.8818,10.8818,10.8818,10.8818,10.8818,10.8818,10.878,10.881,10.878,10.878,10.881,10.878,10.878,10.881,10.8322,10.7796,10.7712,10.7392,10.7396,10.8112,10.7706,10.781,10.8572,10.7226,10.6294,10.6294,10.5681,10.5292,10.5292,10.5292,10.5292,10.5292,10.5186,10.5094,10.5201,10.5292,10.5292,10.5292,10.5292,10.5292,0.0,0.0,0.0,7.8353,0.0,0.0,0.0,8.3141,8.4462,8.6077,8.7031,8.7729,8.8133,8.8206,8.8206,8.8382,9.0177,9.1892,9.2744,9.5335,9.7409,9.7678,9.8156,9.8486,9.8486,9.8858,9.9266,9.9675,9.9783,10.0187,10.1006,10.1486,10.2003,10.2413,10.2893,10.3219,10.3288,10.3394,10.353,10.3597,10.3597,10.3626,10.3693,10.3626,10.3626,10.373,10.356,10.3597,10.3597,10.3597,10.3597,10.3597,10.3721,10.3824,10.3824,10.3824,10.4086,10.4499,10.4499,10.4499,10.4499,10.4499,10.4499,10.4499,10.4499,10.4687,10.51,10.5588,10.6001,10.6377,10.679,10.7578,10.8179,10.8179,10.848,10.8818,10.8818,10.8818,10.8818,10.8818,10.8818,10.8705,10.8292,10.8179,10.8104,10.7616,10.7203,10.679,10.6377,10.6601,10.6717,10.6818,10.6723,10.6825,10.7301,10.6183,10.5595,10.5595,10.5306,10.5094,10.5094,10.5186,10.5186,10.5094,10.5002,10.4985,10.4985,10.4985,10.5002,10.5094,10.5186,10.511,0.0,0.0,0.0,0.0,0.0,8.1249,0.0,0.0,0.0,8.582,8.6077,8.6077,8.6077,8.6077,8.6145,8.628,8.8262,8.9467,8.8553,9.2269,9.5446,9.6124,9.6931,9.7297,9.7,9.7112,9.7632,9.8783,9.856,9.8932,10.0195,10.0901,10.1421,10.1718,10.2494,10.2975,10.3009,10.3187,10.3256,10.3288,10.3288,10.3394,10.3493,10.3394,10.3394,10.3493,10.3394,10.3288,10.3288,10.3288,10.3288,10.3288,10.3589,10.3796,10.3796,10.3796,10.3796,10.3796,10.3655,10.3721,10.3796,10.3796,10.3758,10.3824,10.3824,10.3824,10.3908,10.4584,10.4884,10.5109,10.5785,10.676,10.7616,10.7578,10.8179,10.8818,10.8818,10.8818,10.8818,10.8818,10.8818,10.8592,10.7879,10.7691,10.7391,10.6677,10.6302,10.5814,10.5175,10.5811,10.6038,10.5586,10.5702,10.5803,10.5992,10.5292,10.4799,10.4799,10.4874,10.4968,10.4968,10.5078,10.5078,10.4968,10.4968,10.4874,10.4799,10.4799,10.4894,10.4968,10.5078,10.4985,0.0,0.0,0.0,0.0,8.0369,0.0,0.0,0.0,8.2282,8.27,0.0,8.2737,8.2737,0.0,0.0,8.2802,8.4367,8.5758,8.6139,8.8273,9.0193,9.1177,9.3917,9.5105,9.3694,9.4214,9.5551,9.7855,9.6666,9.7112,10.0121,10.0418,10.1087,10.2498,10.2684,10.2757,10.3009,10.2971,10.3149,10.3288,10.3288,10.3288,10.3288,10.3288,10.3288,10.3288,10.3288,10.3288,10.3288,10.3288,10.3288,10.3288,10.3493,10.356,10.356,10.356,10.356,10.3597,10.3425,10.3462,10.356,10.356,10.3693,10.3824,10.3824,10.3693,10.356,10.3672,10.4204,10.4622,10.4908,10.6137,10.7374,10.7616,10.8179,10.8818,10.8818,10.8818,10.8818,10.8818,10.8818,10.878,10.8705,10.8104,10.7578,10.7503,10.6189,10.5175,10.51,10.4527,10.4404,10.5209,10.4794,10.4902,10.5777,10.5234,10.4799,10.4799,10.4761,10.4818,10.4818,10.4818,10.4818,10.4818,10.4818,10.4761,10.4799,10.4799,10.4799,10.4818,10.4818,10.4818,0.0,0.0,0.0,0.0,0.0,0.0,8.1965,0.0,8.1952,0.0,0.0,0.0,0.0,0.0,0.0,0.0,8.361,8.4522,8.3897,8.6324,8.8627,9.0025,9.1594,9.2653,9.2951,9.414,9.5328,9.6369,9.5811,9.622,9.804,9.8635,9.9638,10.131,10.1793,10.2275,10.2829,10.2829,10.2903,10.2975,10.2975,10.3009,10.3149,10.3009,10.3009,10.3079,10.3009,10.3198,10.3682,10.3303,10.3415,10.3716,10.3612,10.3597,10.3597,10.373,10.3693,10.3693,10.3493,10.3493,10.371,10.4084,10.4105,10.3936,10.4293,10.4001,10.3635,10.35,10.3618,10.3917,10.4054,10.4983,10.6025,10.6685,10.7398,10.8005,10.8104,10.8412,10.8493,10.8217,10.848,10.8705,10.8179,10.7391,10.649,10.5513,10.48,10.4312,10.4312,10.4076,10.4129,10.4606,10.4516,10.4621,10.5097,10.4931,10.4799,10.4799,10.4799,10.4799,10.4799,10.4799,10.4799,10.4799,10.4799,10.4799,10.4799,10.4799,10.4799,10.4799,10.4799,10.4799,8.1092,0.0,0.0,0.0,0.0,0.0,0.0,0.0,0.0,0.0,0.0,0.0,0.0,0.0,8.2186,8.2186,0.0,8.328,8.2196,8.423,8.6389,8.7895,8.871,8.9904,9.1799,9.2839,9.3768,9.466,9.4511,9.5031,9.6517,9.7446,9.8523,9.9935,10.0789,10.1607,10.2387,10.2387,10.2498,10.2721,10.2721,10.2794,10.3009,10.2794,10.2757,10.3009,10.2794,10.3093,10.3686,10.3089,10.3201,10.3722,10.3587,10.353,10.3493,10.373,10.3721,10.3693,10.3597,10.353,10.3605,10.4204,10.4084,10.3776,10.4166,10.3874,10.3394,10.3256,10.3219,10.3256,10.35,10.4234,10.5013,10.568,10.6362,10.6968,10.7105,10.7487,10.7824,10.7623,10.7999,10.8111,10.7391,10.6715,10.5814,10.4387,10.4011,10.3824,10.3824,10.3915,10.4016,10.4016,10.4327,10.4508,10.4508,10.4684,10.4799,10.4799,10.4799,10.4799,10.4799,10.4799,10.4799,10.4799,10.4799,10.4799,10.4799,10.4799,10.4799,10.4799,10.4799,10.4799,0.0,0.0,0.0,8.1708,0.0,0.0,0.0,0.0,8.2632,0.0,0.0,0.0,0.0,0.0,8.2186,8.2186,8.1599,0.0,0.0,8.1439,8.2018,8.3015,8.4657,8.6709,8.9161,8.8753,8.9644,9.2839,9.2282,9.3211,9.6443,9.7446,9.8263,9.9118,9.9935,10.0715,10.1495,10.1495,10.1904,10.2721,10.2721,10.2794,10.3009,10.2794,10.2757,10.3009,10.2794,10.2757,10.3046,10.2794,10.2757,10.3083,10.3219,10.3288,10.3288,10.3493,10.3597,10.3635,10.3394,10.3288,10.3288,10.3288,10.3288,10.3288,10.3288,10.3187,10.3009,10.3009,10.3009,10.3117,10.3256,10.4098,10.4796,10.4796,10.547,10.5963,10.5899,10.5969,10.6294,10.708,10.7268,10.7112,10.6527,10.6302,10.6001,10.5175,10.4312,10.3824,10.3824,10.3786,10.3786,10.3786,10.4104,10.429,10.429,10.4588,10.4799,10.4799,10.4799,10.4799,10.4799,10.4799,10.4799,10.4799,10.4799,10.4799,10.4799,10.4799,10.4799,10.4799,10.4799,10.4799,8.5764,0.0,8.7249,8.4859,0.0,0.0,0.0,0.0,0.0,0.0,0.0,0.0,0.0,0.0,8.281,8.2296,8.1525,8.1195,0.0,8.1497,8.1711,8.2793,8.441,8.5621,8.6041,8.7787,8.9347,9.0462,9.1242,9.2431,9.414,9.5514,9.6889,9.8263,9.9081,9.9898,10.0715,10.1198,10.1607,10.1904,10.2424,10.2794,10.3009,10.29,10.29,10.3009,10.29,10.3198,10.3716,10.3124,10.331,10.3791,10.3618,10.3357,10.3288,10.3589,10.3721,10.3693,10.3357,10.3288,10.3438,10.3784,10.3704,10.3438,10.3784,10.3527,10.3046,10.2829,10.2938,10.3228,10.3891,10.4329,10.4809,10.5432,10.56,10.5496,10.5006,10.5413,10.6043,10.6343,10.6824,10.7193,10.6999,10.6475,10.5718,10.4424,10.4011,10.3824,10.3824,10.3824,10.3824,10.3824,10.4016,10.418,10.418,10.4486,10.4684,10.4799,10.4799,10.4799,10.4799,10.4799,10.4799,10.4799,10.4799,10.4799,10.4799,10.4799,10.4799,10.4799,10.4799,10.4799,8.7648,8.8444,8.8843,8.6489,8.6452,0.0,8.4573,0.0,0.0,0.0,0.0,0.0,0.0,0.0,8.2994,8.303,8.1893,8.1195,0.0,8.1434,8.1365,8.1857,8.3237,8.4262,8.4778,8.6226,8.7712,8.9198,8.9979,9.1056,9.2533,9.4429,9.5886,9.7069,9.8115,9.9043,9.9861,10.0715,10.1198,10.1495,10.2313,10.2829,10.3079,10.2971,10.2971,10.3079,10.2971,10.3307,10.3828,10.3496,10.3682,10.4164,10.4329,10.4067,10.3731,10.3805,10.3824,10.3796,10.3493,10.3432,10.3438,10.3713,10.3527,10.3228,10.357,10.3347,10.2903,10.2684,10.2829,10.3228,10.3891,10.4297,10.4596,10.4996,10.5011,10.4797,10.4011,10.438,10.4936,10.5198,10.6123,10.6824,10.6818,10.6594,10.5988,10.4537,10.4312,10.4312,10.4312,10.4312,10.4312,10.4312,10.4178,10.4142,10.4304,10.4388,10.4605,10.4799,10.478,10.478,10.4799,10.4799,10.4799,10.4799,10.4799,10.4799,10.4799,10.4799,10.4799,10.4799,10.4799,10.4799]},{"header":{"parameterUnit":"m.s-1","parameterCategory":1,"la1":30.6,"la2":29.2853,"lo1":-89.7004,"lo2":-87.6739,"dy":0.0162,"dx":0.0183,"nx":112,"ny":82,"refTime":"2023-03-13T00:00:00:Z","depth":0,"parameterNumber":3,"parameterNumberName":"V-component_of_WINDS"},"data":[0.0,0.0,0.0,0.0,0.0,0.0,0.0,0.0,0.0,0.0,0.0,0.0,0.0,0.0,0.0,0.0,0.0,0.0,0.0,0.0,0.0,0.0,0.0,0.0,0.0,0.0,0.0,0.0,0.0,0.0,0.0,0.0,0.0,0.0,0.0,0.0,0.0,0.0,0.0,0.0,0.0,0.0,0.0,0.0,0.0,0.0,0.0,0.0,0.0,0.0,0.0,0.0,0.0,0.0,0.0,0.0,0.0,0.0,0.0,0.0,0.0,0.0,0.0,0.0,0.0,0.0,0.0,0.0,0.0,0.0,0.0,0.0,0.0,0.0,0.0,0.0,0.0,0.0,0.0,0.0,0.0,0.0,0.0,0.0,0.0,0.0,0.0,0.0,0.0,0.0,0.0,0.29,0.2874,0.2953,0.2931,0.29,0.2806,0.263,0.0,0.0,0.0,0.0,0.0,0.0,0.0,0.0,0.0,0.0,0.0,0.0,0.0,0.0,0.0,0.0,0.0,0.0,0.0,0.0,0.0,0.0,0.0,0.0,0.0,0.0,0.0,0.0,0.0,0.0,0.0,0.0,0.0,0.0,0.0,0.0,0.0,0.0,0.0,0.0,0.0,0.0,0.0,0.0,0.0,0.0,0.0,0.0,0.0,0.0,0.0,0.0,0.0,0.0,0.0,0.0,0.0,0.0,0.0,0.0,0.0,0.0,0.0,0.0,0.0,0.0,0.0,0.0,0.0,0.0,0.0,0.0,0.0,0.0,0.0,0.0,0.0,0.0,0.0,0.0,0.0,0.0,0.0,0.0,0.0,0.0,0.0,0.0,0.0,0.0,0.0,0.0,0.0,0.0,0.0,0.0,0.0,0.0,0.0,0.0,0.0,0.0,0.0,0.0,0.2887,0.2936,0.296,0.2971,0.2991,0.2942,0.2844,0.2688,0.0,0.0,0.0,0.0,0.0,0.0,0.0,0.0,0.0,0.0,0.0,0.0,0.0,0.0,0.0,0.0,0.0,0.0,0.0,0.0,0.0,0.0,0.0,0.0,0.0,0.0,0.0,0.0,0.0,0.0,0.0,0.0,0.0,0.0,0.0,0.0,0.0,0.0,0.0,0.0,0.0,0.0,0.0,0.0,0.0,0.0,0.0,0.0,0.0,0.0,0.0,0.0,0.0,0.0,0.0,0.0,0.0,0.0,0.0,0.0,0.0,0.0,0.0,0.0,0.0,0.0,0.0,0.0,0.0,0.0,0.0,0.0,0.0,0.0,0.0,0.0,0.0,0.0,0.0,0.0,0.0,0.0,0.0,0.0,0.0,0.0,0.0,0.0,0.0,0.0,0.0,0.0,0.0,0.0,0.0,0.0,0.0,0.0,0.0,0.0,0.0,0.0,0.0,0.3004,0.317,0.301,0.3208,0.3394,0.3031,0.2991,0.2887,0.2703,0.2626,0.0,0.0,0.0,0.0,0.0,0.0,0.0,0.0,0.0,0.0,0.0,0.0,0.0,0.0,0.0,0.0,0.0,0.0,0.0,0.0,0.0,0.0,0.0,0.0,0.0,0.0,0.0,0.0,0.0,0.0,0.0,0.0,0.0,0.0,0.0,0.0,0.0,0.0,0.0,0.0,0.0,0.0,0.0,0.0,0.0,0.0,0.0,0.0,0.0,0.0,0.0,0.0,0.0,0.0,0.0,0.0,0.0,0.0,0.0,0.0,0.0,0.0,0.0,0.0,0.0,0.0,0.0,0.0,0.0,0.0,0.0,0.0,0.0,0.0,0.0,0.0,0.0,0.0,0.0,0.0,0.0,0.0,0.0,0.0,0.0,0.0,0.0,0.0,0.0,0.0,0.0,0.0,0.0,0.0,0.0,0.0,0.0,0.0,0.0,0.0,0.0,0.0,0.3315,0.3658,0.3431,0.3837,0.3839,0.3446,0.3224,0.3114,0.2897,0.2672,0.0,0.0,0.0,0.0,0.0,0.0,0.0,0.0,0.0,0.0,0.0,0.0,0.0,0.0,0.0,0.0,0.0,0.0,0.0,0.0,0.0,0.0,0.0,0.0,0.0,0.0,0.0,0.0,0.0,0.0,0.0,0.0,0.0,0.0,0.0,0.0,0.0,0.0,0.0,0.0,0.0,0.0,0.0,0.0,0.0,0.0,0.0,0.0,0.0,0.0,0.0,0.0,0.0,0.0,0.0,0.0,0.0,0.0,0.0,0.0,0.0,0.0,0.0,0.0,0.0,0.0,0.0,0.0,0.0,0.0,0.0,0.0,0.0,0.0,0.0,0.0,0.0,0.0,0.0,0.0,0.0,0.0,0.0,0.0,0.0,0.0,0.0,0.0,0.0,0.0,0.0,0.0,0.0,0.0,0.0,0.0,0.0,0.0,0.0,0.0,0.0,0.0,0.3638,0.4006,0.4633,0.4678,0.4686,0.4643,0.4215,0.3713,0.3483,0.2862,0.0,0.0,0.0,0.0,0.0,0.0,0.0,0.0,0.0,0.0,0.0,0.0,0.0,0.0,0.0,0.0,0.0,0.0,0.0,0.0,0.0,0.0,0.0,0.0,0.0,0.0,0.0,0.0,0.0,0.0,0.0,0.0,0.0,0.0,0.0,0.0,0.0,0.0,0.0,0.0,0.0,0.0,0.0,0.0,0.0,0.0,0.0,0.0,0.0,0.0,0.0,0.0,0.0,0.0,0.0,0.0,0.0,0.0,0.0,0.0,0.0,0.0,0.0,0.0,0.0,0.0,0.0,0.0,0.0,0.0,0.0,0.0,0.0,0.0,0.0,0.0,0.0,0.0,0.0,0.0,0.0,0.0,0.0,0.0,0.0,0.0,0.0,0.0,0.0,0.0,0.0,0.0,0.0,0.0,0.0,0.0,0.0,0.0,0.0,0.0,0.0,0.0,0.4375,0.4776,0.0,0.5109,0.5107,0.4727,0.4467,0.4127,0.3525,0.0,0.0,0.0,0.0,0.0,0.0,0.0,0.0,0.0,0.0,0.0,0.0,0.0,0.0,0.0,0.0,0.0,0.0,0.0,0.0,0.0,0.0,0.0,0.0,0.0,0.0,0.0,0.0,0.0,0.0,0.0,0.0,0.0,0.0,0.0,0.0,0.0,0.0,0.0,0.0,0.0,0.0,0.0,0.0,0.0,0.0,0.0,0.0,0.0,0.0,0.0,0.0,0.0,0.0,0.0,0.0,0.0,0.0,0.0,0.0,0.0,0.0,0.0,0.0,0.0,0.0,0.0,0.0,0.0,0.0,0.0,0.0,0.0,0.0,0.0,0.0,0.0,0.0,0.0,0.0,0.0,0.0,0.0,0.0,0.0,0.0,0.0,0.0,0.0,0.0,0.0,0.0,0.0,0.0,0.0,0.0,0.0,0.0,0.0,0.0,0.0,0.0,0.4179,0.4797,0.542,0.0,0.5595,0.5794,0.54,0.5124,0.4747,0.3904,0.0,0.0,0.0,0.0,0.0,0.0,0.0,0.0,0.0,0.0,0.0,0.0,0.0,0.0,0.0,0.0,0.0,0.0,0.0,0.0,0.0,0.0,0.0,0.0,0.0,0.0,0.0,0.0,0.0,0.0,0.0,0.0,0.0,0.0,0.0,0.0,0.0,0.0,0.0,0.0,0.0,0.0,0.0,0.0,0.0,0.0,0.0,0.0,0.0,0.0,0.0,0.0,0.0,0.0,0.0,0.0,0.0,0.0,0.0,0.0,0.0,0.0,0.0,0.0,0.0,0.0,0.0,0.0,0.0,0.0,0.0,0.0,0.0,0.0,0.0,0.0,0.0,0.0,0.0,0.0,0.0,0.0,0.0,0.0,0.0,0.0,0.0,0.0,0.0,0.0,0.0,0.0,0.0,0.0,0.0,0.0,0.0,0.0,0.0,0.0,0.0,0.0,0.476,0.5316,0.5595,0.6455,0.6567,0.6589,0.6474,0.6004,0.5202,0.0,0.0,0.0,0.0,0.0,0.0,0.0,0.0,0.0,0.0,0.0,0.0,0.0,0.0,0.0,0.0,0.0,0.0,0.0,0.0,0.0,0.0,0.0,0.0,0.0,0.0,0.0,0.0,0.0,0.0,0.0,0.0,0.0,0.0,0.0,0.0,0.0,0.0,0.0,0.0,0.0,0.0,0.0,0.0,0.0,0.0,0.0,0.0,0.0,0.0,0.0,0.0,0.0,0.0,0.0,0.0,0.0,0.0,0.0,0.0,0.0,0.0,0.0,0.0,0.0,0.0,0.0,0.0,0.0,0.0,0.0,0.0,0.0,0.0,0.0,0.0,0.0,0.0,0.0,0.0,0.0,0.0,0.0,0.0,0.0,0.0,0.0,0.0,0.0,0.0,0.0,0.0,0.0,0.0,0.0,0.0,0.0,0.0,0.0,0.0,0.0,0.0,0.0,0.546,0.5995,0.627,0.6575,0.6616,0.6621,0.6586,0.6288,0.5873,0.5134,0.0,0.0,0.0,0.0,0.0,0.0,0.0,0.0,0.0,0.0,0.0,0.0,0.0,0.0,0.0,0.0,0.0,0.0,0.0,0.0,0.0,0.0,0.0,0.0,0.0,0.0,0.0,0.0,0.0,0.0,0.0,0.0,0.0,0.0,0.0,0.0,0.0,0.0,0.0,0.0,0.0,0.0,0.0,0.0,0.0,0.0,0.0,0.0,0.0,0.0,0.0,0.0,0.0,0.0,0.0,0.0,0.0,0.0,0.0,0.0,0.0,0.0,0.0,0.0,0.0,0.0,0.0,0.0,0.0,0.0,0.0,0.0,0.0,0.0,0.0,0.0,0.0,0.0,0.0,0.0,0.0,0.0,0.0,0.0,0.0,0.0,0.0,0.0,0.0,0.0,0.0,0.0,0.0,0.0,0.0,0.0,0.0,0.0,0.0,0.0,0.0,0.0,0.6083,0.6451,0.6548,0.669,0.6706,0.6706,0.6709,0.6578,0.6153,0.5451,0.0,0.0,0.0,0.0,0.0,0.0,0.0,0.0,0.0,0.0,0.0,0.0,0.0,0.0,0.0,0.0,0.0,0.0,0.0,0.0,0.0,0.0,0.0,0.0,0.0,0.0,0.0,0.0,0.0,0.0,0.0,0.0,0.0,0.0,0.0,0.0,0.0,0.0,0.0,0.0,0.0,0.0,0.0,0.0,0.0,0.0,0.0,0.0,0.0,0.0,0.0,0.0,0.0,0.0,0.0,0.0,0.0,0.0,0.0,0.0,0.0,0.0,0.0,0.0,0.0,0.0,0.0,0.0,0.0,0.0,0.0,0.0,0.0,0.0,0.0,0.0,0.0,0.0,0.0,0.0,0.0,0.0,0.0,0.0,0.0,0.0,0.0,0.0,0.0,0.0,0.0,0.0,0.0,0.0,0.0,0.0,0.0,0.0,0.0,0.0,0.0,0.0,0.6475,0.6901,0.7049,0.7013,0.6823,0.6826,0.6826,0.6668,0.6241,0.5569,0.0,0.0,0.0,0.0,0.0,0.0,0.0,0.0,0.0,0.0,0.0,0.0,0.0,0.0,0.0,0.0,0.0,0.0,0.0,0.0,0.0,0.0,0.0,0.0,0.0,0.0,0.0,0.0,0.0,0.0,0.0,0.0,0.0,0.0,0.0,0.0,0.0,0.0,0.0,0.0,0.0,0.0,0.0,0.0,0.0,0.0,0.0,0.0,0.0,0.0,0.0,0.0,0.0,0.0,0.0,0.0,0.0,0.0,0.0,0.0,0.737,0.0,0.0,0.0,0.0,0.0,0.0,0.0,0.0,0.0,0.0,0.0,0.0,0.0,0.0,0.0,0.0,0.0,0.0,0.0,0.0,0.0,0.0,0.0,0.0,0.0,0.0,0.0,0.0,0.0,0.0,0.0,0.0,0.0,0.0,0.0,0.0,0.0,0.0,0.0,0.0,0.0,0.649,0.8329,0.9557,0.9457,0.801,0.6935,0.6888,0.6763,0.6583,0.6132,0.5707,0.0,0.0,0.0,0.0,0.0,0.0,0.0,0.0,0.0,0.0,0.0,0.0,0.0,0.0,0.0,0.0,0.0,0.0,0.0,0.0,0.0,0.0,0.0,0.0,0.0,0.0,0.0,0.0,0.0,0.0,0.0,0.0,0.0,0.0,0.0,0.0,0.0,0.0,0.0,0.0,0.0,0.0,0.0,0.0,0.0,0.0,0.0,0.0,0.0,0.0,0.0,0.0,0.0,0.0,0.0,0.0,0.0,0.0,0.0,0.0,0.7681,0.0,0.0,0.0,0.0,0.0,0.0,0.0,0.0,0.0,0.0,0.0,0.0,0.0,0.0,0.0,0.0,0.0,0.0,0.0,0.0,0.0,0.0,0.0,0.0,0.0,0.0,0.0,0.0,0.0,0.0,0.0,0.0,0.0,0.0,0.0,0.0,0.0,0.0,0.0,0.0,0.7952,0.9455,1.0298,1.0473,0.9618,0.8307,0.7207,0.6856,0.6692,0.651,0.6051,0.0,0.0,0.0,0.0,0.0,0.0,0.0,0.0,0.0,0.0,0.0,0.0,0.0,0.0,0.0,0.0,0.0,0.0,0.0,0.0,0.0,0.0,0.0,0.0,0.0,0.0,0.0,0.0,0.0,0.0,0.0,0.0,0.0,0.0,0.0,0.0,0.0,0.0,0.0,0.0,0.0,0.0,0.0,0.0,0.0,0.0,0.0,0.0,0.0,0.0,0.0,0.0,0.0,0.9278,0.9303,0.939,0.9409,0.9458,0.9672,0.8852,0.8805,0.9244,0.8342,0.0,0.0,0.0,0.0,0.0,0.0,0.0,0.0,0.0,0.0,0.0,0.0,0.0,0.0,0.0,0.0,0.0,0.0,0.0,0.0,0.0,0.0,0.0,0.0,0.8317,0.8173,0.7212,0.0,0.0,0.0,0.0,0.0,0.0,0.0,0.0,0.0,0.0,0.0,0.9836,1.0157,1.0363,1.0816,1.0795,0.9909,0.73,0.6929,0.6785,0.6673,0.6395,0.6155,0.0,0.0,0.0,0.0,0.0,0.0,0.0,0.0,0.0,0.0,0.0,0.0,0.0,0.0,0.0,0.0,0.0,0.0,0.0,0.0,0.0,0.0,0.0,0.0,0.0,0.0,0.0,0.0,0.0,0.0,0.0,0.0,0.6689,0.6574,0.0,0.0,0.0,0.0,0.0,0.0,0.0,0.0,0.0,0.0,0.0,0.0,0.0,0.7848,0.8436,0.8534,0.9049,0.9666,0.9669,0.9928,1.0468,1.0039,1.0389,1.1004,1.0703,0.0,0.9385,0.915,0.0,0.0,0.0,0.0,0.0,0.0,0.0,0.0,0.0,0.0,0.0,0.0,0.0,0.0,0.0,0.0,0.0,0.0,0.0,0.0,0.0,0.0,0.8636,0.8738,0.8783,0.8787,0.0,0.8249,0.7969,0.7945,0.7953,0.0,0.0,0.0,0.0,0.0,0.0,0.0,1.0125,1.0593,1.0716,1.0828,1.0903,0.9802,0.7306,0.7182,0.7078,0.6799,0.6561,0.6343,0.6161,0.5981,0.0,0.0,0.0,0.0,0.0,0.0,0.0,0.0,0.0,0.0,0.0,0.0,0.0,0.0,0.0,0.0,0.0,0.0,0.0,0.0,0.0,0.0,0.0,0.0,0.0,0.0,0.0,0.0,0.0,0.657,0.6847,0.6881,0.6933,0.6831,0.0,0.0,0.0,0.0,0.0,0.0,0.0,0.0,0.0,0.8148,0.8565,0.9026,0.9714,0.986,1.0219,1.0978,1.1082,1.1164,1.1415,1.1284,1.1462,1.1781,1.1651,1.1304,1.0802,1.0078,1.0044,1.0102,0.0,0.0,0.0,0.0,0.8959,0.8936,0.9188,0.9488,0.9719,0.9719,0.0,0.0,0.0,0.0,0.0,0.0,0.0,0.8569,0.8892,0.9037,0.933,0.9724,1.0,0.9857,0.9668,0.9356,0.9169,0.0,0.8325,0.8285,0.8161,0.0,0.0,0.0,0.0,1.0019,1.0342,1.0574,1.0891,1.0763,1.0816,1.0371,0.9212,0.7956,0.7182,0.6875,0.6706,0.6529,0.6349,0.6136,0.5742,0.0,0.0,0.0,0.0,0.0,0.0,0.0,0.0,0.0,0.0,0.0,0.0,0.0,0.0,0.0,0.0,0.0,0.0,0.0,0.0,0.0,0.0,0.0,0.0,0.0,0.0,0.0,0.0,0.6807,0.6998,0.708,0.7092,0.7027,0.0,0.0,0.0,0.0,0.0,0.0,0.8182,0.8521,0.8811,0.909,0.9459,1.0155,1.087,1.0845,1.1331,1.1987,1.1987,1.2036,1.2123,1.2156,1.2156,1.2129,1.2156,1.2118,1.1987,1.1041,1.082,1.1156,1.009,0.9932,1.0076,0.9803,0.9746,0.9899,0.9966,1.049,1.0789,1.0784,1.1104,1.1196,1.0324,0.0,0.0,0.0,0.0,0.9423,0.9743,0.9829,1.0078,1.0716,1.084,1.0902,1.0542,1.0388,1.0109,0.0,0.9111,0.909,0.8982,0.0,0.0,0.0,0.0,1.0675,1.0778,1.095,1.1012,1.0877,1.089,1.0898,1.091,0.8494,0.7041,0.6937,0.6818,0.667,0.6493,0.6294,0.5921,0.5577,0.0,0.0,0.0,0.0,0.0,0.0,0.0,0.0,0.0,0.0,0.0,0.0,0.0,0.0,0.0,0.0,0.0,0.0,0.0,0.0,0.0,0.0,0.0,0.0,0.0,0.0,0.0,0.0,0.0,0.739,0.7595,0.0,0.0,0.0,0.0,0.8251,0.8042,0.8186,0.9378,0.9325,0.9573,1.0145,1.0245,1.0717,1.1217,1.111,1.1304,1.1987,1.1987,1.1993,1.1998,1.2118,1.2107,1.2004,1.2123,1.2167,1.214,1.1879,1.1639,1.1422,1.1281,1.1161,1.1096,1.1319,1.0983,1.0595,1.0926,1.0983,1.0906,1.0906,1.1115,1.1281,1.0745,1.0488,0.0,0.0,1.0307,1.0402,1.0821,1.0925,1.0954,1.1073,1.1106,1.114,1.124,1.1187,1.0881,0.0,0.9836,1.0232,1.0047,0.0,1.1121,1.123,1.1435,1.1517,1.1487,1.1731,1.1678,1.1325,1.1333,1.1116,1.0898,0.8494,0.7269,0.721,0.6878,0.6733,0.6761,0.648,0.6305,0.6014,0.6496,0.0,0.0,0.0,0.0,0.0,0.0,0.0,0.0,0.0,0.0,0.0,0.0,0.0,0.0,0.0,0.0,0.0,0.0,0.0,0.0,0.0,0.0,0.0,0.0,0.0,0.0,0.0,0.0,0.8346,0.8719,0.0,0.8668,0.8802,0.8925,0.916,0.9219,0.9412,0.9902,1.0194,1.0505,1.0831,1.1059,1.1536,1.1919,1.1876,1.1989,1.2449,1.2449,1.2687,1.316,1.3279,1.3313,1.3274,1.3404,1.3172,1.2629,1.2542,1.2275,1.1906,1.1781,1.1759,1.1803,1.1884,1.1889,1.1694,1.1898,1.1892,1.1807,1.1887,1.1715,1.1517,1.1517,1.1299,1.1314,1.0974,1.123,1.1492,1.1798,1.1874,1.1884,1.2326,1.2336,1.2331,1.1894,1.1914,1.1723,1.0881,1.0849,1.1026,1.1021,1.1392,1.1539,1.1578,1.182,1.2096,1.2167,1.2611,1.2782,1.2891,1.1975,1.1257,1.0744,0.9955,0.8923,0.7219,0.6951,0.7061,0.7922,0.6979,0.6631,0.683,0.6528,0.6328,0.0,0.0,0.0,0.0,0.0,0.0,0.0,0.0,0.0,0.0,0.0,0.0,0.0,0.0,0.0,0.0,0.0,0.0,0.0,0.0,0.0,0.0,0.0,0.0,0.0,0.0,0.8664,0.8983,0.9429,0.9569,0.9424,0.97,0.9903,1.0111,1.0209,1.0388,1.079,1.1079,1.1356,1.1615,1.2031,1.2339,1.2735,1.269,1.2797,1.2841,1.3038,1.3279,1.3563,1.3843,1.3878,1.3884,1.377,1.3513,1.2963,1.277,1.2602,1.2335,1.2172,1.2161,1.2227,1.2188,1.2172,1.2194,1.2357,1.2417,1.2422,1.246,1.2358,1.2247,1.2205,1.2221,1.2082,1.1997,1.2033,1.2468,1.2626,1.269,1.2721,1.3129,1.3162,1.3178,1.2732,1.2611,1.2694,1.2275,1.1949,1.1885,1.1994,1.2161,1.2505,1.254,1.2796,1.3032,1.3187,1.3664,1.3863,1.393,1.3006,1.2054,1.1057,1.0898,1.0058,0.8571,0.7396,0.7509,0.9049,0.7851,0.7098,0.6964,0.6812,0.6795,0.7071,0.0,0.0,0.0,0.0,0.0,0.0,0.0,0.0,0.0,0.0,0.0,0.0,0.0,0.0,0.0,0.0,0.0,0.0,0.0,0.0,0.0,0.0,0.0,0.8983,0.9159,0.9345,0.9298,0.9739,0.9976,0.9763,1.0034,1.0446,1.0911,1.0761,1.1021,1.1835,1.1789,1.1973,1.2357,1.3052,1.3366,1.3499,1.3969,1.3903,1.3326,1.3903,1.3909,1.3326,1.3909,1.411,1.411,1.3526,1.3326,1.3326,1.2748,1.2618,1.2694,1.2455,1.2368,1.2357,1.2237,1.2194,1.2232,1.2455,1.2694,1.2879,1.2754,1.2797,1.2879,1.2759,1.2803,1.2922,1.3047,1.308,1.308,1.3086,1.3172,1.3254,1.3254,1.3346,1.3466,1.3586,1.3705,1.3787,1.3787,1.3174,1.2634,1.2747,1.329,1.3836,1.3944,1.4167,0.0,1.4336,1.4646,1.4852,1.4638,1.4869,1.3945,1.1597,1.1053,1.0849,1.0849,0.8432,0.7855,1.0114,0.9312,0.7914,0.6368,0.7156,0.7739,0.8143,0.0,0.0,0.0,0.0,0.0,0.0,0.0,0.0,0.0,0.0,0.0,0.0,0.0,0.0,0.0,0.0,0.0,0.0,0.0,0.0,0.0,0.0,1.0123,0.9897,1.0208,1.0411,1.0693,1.0978,1.1152,1.1088,1.132,1.1457,1.1593,1.1694,1.2199,1.2642,1.2713,1.3057,1.3644,1.3963,1.4096,1.4223,1.4488,1.4568,1.4464,1.4568,1.4769,1.507,1.5271,1.5329,1.5418,1.5214,1.4751,1.3846,1.3552,1.3535,1.3541,1.2897,1.2661,1.2738,1.2705,1.2748,1.2797,1.2602,1.2803,1.3107,1.3307,1.3581,1.3752,1.3717,1.3729,1.378,1.3498,1.3325,1.3346,1.3433,1.3962,1.4264,1.4264,1.4715,1.4969,1.4573,1.44,1.4423,1.3787,1.3798,1.3605,1.3637,1.3961,1.4053,1.408,1.4292,1.4488,1.4559,1.4744,1.4831,1.4972,1.4978,1.4727,1.3953,1.2167,1.0722,1.0047,0.9484,0.957,1.0084,0.9964,0.8925,0.7032,0.7813,0.8035,0.0,0.0,0.0,0.0,0.0,0.0,0.0,0.0,0.0,0.0,0.0,0.0,0.0,0.0,0.0,0.0,0.0,0.0,0.0,0.0,0.0,0.0,1.1208,1.1572,1.1451,1.1248,1.1213,1.1487,1.1804,1.1908,1.1781,1.2326,1.2619,1.2421,1.2853,1.3164,1.3471,1.3709,1.3852,1.4244,1.4638,1.4975,1.5051,1.5335,1.5418,1.5302,1.5418,1.5628,1.5712,1.5917,1.6161,1.624,1.5828,1.5371,1.4675,1.4392,1.4357,1.413,0.0,0.0,0.0,0.0,1.3195,1.3102,1.3046,1.3239,1.3346,1.366,1.3938,1.4134,1.4288,1.4517,1.4393,1.4365,1.4167,1.415,1.4492,1.4792,1.5064,1.5064,1.5319,1.5576,1.4926,1.4758,1.4582,1.3934,1.4031,0.0,1.4113,1.4124,1.414,1.414,1.439,1.4575,1.4602,1.4798,1.4912,1.5061,1.5072,1.4359,1.3125,1.2033,0.0,0.0,0.0,1.0465,1.0253,1.0196,0.0,0.0,0.0,0.8471,0.8589,0.8584,0.0,0.0,0.7041,0.664,0.0,0.0,0.0,0.0,0.0,0.0,0.0,0.0,0.0,0.0,0.0,0.0,0.0,0.0,0.0,0.0,1.2625,1.2961,1.3126,1.2327,1.1787,1.198,1.2386,1.2627,1.2184,1.3075,1.359,1.3327,1.3849,1.4128,1.4323,0.0,0.0,0.0,0.0,1.5738,1.5738,1.6359,1.6379,1.5783,1.6379,1.6386,1.5808,1.64,1.6605,1.6619,1.5975,1.5757,1.5757,1.5109,1.4898,1.4886,1.3621,1.3396,1.4083,1.3971,1.3689,1.3465,1.3944,0.0,0.0,1.4036,1.4294,1.4487,1.4977,1.5032,1.5191,1.5423,1.5411,1.5362,1.5485,1.5527,1.5747,1.5754,1.5859,1.5741,1.5085,1.5184,1.5035,1.4376,1.4249,1.432,1.4336,1.4238,1.4167,1.4178,1.4461,1.4646,1.4559,1.4841,1.5053,1.5021,1.5021,0.0,1.1012,1.1024,1.112,1.0918,1.0891,1.0624,1.0361,1.0126,1.004,0.9865,0.9231,0.9185,0.971,0.9702,0.942,0.8871,0.7824,0.7174,0.0,0.0,0.0,0.0,0.0,0.0,0.0,0.0,0.0,0.0,0.0,0.0,0.0,0.0,0.0,1.2246,1.271,1.3169,1.3517,1.3361,1.3282,1.3114,1.3282,1.3427,1.3451,1.3865,1.4012,1.3849,1.4262,1.4601,1.4998,1.5271,1.5628,1.6029,1.6406,1.65,1.65,1.6829,1.6951,1.6855,1.6944,0.0,1.7029,1.7121,1.7127,1.7236,1.6788,1.6472,1.6034,1.5602,1.5371,1.5038,1.4669,1.462,1.4638,1.4614,1.4771,1.4964,1.4723,1.4557,1.4689,1.5345,1.54,1.5387,1.5672,1.594,0.0,1.5692,1.5552,1.5625,1.565,1.6168,1.6468,1.6468,1.7007,1.7338,1.6678,1.6255,1.561,1.5168,1.452,1.4347,1.445,1.4363,1.432,1.4417,1.4575,1.47,1.4771,1.5026,1.5108,1.4912,1.4901,1.4675,1.4202,1.2369,1.1174,1.1307,1.0849,1.087,1.0741,1.0375,1.0249,1.0143,0.9856,0.9776,0.9902,0.9824,0.9808,0.9632,0.8852,0.7931,0.0,0.0,0.0,0.0,0.0,0.0,0.0,0.0,0.0,0.0,0.0,1.1972,0.0,0.0,1.3043,1.3326,1.3732,1.4113,1.4397,1.4558,1.4406,1.3694,1.3988,1.4266,1.3884,1.4641,1.4957,1.4567,1.5023,1.559,1.579,1.6068,1.6227,1.6632,1.6856,1.6937,1.6863,1.7012,1.7087,1.7087,1.7012,1.7093,1.7304,1.7229,1.7277,1.7412,1.7263,1.6989,1.6763,1.6617,1.6387,1.6234,1.6163,1.5628,1.5087,1.5503,1.5425,1.5356,1.5578,1.5356,1.5422,1.5927,1.5959,1.6118,1.6472,1.671,1.6803,1.6518,1.6556,1.6589,1.673,1.6994,1.7233,1.7305,1.7585,1.7639,1.721,1.6805,1.6398,1.5442,1.5089,1.4949,1.4504,1.4504,1.4515,1.4575,1.4689,1.4814,1.4923,1.5108,1.5179,1.5053,1.5276,1.526,1.4967,1.2709,1.1257,1.1312,1.0922,1.0763,1.0849,1.053,1.0445,1.0355,1.0265,1.0171,1.0085,0.9991,0.9951,0.9947,0.9564,0.8873,0.0,0.0,0.0,0.0,0.0,0.0,0.0,0.0,1.2505,1.278,1.2979,1.3267,1.362,1.3763,1.3973,1.4516,1.4835,1.5079,1.5282,1.5527,1.5301,1.4548,1.4919,1.4912,1.4548,1.546,1.5756,1.5381,1.6038,1.6395,1.6395,1.6653,1.6809,1.6836,1.7066,1.7141,1.7026,1.7161,1.7182,1.7066,1.7093,1.7182,1.7324,1.7324,1.7392,1.7507,1.748,1.7446,1.7419,1.7419,1.7419,1.7419,1.7419,1.6628,1.5785,1.6215,1.6092,1.598,1.6266,1.6188,1.5946,1.6311,1.6524,1.6641,1.7036,1.7256,1.7331,1.7582,1.7582,1.7561,1.7792,1.7792,1.7758,1.788,1.7935,1.7948,1.7282,1.7156,1.697,1.5747,1.567,1.5345,1.4807,1.4646,1.4716,1.4716,1.4814,1.4939,1.5053,1.5195,1.5293,1.5293,1.5536,1.5475,1.5092,1.3101,1.1832,1.1278,1.0963,1.0837,1.0903,1.0857,1.0803,1.051,1.0424,1.0343,1.0269,1.0179,1.0098,1.0028,1.0012,0.9569,1.3076,1.282,1.2735,1.3113,1.3116,1.3061,0.0,0.0,1.3746,1.3924,1.4528,1.4805,1.416,1.459,1.5068,1.4869,1.5052,1.5303,1.5716,1.5805,1.5879,1.5817,1.5913,1.5879,1.5817,1.6171,1.6313,1.6435,1.6605,1.67,1.67,1.6863,1.7012,1.7141,1.7175,1.7182,1.7168,1.7317,1.7385,1.7372,1.7507,1.765,1.7792,1.7792,1.7792,1.7812,1.7684,1.7548,1.7419,1.7419,1.7419,1.7419,1.7419,1.7399,1.7157,1.7157,1.725,1.7358,1.721,1.7133,1.6885,1.725,1.7041,1.6916,1.7217,1.7494,1.7602,1.7629,1.7717,1.7826,1.786,1.7948,1.8036,1.8057,1.8165,1.8267,1.8267,1.7815,1.7369,1.7136,1.6241,1.5618,1.5722,1.5297,1.4841,1.4841,1.4939,1.5064,1.5179,1.5391,1.5532,1.5526,1.5526,1.5205,1.4996,1.4868,1.3576,1.1366,1.1045,1.0732,1.0857,1.0698,1.0616,1.0604,1.0522,1.0469,1.0461,1.0367,1.0318,1.0306,1.0224,0.9678,1.4357,1.3748,1.3385,0.0,1.4186,1.4088,1.4485,1.4791,1.4725,1.4968,1.5314,1.5602,1.5219,1.5658,1.5949,0.0,1.6234,1.6537,1.6918,1.7048,1.7163,1.7329,1.6806,1.6536,1.6205,1.6347,1.6456,1.6517,1.6666,1.6788,1.6876,1.7026,1.7168,1.7317,1.7412,1.7412,1.7324,1.7473,1.7507,1.7419,1.7487,1.7595,1.7738,1.7738,1.7792,1.786,1.7792,1.7738,1.7684,1.7684,1.7684,1.7684,1.7684,1.7684,1.765,1.7487,1.7514,1.7629,1.7575,1.7478,1.7632,1.7717,1.7498,1.7545,1.7704,1.7724,1.7772,1.7772,1.788,1.8002,1.8002,1.8111,1.8233,1.8233,1.8267,1.8321,1.8321,1.8155,1.7954,1.742,1.7085,1.6725,1.6016,1.5606,1.5425,1.4956,1.5064,1.5189,1.5304,1.5472,1.5543,1.5718,1.5347,1.5217,1.5119,1.501,1.4454,1.3487,1.1754,1.1203,1.1802,1.1442,1.1364,1.1798,1.1273,1.0997,1.0997,1.0691,1.0404,1.0351,1.0314,1.0257,1.5217,0.0,0.0,1.4923,1.5127,1.5011,1.5255,1.5459,1.5639,1.5685,1.6164,1.6423,1.6258,1.6499,1.6763,1.6785,1.7061,1.7359,1.7687,1.7829,1.7948,1.7872,1.7451,1.7017,1.6577,1.6463,1.6558,1.6639,1.6788,1.6904,1.7181,1.7367,1.7518,1.785,1.7786,1.7813,1.7696,1.7629,1.7629,1.7487,1.7521,1.7602,1.7704,1.7704,1.7758,1.786,1.786,1.786,1.786,1.786,1.786,1.786,1.786,1.786,1.7846,1.7623,1.7616,1.7704,1.7704,1.7772,1.786,1.786,1.786,1.786,1.786,1.786,1.786,1.786,1.7968,1.8091,1.8091,1.8233,1.8375,1.8375,1.8409,1.8443,1.8443,1.8511,1.8336,1.7778,1.7691,1.7562,1.6537,1.6377,1.6215,1.5543,1.5661,1.5773,1.5374,1.5532,1.5586,1.5745,1.5486,1.5092,1.4895,1.4967,1.4885,1.4928,1.2465,1.1444,1.2527,1.2167,1.2084,1.2534,1.1789,1.1541,1.1541,1.0786,1.049,1.0424,1.04,1.0404,0.0,0.0,1.5272,1.5957,1.5904,1.5813,1.6002,1.6144,1.6199,1.6362,1.6761,1.6928,1.6529,1.6941,1.735,1.7113,1.7307,1.7523,1.7851,1.7896,1.7702,1.7113,1.7376,1.7497,0.0,1.6932,1.6646,1.6944,1.71,1.7332,1.7818,1.8102,1.8488,1.8926,1.8654,1.8515,1.8508,1.8005,1.7792,1.765,1.7792,1.7846,1.786,1.786,1.786,1.786,1.786,1.786,1.786,1.786,1.786,1.786,1.786,1.786,1.786,1.7846,1.7846,1.786,1.786,1.786,1.786,1.786,1.786,1.786,1.786,1.786,1.786,1.786,1.7968,1.8091,1.8091,1.8301,1.8531,1.8531,1.864,1.8742,1.8742,1.8742,1.8762,1.8742,1.8284,1.782,1.782,1.7355,1.6945,1.7073,1.7214,1.6823,1.5629,1.5603,1.5755,1.5744,1.5434,1.5023,1.4404,1.4814,1.4912,1.5037,1.2718,1.1685,1.2392,1.2873,1.2985,1.2534,1.1857,1.1643,1.1643,1.0882,1.0604,1.0604,1.0522,1.053,0.0,0.0,1.5949,1.6872,1.6975,1.6952,1.7007,1.729,1.7354,1.729,1.7378,1.7483,1.7357,1.7707,1.8214,1.8145,1.8403,1.882,1.9056,1.919,1.9308,1.9212,1.9022,0.0,0.0,0.0,0.0,1.7594,1.7326,1.7429,1.8117,1.8316,1.8704,1.9454,1.9309,1.9119,1.8679,1.8508,1.8281,1.7792,1.7846,1.786,1.786,1.786,1.786,1.786,1.786,1.786,1.786,1.786,1.786,1.786,1.786,1.786,1.786,1.786,1.786,1.786,1.786,1.786,1.786,1.786,1.786,1.786,1.786,1.7935,1.8023,1.8023,1.8199,1.8389,1.8389,1.8531,1.8694,1.8694,1.8728,1.8762,1.8762,1.8762,1.8762,1.8762,1.8523,1.8284,1.7826,1.767,1.7575,1.733,1.7403,1.7224,1.7066,1.6182,1.57,1.5872,1.5618,1.5238,1.4312,1.4782,1.4912,1.5037,1.4191,1.3644,1.3644,1.2975,1.3088,1.3761,1.3471,1.299,1.2307,1.1608,1.1116,1.0616,1.0583,1.0583,0.0,1.6591,1.6721,1.7427,1.7607,1.7502,1.7616,1.7729,1.7802,1.7754,1.7729,1.7729,1.7737,1.8079,1.833,1.8273,1.8858,1.9386,1.9573,1.9752,1.9955,1.9991,1.956,1.9345,0.0,0.0,0.0,1.8099,1.7826,1.7953,1.8918,1.9132,1.9498,2.0193,2.005,1.964,1.9419,1.8985,1.8336,1.7948,1.8002,1.8023,1.8023,1.7968,1.7948,1.7935,1.788,1.786,1.786,1.786,1.786,1.786,1.7914,1.7948,1.7948,1.8002,1.8023,1.8002,1.7901,1.786,1.7867,1.8088,1.8129,1.8385,1.8385,1.8496,1.8397,1.8179,1.8335,1.8531,1.8531,1.864,1.8762,1.8762,1.8762,1.8762,1.8762,1.8762,1.8762,1.8762,1.8762,1.8755,1.8298,1.845,1.8431,1.8192,1.8275,1.8096,1.769,1.7203,1.6448,1.5861,1.5863,1.5447,1.4739,1.4761,1.4901,1.4983,1.4912,1.4869,1.4632,1.3746,1.3629,1.4274,1.4204,1.3922,1.3212,1.1871,1.1159,1.0882,1.0669,1.0669,1.6893,1.7145,1.7291,1.7802,1.7802,1.7664,1.7672,1.7672,1.7713,1.7884,1.7632,1.7494,0.0,0.0,1.8111,1.7973,1.855,1.9086,1.9272,1.9451,1.9476,0.0,0.0,0.0,0.0,0.0,0.0,1.8902,1.8623,1.8926,2.0015,2.0326,2.0654,2.1157,2.0662,2.0529,2.0529,1.9441,1.8635,1.8111,1.8253,1.8321,1.8321,1.8165,1.8091,1.8091,1.7935,1.7867,1.788,1.788,1.788,1.7901,1.8036,1.8111,1.8124,1.8267,1.8321,1.8287,1.7989,1.788,1.8101,1.8565,1.8864,1.8999,1.8999,1.9106,1.9008,1.8555,1.843,1.8552,1.8552,1.8654,1.8762,1.8762,1.8762,1.8762,1.8762,1.8762,1.8762,1.8762,1.8762,1.8782,1.8782,1.9027,1.9271,1.9413,1.9569,1.9177,1.7959,1.8209,1.7709,1.6221,1.5902,1.5683,1.498,1.4994,1.5088,1.5088,1.5088,1.5105,1.5105,1.4978,1.4862,1.429,1.429,1.4236,1.4347,1.2084,1.1193,1.1643,1.0978,1.0755,1.7218,1.7607,1.7932,1.807,1.8264,1.8416,1.8038,1.8408,1.8391,1.7932,1.7632,1.7413,0.0,0.0,0.0,1.8282,1.9029,0.0,1.9833,2.0003,0.0,2.0031,0.0,2.0152,2.024,1.9859,0.0,0.0,1.9616,1.9193,1.9529,2.0177,2.0757,2.153,2.1349,2.1215,2.0895,1.9766,1.9338,1.9614,1.8754,1.8534,1.8987,1.8818,1.8538,1.8077,1.8371,1.8371,1.8036,1.8036,1.8111,1.8213,1.8247,1.8267,1.8267,1.8301,1.8541,1.8987,1.8895,1.8656,1.8199,1.8874,1.9128,1.9149,1.9825,1.9723,1.9384,1.9156,1.9039,1.8708,1.8708,1.8728,1.8762,1.8762,1.8762,1.8762,1.8762,1.8762,1.8762,1.8762,1.885,1.8972,1.9081,1.9257,1.9434,1.9576,1.9644,1.9657,1.9177,1.8921,1.844,1.7709,1.6467,1.5304,1.4739,1.4841,1.495,1.5088,1.4939,1.4994,1.4994,1.5105,1.5033,1.4771,1.4376,1.4263,1.4247,1.3709,1.2762,1.1857,1.1634,1.1643,1.764,1.8133,1.859,1.8748,1.9048,1.9116,1.8744,1.8677,1.8568,1.7835,1.751,0.0,1.7372,1.7681,0.0,0.0,0.0,0.0,1.98,1.9979,2.015,0.0,2.0393,0.0,2.0588,2.0449,2.0396,0.0,1.9954,1.9753,2.0139,2.0757,2.1341,2.166,2.1741,2.159,2.1019,2.041,2.0236,2.0236,1.9384,1.9191,1.9876,1.949,1.8952,1.8733,1.8804,1.8783,1.8642,1.8642,1.8909,1.9234,1.9291,1.9327,1.9327,1.9398,1.9427,1.9876,1.9876,1.9655,1.9405,1.9935,1.9943,2.0236,2.0683,2.0333,2.0008,1.9555,1.915,1.8762,1.8762,1.8762,1.8762,1.8762,1.8762,1.8762,1.8762,1.8762,1.8782,1.885,1.8993,1.9128,1.9271,1.9379,1.9481,1.9644,1.9664,1.9664,1.9664,1.9408,1.8927,1.869,1.7025,1.5863,1.498,1.4911,1.4798,1.5105,1.4967,1.5037,1.5037,1.4967,1.4912,1.5088,1.4727,1.4402,1.4354,1.429,1.3803,1.2888,1.262,1.2181,1.8079,1.859,1.9048,1.9403,1.9587,1.9674,1.9125,1.8971,1.8575,1.7796,0.0,1.7153,1.7291,1.7624,1.7916,1.8005,0.0,1.937,1.9589,1.976,1.9971,2.0288,2.0483,2.0604,2.0629,2.0791,2.0755,2.0497,2.0505,2.0778,2.1156,2.1555,2.1684,2.1725,2.1912,2.1783,2.1308,2.1245,2.1087,2.0629,2.0088,2.0146,2.0609,1.9978,1.9677,1.9441,1.9511,1.922,1.8987,1.9241,1.9702,2.0177,2.0333,2.0408,2.0408,2.0527,2.0564,2.0802,2.0802,2.0802,2.0772,2.0948,2.1198,2.1323,2.1323,2.0949,2.037,1.9922,1.9226,1.8762,1.8762,1.8762,1.8762,1.8762,1.8762,1.8762,1.8762,1.8782,1.883,1.8993,1.9128,1.9271,1.9413,1.9447,1.9501,1.9644,1.9664,1.9664,1.9664,1.9664,1.9408,1.8677,1.781,1.6654,1.5436,1.4964,1.4868,1.4841,1.4967,1.5037,1.5037,1.5037,1.4983,1.4885,1.5105,1.4798,1.4467,1.445,1.445,1.445,1.3664,1.2999,1.8527,1.915,1.9767,1.962,1.9956,2.0037,1.9116,1.9147,0.0,0.0,1.7153,1.708,1.6966,1.7356,1.7884,1.8485,1.9086,1.9638,2.0117,2.0206,2.0247,0.0,0.0,0.0,0.0,0.0,0.0,0.0,2.1116,2.1132,2.0733,2.1341,2.179,2.2082,2.2277,2.2383,2.2145,2.1701,2.1725,2.2185,2.1064,2.084,2.131,2.1125,2.0355,1.9427,2.041,1.9898,1.8555,1.9818,1.9862,1.9641,2.0267,2.0564,2.0549,2.0445,2.0629,2.1087,2.1087,2.1559,2.1804,2.1424,2.1487,2.1502,2.1502,2.1048,2.037,1.9922,1.9226,1.8762,1.8762,1.8762,1.8762,1.8762,1.8762,1.8762,1.8762,1.8871,1.8993,1.9128,1.9291,1.9393,1.9434,1.9535,1.9624,1.9664,1.9664,1.9664,1.9664,1.9664,1.9408,1.8677,1.8058,1.7109,1.6022,1.5392,1.5064,1.4727,1.4912,1.5037,1.5037,1.5037,1.5021,1.501,1.4912,1.5072,1.4831,1.4961,1.4906,1.4906,1.4662,1.4429,1.9483,1.9845,2.0404,2.0325,2.0602,2.0575,1.9736,0.0,0.0,0.0,1.7662,1.7636,1.7206,1.7712,0.0,1.8363,1.9045,1.9638,1.9995,2.0206,0.0,2.032,2.0564,0.0,0.0,0.0,2.1295,2.1384,2.1384,2.1376,2.0945,2.143,2.1912,2.2188,2.2359,2.2472,2.2472,2.2242,2.2242,2.2464,2.1549,2.131,2.2003,2.1678,2.1179,2.049,2.1102,2.0843,1.9935,2.0704,2.0965,2.1202,2.1502,2.1525,2.1525,2.1448,2.1646,2.1883,2.1883,2.2097,2.2359,2.2201,2.2011,2.2003,2.1549,2.1064,2.037,1.9922,1.9226,1.8762,1.8762,1.8816,1.8884,1.8884,1.8938,1.8993,1.8993,1.9115,1.9237,1.9305,1.9447,1.9556,1.9556,1.961,1.9664,1.9664,1.9664,1.9664,1.9664,1.9664,1.9657,1.9164,1.8626,1.7717,1.6656,1.623,1.5655,1.4885,1.4967,1.5037,1.5037,1.5037,1.5037,1.5037,1.4983,1.4956,1.4956,1.4901,1.5105,1.5088,1.5033,1.4814,2.0193,2.0547,2.1109,2.1238,2.128,2.0973,2.0299,1.977,0.0,0.0,1.8154,1.8035,1.7656,1.8085,1.8459,0.0,1.9002,1.9435,1.9897,2.0003,2.0231,0.0,2.0637,0.0,2.107,2.1173,0.0,2.1612,2.1612,2.1628,2.1449,2.1725,2.1977,2.2188,2.2342,2.2424,2.2472,2.2472,2.2472,2.2464,2.2003,2.2003,2.2464,2.2003,2.1549,2.1541,2.1549,2.1525,2.1264,2.1525,2.1979,2.2185,2.2448,2.2472,2.2464,2.2424,2.2407,2.2407,2.2407,2.2407,2.2424,2.2448,2.2472,2.2464,2.1549,2.1064,2.0609,1.9922,1.9458,1.924,1.9035,1.9125,1.9228,1.9027,1.9115,1.9447,1.9482,1.9592,1.9681,1.9715,1.9818,1.9908,1.9664,1.9664,1.9664,1.9664,1.9664,1.9664,1.9664,1.9664,1.9664,1.9664,1.9177,1.8313,1.7312,1.6823,1.6005,1.5053,1.5037,1.5037,1.5037,1.5037,1.5037,1.5037,1.5037,1.5037,1.5037,1.5037,1.5037,1.5037,1.4939,1.4956,2.0193,2.1129,2.1845,2.1505,2.1382,2.1095,2.0143,0.0,0.0,1.7847,1.797,1.8163,1.7826,1.8075,0.0,0.0,0.0,1.9167,2.0075,1.9921,1.9955,2.0279,0.0,0.0,2.1489,2.139,2.1595,2.2253,2.2253,2.2117,2.162,2.166,2.1855,2.2172,2.2212,2.2302,2.2472,2.2472,2.2472,2.2472,2.2464,2.2464,2.2472,2.2464,2.2011,2.1549,2.2242,2.1685,2.0629,2.1939,2.1907,2.1559,2.2161,2.2472,2.2448,2.2277,2.2212,2.2212,2.2212,2.2212,2.2237,2.2407,2.2472,2.2225,2.1064,2.1079,2.1071,1.9907,2.0139,2.04,1.9868,1.9918,1.9718,1.9392,1.9671,2.0181,2.0331,2.086,2.1151,2.0573,2.038,2.0394,1.9908,1.9664,1.9664,1.9664,1.9664,1.9664,1.9664,1.9664,1.9664,1.9664,1.9177,1.8313,1.7312,1.6823,1.6005,1.5053,1.5037,1.5037,1.5037,1.5037,1.5037,1.5037,1.5037,1.5037,1.5037,1.5037,1.5037,1.5037,1.5021,1.5021,2.1118,2.1373,2.1745,2.1685,2.1311,2.096,2.028,0.0,1.934,1.8588,1.8707,1.8703,1.8452,1.8654,1.8945,1.9015,0.0,0.0,1.9767,2.0066,2.0323,2.0696,2.106,0.0,0.0,0.0,2.2472,2.2699,2.2699,2.2742,2.26,2.2796,2.3044,2.3317,2.3428,2.3301,2.2933,2.2933,2.2925,2.2472,2.2472,2.2472,2.2472,2.2472,2.2464,2.2011,2.2464,2.2137,2.152,2.2169,2.2129,2.1992,2.2399,2.2472,2.2464,2.2383,2.2359,2.2359,2.2359,2.2359,2.2359,2.2448,2.2529,2.2378,2.1333,2.1302,2.1325,2.0736,2.0517,2.0795,2.0724,2.0605,2.0714,2.0635,2.0918,2.1166,2.0998,2.1254,2.1518,2.1343,2.1115,2.1115,2.088,2.088,2.063,2.0394,2.0151,2.0144,1.9664,1.9664,1.9664,1.9664,1.9414,1.881,1.8046,1.7293,1.6473,1.5749,1.5276,1.5037,1.5037,1.5037,1.5037,1.5037,1.5037,1.5037,1.5037,1.5037,1.5037,1.5037,1.5037,1.5037,2.1376,2.1489,2.1479,2.1573,2.1217,2.0683,0.0,0.0,1.9467,1.8985,1.9051,1.9053,1.8941,1.9104,1.9337,1.9151,1.9402,1.9587,1.9828,2.0175,2.0704,2.0934,0.0,2.2044,0.0,2.3178,2.3364,2.3128,2.3408,2.3462,2.3524,2.4066,2.4299,2.3919,2.4103,2.4006,2.3607,2.3607,2.3394,2.2933,2.2925,2.2686,2.2686,2.2472,2.2448,2.2383,2.2448,2.2342,2.2131,2.2359,2.2359,2.2212,2.2407,2.2472,2.2472,2.2472,2.2472,2.2472,2.2472,2.2472,2.2472,2.2472,2.2553,2.2635,2.2043,2.1851,2.1945,2.1361,2.1202,2.1262,2.1375,2.1533,2.1444,2.1578,2.1843,2.1827,2.1827,2.2077,2.2077,2.1835,2.1827,2.185,2.16,2.1593,2.135,2.0865,2.063,2.038,2.0144,1.9908,1.9664,1.9664,1.9664,1.9307,1.8342,1.7801,1.6959,1.604,1.5293,1.5037,1.5037,1.5037,1.5037,1.5037,1.5037,1.5037,1.5037,1.5037,1.5037,1.5037,1.5037,1.5037,2.0741,2.101,2.1265,2.1056,2.0855,2.064,0.0,0.0,1.942,1.8806,1.8834,1.9042,1.9259,1.894,1.8982,2.0046,1.9479,1.9432,2.0756,2.0614,2.0568,0.0,2.1337,2.2064,2.2267,2.3233,2.3801,2.3137,2.3762,2.4393,2.4585,2.5254,2.5047,2.3716,2.3919,2.4103,2.4288,2.4288,2.4288,2.4288,2.3607,2.3386,2.3386,2.2686,2.2359,2.2212,2.2383,2.2277,2.1953,2.2318,2.2359,2.2212,2.2407,2.2472,2.2472,2.2472,2.2472,2.2472,2.2472,2.2472,2.2472,2.2472,2.2472,2.2472,2.2464,2.2724,2.2756,2.2276,2.218,2.2296,2.2296,2.194,2.1593,2.1593,2.2077,2.2561,2.2561,2.3045,2.3278,2.2811,2.2561,2.2312,2.16,2.1593,2.1593,2.1593,2.1108,2.063,2.063,2.0144,1.9664,1.9664,1.9664,1.9361,1.8478,1.7845,1.7001,1.6155,1.5337,1.5037,1.5037,1.5037,1.5037,1.5037,1.5037,1.5037,1.5037,1.5037,1.5037,1.5037,1.5037,1.5037,2.0524,2.0749,2.0649,2.0584,2.0486,2.0074,1.9637,1.9325,1.908,1.8749,1.8834,1.9042,1.8913,1.8885,1.9021,1.9646,1.9608,1.9768,2.0536,0.0,0.0,2.1944,2.3135,2.4084,0.0,0.0,2.4446,2.4446,2.4502,2.4842,2.5067,2.5151,2.5348,2.524,2.5314,2.5369,2.4985,2.4985,2.4746,2.4288,2.4067,2.4067,2.4067,2.3828,2.3803,2.3751,2.3803,2.3242,2.2812,2.3055,2.2817,2.2212,2.2407,2.2472,2.2472,2.2472,2.2472,2.2472,2.2472,2.2472,2.2472,2.2472,2.2553,2.2635,2.2635,2.2635,2.2675,2.2692,2.2981,2.3214,2.3214,2.3005,2.2795,2.2795,2.3045,2.3295,2.3295,2.3278,2.3528,2.3295,2.3295,2.3053,2.3045,2.2795,2.2811,2.2312,2.16,2.1115,2.063,2.0144,1.9664,1.9664,1.9664,1.9556,1.9059,1.8278,1.7675,1.7203,1.6693,1.6203,1.6203,1.6203,1.5959,1.5026,1.5021,1.5021,1.5037,1.5037,1.5037,1.5037,1.5037,1.5037,0.0,2.0175,2.0278,2.0014,1.9925,0.0,0.0,0.0,1.8919,1.8721,1.8834,1.9042,1.8913,1.9011,1.9132,1.9637,1.9922,0.0,0.0,0.0,0.0,2.2738,0.0,0.0,0.0,2.4835,2.4882,2.4882,2.4958,2.5109,2.5307,2.5402,2.5657,2.6101,2.6054,2.5816,2.5434,2.5434,2.5443,2.4967,2.4746,2.449,2.442,2.4473,2.4217,2.4077,2.4217,2.3901,0.0,2.3496,2.3276,2.266,2.2859,2.2925,2.2925,2.2472,2.2472,2.2472,2.2472,2.2472,2.2472,2.2472,2.2578,2.2724,2.2724,2.274,2.2805,2.3041,2.3293,2.3528,2.3528,2.3528,2.3528,2.3528,2.3528,2.3528,2.3528,2.3528,2.3528,2.3528,2.3528,2.3528,2.3528,2.3528,2.3278,2.3045,2.2312,2.1843,2.1108,2.038,1.9894,1.9664,1.9664,1.9535,1.9217,1.8728,1.8142,1.7839,1.7123,1.6902,1.6902,1.6902,1.6425,1.5726,1.5487,1.5487,1.5498,1.5737,1.5498,1.5021,1.5021,1.5021,0.0,0.0,0.0,0.0,0.0,0.0,0.0,0.0,0.0,0.0,0.0,1.9042,1.9259,1.9284,1.9453,0.0,0.0,0.0,0.0,2.2019,0.0,0.0,2.3444,0.0,2.4551,2.4778,2.491,2.491,2.508,2.5307,2.5506,2.5676,2.5884,2.6101,2.5931,2.5931,2.6129,2.6129,2.6129,2.6129,2.5434,2.5114,2.4949,2.4675,2.4313,2.3985,2.4129,2.3858,2.3112,2.391,2.3954,2.3149,2.3326,2.3394,2.3386,2.2686,2.2472,2.2472,2.2472,2.2472,2.2472,2.2489,2.2594,2.2724,2.274,2.2976,2.3252,2.3252,2.3382,2.3528,2.3528,2.3528,2.3528,2.3528,2.3528,2.3528,2.3528,2.3528,2.3528,2.3528,2.3528,2.3528,2.3528,2.3528,2.3528,2.3528,2.3045,2.2312,2.16,2.1108,2.038,1.9644,1.9644,1.9522,1.9217,1.8728,1.8123,1.7839,1.7361,1.7135,1.7135,1.7135,1.6902,1.6902,1.6657,1.6419,1.6419,1.6663,1.6186,1.5232,1.5232,1.5232,0.0,0.0,0.0,1.9052,1.9137,0.0,0.0,0.0,0.0,0.0,0.0,1.8875,1.8744,1.894,0.0,0.0,0.0,0.0,2.1707,0.0,0.0,0.0,2.4211,2.4261,2.457,2.492,2.5128,2.5128,2.5184,2.5307,2.5506,2.5402,2.5525,2.5884,2.5855,2.5931,2.6129,2.6129,2.6129,2.6129,2.5891,2.5863,2.5835,2.5644,2.5616,2.5523,2.5159,2.4912,2.4603,2.4482,2.4261,2.3997,2.4049,2.3846,2.3386,2.3155,2.2925,2.2472,2.2472,2.2472,2.2489,2.2618,2.2675,2.274,2.2895,2.3081,2.3252,2.3252,2.3382,2.3528,2.3528,2.3528,2.3528,2.3528,2.3528,2.3528,2.3528,2.3528,2.3528,2.3528,2.3528,2.3528,2.3528,2.3528,2.3528,2.3528,2.3045,2.2312,2.16,2.1108,2.0337,1.9501,1.9481,1.9359,1.9061,1.8905,1.8838,1.8543,1.8537,1.8304,1.8304,1.8304,1.8065,1.7581,1.7123,1.6663,1.6663,1.6896,1.6663,1.6425,1.6425,1.6902,1.8834,1.9061,1.925,1.8699,1.881,1.8919,0.0,0.0,0.0,0.0,0.0,0.0,1.8931,0.0,0.0,0.0,0.0,0.0,0.0,0.0,0.0,2.3899,2.4164,2.4447,0.0,2.508,2.526,2.5336,2.5354,2.5383,2.5506,2.5506,2.56,2.5827,2.5931,2.6025,2.6129,2.6129,2.6129,2.6129,2.6129,2.6082,2.6007,2.6082,2.6082,2.5997,2.5625,2.5425,2.5205,2.5205,2.4985,2.4746,2.4746,2.4288,2.3846,2.3394,2.3147,2.2925,2.2703,2.2472,2.2489,2.2659,2.2781,2.2895,2.3065,2.3236,2.3358,2.3276,2.3382,2.3528,2.3528,2.3528,2.3528,2.3528,2.3528,2.3528,2.3528,2.3528,2.3528,2.3528,2.3528,2.3528,2.3528,2.3528,2.3528,2.3528,2.3295,2.2811,2.2085,2.1767,2.1203,2.0402,1.9838,1.9706,1.9476,1.9303,1.9006,1.8782,1.8762,1.8762,1.8762,1.8762,1.8523,1.8298,1.7826,1.7839,1.7839,1.7839,1.7839,1.7839,1.7839,1.8078,1.8673,1.8976,1.9072,1.8496,1.8625,1.8928,0.0,0.0,0.0,0.0,0.0,0.0,0.0,0.0,0.0,0.0,0.0,0.0,0.0,2.3039,2.3398,2.3946,2.428,0.0,2.508,2.526,2.5383,2.5534,2.5553,2.5553,2.5553,2.5732,2.5827,2.5827,2.6025,2.6129,2.6129,2.6101,2.6101,2.6129,2.6101,2.6007,2.5874,2.6054,2.6025,2.5874,2.5816,2.5672,2.5443,2.5672,2.5672,2.5205,2.5205,2.4746,2.4067,2.3616,2.3394,2.3147,2.2711,2.2472,2.2489,2.2659,2.283,2.322,2.3392,2.3589,2.3696,2.3532,2.363,2.3778,2.3761,2.3778,2.3536,2.3536,2.3528,2.3528,2.3528,2.3528,2.3528,2.3528,2.3528,2.3528,2.3528,2.3528,2.3528,2.3528,2.3528,2.3278,2.2569,2.2444,2.2088,2.1302,2.0714,2.0074,1.9903,1.9421,1.9138,1.9001,1.8762,1.8762,1.8762,1.8762,1.8762,1.8762,1.8762,1.8762,1.8762,1.8762,1.8762,1.8762,1.8762,1.8762,1.8673,1.8976,1.9203,1.8825,1.8853,1.8966,0.0,0.0,0.0,0.0,0.0,0.0,0.0,0.0,0.0,0.0,0.0,0.0,0.0,0.0,0.0,2.4202,0.0,2.5447,2.492,2.543,2.5751,2.578,2.578,2.578,2.578,2.5808,2.5827,2.5827,2.6025,2.6129,2.6129,2.595,2.595,2.6129,2.595,2.595,2.6082,2.6101,2.6101,2.6073,2.5663,2.5663,2.5891,2.5434,2.5214,2.5205,2.5205,2.4526,2.3607,2.4067,2.3607,2.2703,2.2472,2.2472,2.2489,2.2659,2.2974,2.3499,2.37,2.4341,2.4955,2.4928,2.4597,2.4493,2.4984,2.4734,2.4252,2.4252,2.4011,2.3528,2.3528,2.3528,2.3528,2.3528,2.3528,2.3528,2.3528,2.3528,2.3528,2.3528,2.3528,2.3278,2.2569,2.2546,2.2173,2.1168,2.1123,2.051,1.974,1.9718,1.9486,1.9444,1.8987,1.8762,1.8762,1.8762,1.8762,1.8762,1.8762,1.8762,1.8762,1.8762,1.8762,1.8762,1.8762,1.8762,1.8645,1.8815,1.9023,1.9288,1.942,1.9486,0.0,0.0,0.0,0.0,0.0,0.0,0.0,0.0,0.0,0.0,0.0,0.0,0.0,0.0,2.5321,0.0,0.0,2.5979,2.5788,2.6106,2.6101,2.5978,2.5978,2.595,2.5827,2.5931,2.5931,2.5827,2.6025,2.6129,2.6129,2.5931,2.5931,2.6129,2.6025,2.6025,2.6129,2.6129,2.6129,2.6129,2.591,2.591,2.6129,2.5901,2.5434,2.5205,2.5205,2.4746,2.4067,2.4535,2.4288,2.3607,2.3828,2.3846,2.3411,2.3588,2.388,2.4165,2.4346,2.4702,2.5026,2.5615,2.5307,2.4966,2.5325,2.505,2.4803,2.469,2.4504,2.4341,2.3862,2.3953,2.4011,2.3528,2.3528,2.3528,2.3528,2.3528,2.3528,2.3528,2.3528,2.3287,2.3053,2.2886,2.2711,2.2078,2.1649,2.1021,2.0168,1.9922,1.9683,1.9683,1.9458,1.9226,1.9226,1.9001,1.8762,1.8762,1.8762,1.8762,1.8762,1.8762,1.8762,1.8762,1.8762,1.8762,1.8779,1.8913,1.9327,0.0,0.0,0.0,0.0,0.0,0.0,0.0,0.0,0.0,0.0,0.0,0.0,0.0,0.0,0.0,0.0,0.0,2.6031,2.6592,2.6714,2.6822,2.6876,2.6769,2.663,2.6348,2.6129,2.6054,2.5903,2.6054,2.6054,2.5903,2.6054,2.6129,2.6129,2.5978,2.5978,2.6129,2.6082,2.6082,2.6129,2.6129,2.6129,2.6129,2.6129,2.6129,2.6129,2.6129,2.5672,2.5205,2.5205,2.4985,2.4508,2.4985,2.4746,2.4508,2.4985,2.4746,2.4314,2.4472,2.4525,2.4783,2.4925,2.5023,2.531,2.5934,2.5897,2.5785,2.5731,2.544,2.5369,2.5227,2.5026,2.4868,2.4444,2.4572,2.4434,2.3761,2.3778,2.3778,2.3528,2.3528,2.3528,2.3528,2.3528,2.3528,2.3528,2.3252,2.3041,2.3,2.2257,2.1349,2.0609,2.0146,1.9922,1.9922,1.9922,1.9922,1.9922,1.9226,1.9001,1.9001,1.8762,1.8762,1.8762,1.8762,1.8762,1.8762,1.8762,1.8762,1.9258,1.9775,2.0358,1.9981,0.0,0.0,0.0,0.0,0.0,0.0,0.0,0.0,0.0,0.0,0.0,0.0,0.0,2.571,2.6175,0.0,2.727,2.6883,2.7546,2.7984,2.7601,2.7143,2.7023,2.7043,2.6348,2.6129,2.6101,2.6129,2.6129,2.6101,2.6129,2.6129,2.6129,2.6101,2.6101,2.6129,2.5931,2.595,2.6129,2.6129,2.6129,2.6129,2.6129,2.6129,2.6129,2.6129,2.5672,2.5205,2.5205,2.5205,2.4976,2.4508,2.4746,2.4967,2.4508,2.4288,2.4288,2.4314,2.4764,2.5232,2.525,2.5627,2.6238,2.6266,2.6649,2.6895,2.7034,2.674,2.6117,2.6089,2.5498,2.4955,2.4894,2.4946,2.4998,2.4459,2.4493,2.4269,2.3536,2.3528,2.3528,2.3528,2.3528,2.3528,2.3528,2.3358,2.3171,2.3016,2.283,2.217,2.0609,2.0601,2.0601,2.0601,2.0601,2.0601,2.0601,1.9907,1.9683,1.9683,1.8987,1.8762,1.8762,1.8762,1.8762,1.8762,1.8762,1.8762,1.9705,1.996,0.0,0.0,0.0,0.0,0.0,0.0,0.0,0.0,0.0,0.0,0.0,0.0,0.0,0.0,2.6473,2.7218,2.7534,2.7992,2.8236,2.8249,2.8713,2.8701,2.8481,2.8368,2.7954,2.7727,2.7509,2.7271,2.7271,2.7271,2.7212,2.7084,2.7192,2.7192,2.7054,2.7192,2.7271,2.7271,2.6509,2.6054,2.6129,2.6129,2.6129,2.6129,2.6129,2.6129,2.6129,2.6129,2.5672,2.5205,2.5205,2.5205,2.5205,2.5443,2.5663,2.5672,2.5434,2.5452,2.5452,2.5452,2.5663,2.5672,2.5672,2.5957,2.6281,2.6403,2.6498,2.6602,2.6753,2.651,2.6183,2.6043,2.6053,2.5642,2.5482,2.5364,2.528,2.5007,2.4803,2.4597,2.4244,2.4019,2.4011,2.3528,2.3422,2.3358,2.3358,2.3106,2.2895,2.283,2.1969,2.1364,2.1086,2.084,2.084,2.1071,2.1071,2.1125,2.0758,2.0059,1.9592,1.9365,1.9138,1.885,1.8762,1.8762,1.8762,1.8762,1.8762,1.8762,2.0395,2.0619,0.0,0.0,0.0,0.0,0.0,0.0,0.0,0.0,0.0,0.0,0.0,0.0,0.0,0.0,2.7757,2.8392,2.8339,2.8554,2.8791,2.905,2.9276,2.9299,2.9296,2.9112,2.8637,2.8399,2.8182,2.7954,2.7954,2.7954,2.7874,2.7732,2.7874,2.7874,2.7732,2.7874,2.7954,2.7954,2.6815,2.6348,2.6348,2.6129,2.6129,2.6129,2.6129,2.6129,2.6129,2.6129,2.591,2.5434,2.5434,2.5434,2.5663,2.6129,2.6368,2.6129,2.6368,2.6368,2.6129,2.6129,2.6129,2.6129,2.6129,2.6177,2.6252,2.6328,2.6403,2.6422,2.6375,2.6403,2.6403,2.6281,2.6299,2.6135,2.5747,2.5912,2.5861,2.5588,2.544,2.5281,2.4632,2.4451,2.4244,2.3447,2.3341,2.3252,2.3252,2.2935,2.27,2.2635,2.1603,2.1064,2.1541,2.1064,2.1064,2.1541,2.1827,2.1666,2.1081,2.0445,1.9754,1.9289,1.9061,1.9006,1.8905,1.885,1.883,1.883,1.8782,1.8762,2.1567,0.0,0.0,0.0,0.0,0.0,0.0,0.0,0.0,0.0,0.0,0.0,0.0,0.0,0.0,0.0,2.8311,2.8996,2.8576,2.8565,2.8791,2.905,2.9276,2.9502,2.9739,2.9328,2.8874,2.8874,2.8399,2.7954,2.7954,2.7954,2.7954,2.7954,2.7954,2.7954,2.7954,2.7954,2.7954,2.7954,2.7271,2.7053,2.7043,2.6348,2.6129,2.6129,2.6129,2.6129,2.6129,2.6129,2.6129,2.6129,2.6129,2.6129,2.6129,2.6805,2.6596,2.6129,2.6805,2.6586,2.6129,2.6129,2.6129,2.6129,2.6129,2.6281,2.6403,2.6177,2.6281,2.6403,2.6177,2.6281,2.6451,2.6451,2.6281,2.6177,2.6403,2.6602,2.6585,2.6317,2.6263,2.5857,2.4478,2.4366,2.4185,2.3523,2.3252,2.3252,2.3252,2.2935,2.2659,2.2489,2.2003,2.1541,2.1541,2.1541,2.1541,2.1541,2.2154,2.2499,2.179,2.0768,2.0146,2.0146,1.9434,1.9203,1.9203,1.9061,1.8993,1.8993,1.883,1.8762,2.1445,0.0,0.0,0.0,0.0,0.0,0.0,0.0,0.0,0.0,0.0,0.0,0.0,0.0,0.0,0.0,2.9058,2.9267,2.9889,2.9688,2.9712,2.9943,3.0208,3.0136,2.9771,2.9555,2.9544,2.9544,2.9307,2.9296,2.9296,2.9296,2.9243,2.9074,2.9243,2.9243,2.9074,2.9243,2.9296,2.9328,2.8647,2.8182,2.7727,2.6586,2.6348,2.6824,2.6824,2.6824,2.6805,2.7271,2.7261,2.6824,2.6824,2.6586,2.6129,2.6805,2.6596,2.6129,2.6805,2.6586,2.6129,2.6129,2.6129,2.6129,2.6129,2.6177,2.6205,2.6148,2.6177,2.6205,2.6148,2.6177,2.6224,2.6224,2.6299,2.6375,2.6422,2.6602,2.6829,2.68,2.6894,2.6721,2.583,2.5421,2.4915,2.4009,2.34,2.2976,2.2724,2.2618,2.2529,2.2472,2.2003,2.178,2.2242,2.1764,2.1827,2.241,2.2353,2.2213,2.1969,2.119,2.0787,2.0316,1.9592,1.9305,1.9203,1.9169,1.9128,1.9128,1.9094,1.9027,0.0,0.0,0.0,0.0,0.0,0.0,0.0,0.0,0.0,0.0,0.0,0.0,0.0,0.0,0.0,2.9825,2.9957,3.0026,3.0299,3.048,3.0343,3.0154,3.0476,3.0472,2.9771,2.9771,2.9771,2.9771,2.9771,2.9771,2.9771,2.9771,2.9706,2.9566,2.9685,2.9706,2.9566,2.9706,2.9771,2.9771,2.9091,2.8864,2.8626,2.7479,2.7053,2.7509,2.7509,2.7509,2.7509,2.7934,2.7489,2.7053,2.7053,2.6596,2.6129,2.6805,2.6596,2.6139,2.7053,2.6805,2.6129,2.6348,2.6368,2.6129,2.6129,2.6177,2.6224,2.6148,2.6177,2.6252,2.6252,2.6252,2.6252,2.6252,2.6347,2.6479,2.6555,2.6725,2.6933,2.7056,2.715,2.6978,2.6538,2.5901,2.5146,2.4239,2.3638,2.296,2.2529,2.2529,2.2553,2.2472,2.2242,2.2011,2.2464,2.2074,2.2154,2.2724,2.2488,2.2623,2.2623,2.1841,2.1203,2.048,2.0005,1.9963,1.9873,1.9332,1.9291,1.9291,1.9169,1.9081,0.0,0.0,0.0,0.0,0.0,0.0,0.0,0.0,0.0,0.0,0.0,0.0,0.0,3.0598,3.1058,3.0465,3.0936,3.1017,3.0366,3.0952,3.0888,3.022,3.0398,3.045,3.0008,2.9771,2.9771,2.9771,2.9771,2.9771,2.9771,2.9771,2.9771,2.9771,2.9771,2.9771,2.9771,2.9771,2.9771,2.9771,2.9328,2.9328,2.976,2.8616,2.7954,2.8182,2.8182,2.8182,2.8192,2.8192,2.7727,2.7053,2.7053,2.6596,2.6129,2.6805,2.6596,2.6368,2.7489,2.7261,2.6368,2.6815,2.6596,2.6129,2.6129,2.6281,2.6403,2.6205,2.6299,2.6479,2.6479,2.6479,2.6479,2.6498,2.6498,2.6555,2.6753,2.6952,2.7103,2.7103,2.7254,2.7081,2.6418,2.583,2.5163,2.4231,2.3712,2.3049,2.2553,2.2618,2.2659,2.2489,2.2472,2.2472,2.2489,2.2635,2.274,2.2765,2.3081,2.3252,2.3276,2.2227,2.1365,2.063,2.0608,2.0608,2.0608,1.9715,1.9413,1.9393,1.9128,1.9006,0.0,0.0,0.0,0.0,0.0,0.0,0.0,0.0,0.0,0.0,0.0,0.0,3.0796,3.1138,3.1481,3.1332,3.1367,3.1292,3.1689,3.1946,3.1857,3.1589,3.1407,3.1127,3.045,2.9987,2.9771,2.9771,2.9771,2.9771,2.9771,2.9771,2.9771,2.9771,2.9771,2.9771,2.9771,2.9771,2.9771,2.9771,2.976,2.976,2.976,2.8616,2.8172,2.8626,2.8626,2.8874,2.9307,2.9307,2.8864,2.7737,2.7737,2.7033,2.6129,2.6805,2.6596,2.6368,2.7489,2.7509,2.6815,2.7489,2.7271,2.6805,2.6805,2.6501,2.6451,2.6403,2.6526,2.6677,2.6677,2.6677,2.6725,2.6904,2.6952,2.6952,2.6999,2.7178,2.7301,2.7301,2.7348,2.7377,2.7081,2.6159,2.5163,2.377,2.363,2.3666,2.27,2.27,2.2659,2.2489,2.2472,2.2529,2.2659,2.27,2.2846,2.313,2.3211,2.3094,2.2732,2.2054,2.1593,2.1343,2.0267,1.9715,1.9715,1.9325,1.9257,1.9257,1.9183,1.9094,0.0,0.0,0.0,0.0,0.0,0.0,0.0,0.0,0.0,0.0,0.0,3.029,3.1312,3.1493,3.1674,3.1952,3.1989,3.1939,3.2386,3.2636,3.2678,3.2103,3.1878,3.1364,3.0698,3.0224,2.9771,2.9771,2.9771,2.9771,2.9771,2.9771,2.9771,2.9771,2.9771,2.9771,2.9771,2.9771,2.9771,2.9771,2.9771,2.9771,2.976,2.9091,2.908,2.9328,2.9328,2.9544,2.9771,2.9771,2.9328,2.8409,2.8182,2.7509,2.6586,2.6586,2.6348,2.6368,2.7489,2.7489,2.7062,2.8294,2.7897,2.7229,2.7336,2.6971,2.6602,2.6602,2.6677,2.6781,2.6876,2.6904,2.6952,2.7178,2.715,2.7103,2.7207,2.7301,2.7377,2.7377,2.7377,2.7377,2.7377,2.6427,2.5163,2.4001,2.3646,2.3489,2.2765,2.2724,2.2659,2.2489,2.2472,2.2529,2.27,2.2805,2.2976,2.3236,2.3341,2.3198,2.3045,2.2312,2.2077,2.2077,2.1196,2.086,2.086,2.0224,2.016,2.0146,2.0067,1.9996,0.0,0.0,0.0,0.0,0.0,0.0,0.0,0.0,0.0,3.0314,3.042,3.0527,3.1409,3.165,3.1879,3.2097,3.235,3.2519,3.2519,3.2978,3.2996,3.2336,3.189,3.1364,3.0902,3.0224,2.9771,2.9771,2.9771,2.9771,2.9771,2.9771,2.9771,2.9771,2.9771,2.9771,2.9771,2.9771,2.9771,2.9771,2.9771,2.9771,2.9771,2.9771,2.9771,2.9771,2.9771,2.9771,2.9771,2.9771,2.9544,2.8864,2.8172,2.7489,2.7043,2.6368,2.6129,2.6368,2.7489,2.7747,2.735,2.8687,2.8539,2.7685,2.7649,2.725,2.681,2.681,2.6829,2.6904,2.7074,2.7131,2.7178,2.733,2.7254,2.7178,2.7348,2.7377,2.7377,2.7377,2.7377,2.7377,2.7367,2.6408,2.5404,2.4529,2.4026,2.3425,2.3047,2.2765,2.27,2.2529,2.2513,2.2594,2.2805,2.296,2.313,2.3301,2.3447,2.3528,2.3528,2.3045,2.2811,2.2811,2.2359,2.2011,2.2011,2.1353,2.1034,2.1011,2.0877,2.0818,0.0,0.0,0.0,0.0,0.0,0.0,0.0,0.0,3.0407,0.0,3.1179,3.1421,3.1698,3.1783,3.1819,3.1855,3.2085,3.2254,3.2254,3.2688,3.3014,3.2966,3.2102,3.1578,3.1578,3.0439,2.9771,2.9771,2.9771,2.9771,2.9771,2.9771,2.9771,2.9771,2.9771,2.9771,2.9771,2.9771,2.9771,2.9771,2.9771,2.9771,2.9771,2.9771,2.9771,2.9771,2.9771,2.9771,2.9771,2.9771,2.9544,2.8864,2.8172,2.7489,2.7043,2.6368,2.6129,2.6368,2.7489,2.8076,2.8237,2.8958,2.8872,2.8338,2.7912,2.7356,2.7027,2.7027,2.715,2.7301,2.733,2.733,2.7348,2.7377,2.7348,2.7348,2.7377,2.7377,2.7377,2.7377,2.7377,2.7128,2.6658,2.6888,2.6639,2.5421,2.519,2.4803,2.396,2.3212,2.2895,2.27,2.2675,2.283,2.3146,2.3211,2.3301,2.3487,2.3512,2.3528,2.3528,2.3528,2.3278,2.3278,2.2011,2.1368,2.1368,2.0818,2.0661,2.0661,2.0646,2.0646,2.4921,2.6009,2.7085,0.0,2.854,2.9057,2.92,0.0,3.0539,3.0914,3.1203,3.1481,3.1759,3.1807,3.1855,3.2,3.2121,3.2302,3.2592,3.2845,3.305,3.3183,3.2172,3.1578,3.1578,3.045,2.9771,2.9771,2.9771,2.9771,2.9771,2.9771,2.9771,2.9771,2.9771,2.9771,2.9771,2.9771,2.9771,2.9771,2.9771,2.9771,2.9771,2.9771,2.9771,2.9771,2.9771,2.9771,2.9771,2.9771,2.9555,2.9328,2.8409,2.7737,2.7509,2.6358,2.6129,2.6139,2.7033,2.7777,2.8136,2.863,2.8753,2.8429,2.8228,2.7654,2.7254,2.7254,2.7301,2.7386,2.7856,2.7865,2.8105,2.8324,2.8563,2.8344,2.8105,2.7607,2.7377,2.7377,2.7377,2.7377,2.6897,2.6888,2.6658,2.6177,2.5599,2.4963,2.4205,2.3607,2.3273,2.2724,2.2724,2.287,2.3236,2.3252,2.3341,2.3512,2.3528,2.3528,2.3528,2.3528,2.3528,2.3528,2.2711,2.2055,2.2055,2.1945,2.1764,2.1764,2.1764,2.1764,0.0,0.0,2.673,2.8236,2.8569,2.8705,0.0,0.0,3.0684,3.0938,3.1203,3.1481,3.1759,3.1807,3.1879,3.2073,3.2097,3.229,3.2821,3.2881,3.3014,3.334,3.2265,3.1578,3.1578,3.045,2.9771,2.9771,2.9771,2.9771,2.9771,2.9771,2.9771,2.9771,2.9771,2.9771,2.9771,2.9771,2.9771,2.9771,2.9771,2.9771,2.9771,2.9771,2.9771,2.9771,2.9771,2.9771,2.9771,2.9771,2.9771,2.976,2.8626,2.8172,2.8182,2.7043,2.6586,2.6596,2.7271,2.7767,2.8325,2.8732,2.8652,2.8529,2.8464,2.7865,2.7377,2.7377,2.7377,2.7626,2.8095,2.8344,2.8563,2.904,2.9289,2.906,2.8354,2.7856,2.7377,2.7377,2.7377,2.7377,2.7377,2.6897,2.6639,2.6639,2.606,2.5166,2.4746,2.4119,2.3566,2.3097,2.2854,2.2976,2.3301,2.3317,2.3382,2.3528,2.3528,2.3504,2.3463,2.3463,2.3447,2.3398,2.3081,2.296,2.3,2.2635,2.2472,2.2472,2.2472,2.2472,0.0,2.5687,0.0,2.7546,2.827,2.8801,0.0,3.0033,3.0684,3.0938,3.1203,3.1481,3.1759,3.1807,3.1807,3.1831,3.1831,3.2012,3.2531,3.2616,3.2785,3.3304,3.2265,3.1578,3.1578,3.045,2.9771,2.9771,2.9771,2.9771,2.9771,2.9771,2.9771,2.9771,2.9771,2.9771,2.9771,2.9771,2.9771,2.9771,2.9771,2.9771,2.9771,2.9771,2.9771,2.9771,2.9771,2.9771,2.9771,2.9771,2.9771,2.976,2.9091,2.8864,2.8864,2.8192,2.7944,2.7954,2.8647,2.8999,2.9229,2.9469,2.9252,2.874,2.8514,2.7865,2.7377,2.7377,2.7377,2.7626,2.8095,2.8344,2.8563,2.904,2.9289,2.906,2.8354,2.7856,2.7377,2.7377,2.7377,2.7377,2.7377,2.7377,2.7377,2.7377,2.6888,2.6335,2.6144,2.4894,2.4189,2.418,2.3704,2.3301,2.3504,2.3512,2.3528,2.3528,2.3528,2.3447,2.3276,2.3276,2.3195,2.3016,2.283,2.283,2.3,2.2635,2.2472,2.2472,2.2472,2.2472,0.0,0.0,0.0,2.7268,2.8101,2.8717,2.9067,3.0033,3.0877,3.0974,3.1348,3.1686,3.1795,3.1807,3.1807,3.1807,3.1807,3.1928,3.229,3.2338,3.2531,3.305,3.2467,3.1855,3.1556,3.0902,3.0224,2.9771,2.9771,2.9771,2.9771,2.9771,2.9771,2.9771,2.9771,2.9771,2.9771,2.9771,2.9771,2.9771,2.9771,2.9771,2.9771,2.9771,2.9771,2.9771,2.9771,2.9771,2.9771,2.9771,2.9771,2.976,2.9091,2.8874,2.8864,2.8192,2.7954,2.7954,2.8172,2.8782,2.925,2.9005,2.9252,2.9468,2.898,2.8802,2.8573,2.8573,2.8573,2.8802,2.9289,2.9517,2.9766,3.048,3.0221,2.9745,2.9517,2.906,2.8573,2.8573,2.8573,2.8563,2.8085,2.7865,2.7856,2.7377,2.7128,2.6575,2.5669,2.5166,2.4444,2.3729,2.3499,2.3341,2.3512,2.3422,2.3358,2.3358,2.3252,2.3171,2.3081,2.3081,2.3065,2.3,2.2805,2.2765,2.283,2.2578,2.2472,2.2472,2.2472,2.2472,2.5748,0.0,0.0,2.7062,2.7989,2.8625,2.9249,3.0228,3.1265,3.1437,3.1917,3.2312,3.2312,3.2385,3.2234,3.1807,3.1807,3.1904,3.2169,3.2205,3.2362,3.2785,3.2487,3.195,3.1878,3.1308,3.0698,3.0224,2.9987,3.0008,2.9771,2.9771,2.9771,2.9771,2.9771,2.9771,2.9771,2.9771,2.9771,2.9771,2.9771,2.9771,2.9771,2.9771,2.9771,2.9771,2.9771,2.9771,2.9771,2.9771,2.9771,2.976,2.9307,2.9091,2.9091,2.8864,2.8626,2.8647,2.873,2.9093,2.948,2.9341,2.9538,2.9949,2.9683,2.9507,2.9289,2.9289,2.9289,2.9538,3.0004,3.048,3.0707,3.1192,3.0965,3.0459,3.0459,2.9993,2.9279,2.905,2.904,2.906,2.8354,2.8573,2.8354,2.7856,2.7607,2.732,2.5997,2.574,2.5254,2.4076,2.382,2.363,2.3512,2.3358,2.3252,2.3252,2.3081,2.2976,2.2911,2.2911,2.287,2.283,2.27,2.2635,2.2635,2.2529,2.2472,2.2472,2.2472,2.2472,0.0,0.0,0.0,2.7221,2.7887,2.8635,2.9617,3.0574,3.1552,3.2099,3.2684,3.3104,3.3104,3.332,3.3086,3.202,3.1807,3.1904,3.2145,3.2181,3.229,3.2555,3.2356,3.2103,3.2103,3.1878,3.1364,3.0698,3.0687,3.0472,2.9771,2.9771,2.9771,2.9771,2.9771,2.9771,2.9771,2.9771,2.9771,2.9771,2.9771,2.9771,2.9771,2.9771,2.9771,2.9771,2.9771,2.9771,2.9771,2.9771,2.9771,2.9771,2.9771,2.9771,2.9771,2.9771,2.9771,2.9825,3.0051,3.0137,3.0223,3.0675,3.0378,2.9929,3.0148,2.9745,2.9289,2.9289,2.9289,2.9517,2.9983,3.0717,3.1203,3.1203,3.1203,3.1203,3.1203,3.0252,2.9279,2.8573,2.8812,2.904,2.8563,2.8812,2.906,2.8354,2.8344,2.8095,2.7386,2.6888,2.6177,2.5474,2.4975,2.4244,2.3536,2.3366,2.326,2.326,2.3081,2.2895,2.2724,2.2724,2.2635,2.2472,2.2472,2.2472,2.2472,2.2472,2.2472,2.2472,2.2472,2.2472,2.6452,0.0,0.0,0.0,0.0,0.0,2.8976,3.0215,3.1488,3.1857,3.2697,3.3383,3.3383,3.3447,3.3511,3.3086,3.2648,3.2258,3.1904,3.1916,3.2012,3.2278,3.2325,3.2332,3.2067,3.2114,3.204,3.1364,3.1364,3.115,3.045,2.9987,2.9771,2.9771,2.9771,2.9771,2.9771,2.9771,2.9771,2.9771,2.9771,2.9771,2.9771,2.9771,2.9771,2.9771,2.9771,2.9771,2.9771,2.9771,2.9771,2.9771,2.9771,2.9771,2.9771,2.9771,2.9879,3.0051,3.0105,3.0245,3.0395,3.0535,3.0463,3.0624,3.0677,3.0579,3.0707,3.0707,3.0707,3.0717,3.0965,3.0955,3.1203,3.1203,3.1203,3.1203,3.1203,3.0965,3.0728,3.048,3.049,3.048,2.9745,2.9745,2.9766,2.906,2.905,2.8802,2.8095,2.7597,2.6888,2.6177,2.5688,2.5233,2.4984,2.4214,2.3783,2.3783,2.3015,2.2594,2.2529,2.2529,2.2513,2.2472,2.2472,2.2711,2.3172,2.2711,2.2472,2.2472,2.2472,2.2472,0.0,0.0,0.0,0.0,0.0,0.0,2.9402,3.0471,3.1633,3.2281,3.3045,3.3603,3.3603,3.3706,3.3784,3.3142,3.3033,3.2736,3.2209,3.202,3.1867,3.2012,3.2266,3.2265,3.2201,3.2451,3.2396,3.1728,3.182,3.17,3.1116,3.0665,3.045,3.045,3.0235,3.0224,3.0224,3.0008,2.9771,2.9771,2.9771,2.9771,2.9771,2.9771,2.9771,2.9771,2.9771,2.9771,2.9771,2.9771,2.9771,2.9771,2.9771,2.9771,2.9771,2.9771,2.9846,2.9997,3.0105,3.0223,3.0363,3.0449,3.0568,3.0708,3.0708,3.0794,3.0912,3.0912,3.0966,3.1085,3.1171,3.1203,3.1203,3.1203,3.1203,3.1203,3.1203,3.1203,3.1192,3.0717,3.0944,3.0944,3.0231,3.048,3.048,2.9745,2.9766,2.9487,2.8672,2.8046,2.7578,2.6767,2.606,2.5582,2.5351,2.4754,2.4303,2.4303,2.3323,2.2925,2.2925,2.2703,2.2472,2.2472,2.2686,2.3147,2.3846,2.2925,2.2703,2.2925,2.2703,2.2686,0.0,0.0,0.0,0.0,0.0,0.0,3.0175,3.0914,3.1837,3.2946,3.344,3.3694,3.3734,3.3948,3.3712,3.2879,3.2735,3.2856,3.2561,3.1996,3.1807,3.1807,3.2036,3.2205,3.2205,3.2435,3.2385,3.1946,3.1915,3.195,3.1758,3.1556,3.1556,3.1578,3.1139,3.0698,3.0687,3.0224,2.9771,2.9771,2.9771,2.9771,2.9771,2.9771,2.9771,2.9771,2.9771,2.9771,2.9771,2.9771,2.9771,2.9771,2.9771,2.9771,2.9771,2.9771,2.9792,2.9846,3.0051,3.0137,3.0159,3.0363,3.0449,3.0449,3.0449,3.0449,3.0482,3.0482,3.0654,3.0901,3.1106,3.1171,3.1203,3.1203,3.1203,3.1203,3.1203,3.1203,3.0944,3.048,3.0717,3.0944,3.048,3.0717,3.0944,3.048,3.021,2.99,2.9222,2.8653,2.8207,2.7302,2.6554,2.6089,2.5395,2.504,2.4595,2.4595,2.394,2.3394,2.3394,2.2933,2.2686,2.2686,2.3386,2.3846,2.4288,2.3147,2.2933,2.3394,2.2925,2.3386,0.0,0.0,0.0,0.0,0.0,0.0,2.9468,3.0234,3.0808,3.1503,3.2078,3.2519,3.2759,3.2853,3.2893,3.2695,3.2333,3.1905,3.1583,3.1662,3.1807,3.1807,3.2036,3.2205,3.2205,3.2435,3.2592,3.2385,3.1994,3.1903,3.1927,3.1493,3.1373,3.1578,3.1578,3.1127,3.0687,3.0676,3.0235,2.9771,2.9771,2.9771,2.9771,2.9771,2.9771,2.9771,2.9771,2.9771,2.9771,2.9771,2.9771,2.9771,2.9771,2.9771,2.9771,2.9771,2.9879,3.0072,3.0105,3.0137,3.0137,3.0191,3.0191,3.0191,3.0191,3.0342,3.0482,3.0482,3.0654,3.0848,3.0912,3.1052,3.1203,3.1203,3.1203,3.1203,3.1203,3.1203,3.1192,3.0944,3.1192,3.1192,3.0944,3.1192,3.1192,3.0944,3.0805,3.0656,3.0378,2.9782,2.9028,2.8464,2.7855,2.713,2.6819,2.5743,2.5274,2.5274,2.4641,2.4067,2.4067,2.4067,2.4067,2.4067,2.4526,2.4746,2.4288,2.4067,2.4067,2.4067,2.4067,2.4067,0.0,0.0,0.0,2.8906,0.0,0.0,0.0,3.0261,3.0742,3.133,3.1677,3.1931,3.2078,3.2104,3.2104,3.1732,3.1933,3.1641,3.0582,3.1206,3.165,3.2209,3.213,3.2,3.2,3.2121,3.2254,3.2386,3.2181,3.207,3.2332,3.2242,3.2161,3.2291,3.2195,3.1804,3.1578,3.1364,3.0913,3.0687,3.0687,3.045,3.0224,3.045,3.045,3.0235,3.0676,3.0687,3.0687,3.0687,3.0687,3.0687,2.9987,2.9771,2.9771,2.9771,2.9846,2.9965,2.9965,2.9965,2.9965,2.9965,2.9965,2.9965,2.9965,3.0019,3.0137,3.0277,3.0395,3.0503,3.0622,3.0848,3.102,3.102,3.1106,3.1203,3.1203,3.1203,3.1203,3.1203,3.1203,3.1171,3.1052,3.102,3.0998,3.0858,3.074,3.0622,3.0503,2.9563,2.8844,2.8622,2.76,2.6882,2.6753,2.6229,2.5839,2.5839,2.5039,2.4746,2.4746,2.4526,2.4526,2.4746,2.4967,2.5205,2.5205,2.5205,2.4967,2.4746,2.4526,2.4508,0.0,0.0,0.0,0.0,0.0,2.9974,0.0,0.0,0.0,3.1236,3.133,3.133,3.133,3.133,3.1142,3.0765,3.1255,3.1243,3.006,3.0649,3.1243,3.193,3.1729,3.1614,3.1517,3.1553,3.1722,3.2097,3.2024,3.2145,3.2555,3.2785,3.2954,3.305,3.2809,3.2715,3.2479,3.204,3.1815,3.1578,3.1578,3.1364,3.0902,3.1364,3.1364,3.0902,3.1364,3.1578,3.1578,3.1578,3.1578,3.1578,3.0439,3.0008,3.0008,3.0008,3.0008,3.0008,3.0213,2.9987,3.0008,3.0008,2.9997,2.9771,2.9771,2.9771,3.0041,3.0236,3.0323,3.0388,3.0583,3.0865,3.0858,3.0848,3.102,3.1203,3.1203,3.1203,3.1203,3.1203,3.1203,3.1138,3.0934,3.088,3.0794,3.0589,3.0482,3.0342,3.0159,2.9344,2.8661,2.8539,2.7336,2.6625,2.6673,2.6252,2.6129,2.6129,2.5663,2.5443,2.5443,2.4985,2.4985,2.5443,2.5443,2.5663,2.6129,2.6129,2.591,2.5443,2.4985,2.5205,0.0,0.0,0.0,0.0,3.065,0.0,0.0,0.0,3.0559,3.01,0.0,3.0114,3.0114,0.0,0.0,2.9933,3.0083,3.0369,3.0927,3.0395,2.996,2.9845,3.0515,3.0902,3.0443,3.0612,3.1046,3.1795,3.1409,3.1553,3.2531,3.2628,3.2845,3.3304,3.3364,3.314,3.2479,3.2467,3.2029,3.1578,3.1578,3.1578,3.1578,3.1578,3.1578,3.1578,3.1578,3.1578,3.1578,3.1578,3.1578,3.1578,3.0902,3.0676,3.0676,3.0676,3.0676,3.0687,3.1127,3.1139,3.0676,3.0676,3.0224,2.9771,2.9771,3.0224,3.0676,3.0709,3.1114,3.1488,3.1075,3.1188,3.1551,3.0858,3.102,3.1203,3.1203,3.1203,3.1203,3.1203,3.1203,3.1192,3.1171,3.0998,3.0848,3.0826,3.0449,3.0159,3.0137,2.9726,2.9445,2.9177,2.8325,2.7618,2.7356,2.6482,2.6129,2.6129,2.612,2.5891,2.5891,2.5891,2.5891,2.5891,2.5891,2.612,2.6129,2.6129,2.6129,2.5891,2.5891,2.5891,0.0,0.0,0.0,0.0,0.0,0.0,3.0849,0.0,3.0437,0.0,0.0,0.0,0.0,0.0,0.0,0.0,3.0225,3.0346,3.0122,2.9935,3.0085,3.034,3.0203,3.0105,3.0202,3.0588,3.0974,3.1312,3.1131,3.1264,3.1855,3.2048,3.2374,3.2917,3.3074,3.3231,3.2916,3.2916,3.294,3.2715,3.2715,3.2479,3.2029,3.2479,3.2479,3.2254,3.2479,3.2786,3.294,3.2324,3.2359,3.2702,3.1184,3.0687,3.0687,3.0235,3.0224,3.0224,3.0902,3.0902,3.072,3.0831,3.0344,2.9803,3.0399,3.056,3.0698,3.115,3.1432,3.1523,3.1069,3.1097,3.1155,3.0844,3.105,3.1481,3.0998,3.1343,3.1623,3.1031,3.1106,3.1171,3.102,3.0794,3.0535,3.0255,3.0051,2.9911,2.9911,2.9598,2.9122,2.901,2.8005,2.7301,2.718,2.6406,2.6129,2.6129,2.6129,2.6129,2.6129,2.6129,2.6129,2.6129,2.6129,2.6129,2.6129,2.6129,2.6129,2.6129,2.6129,2.6129,3.2763,0.0,0.0,0.0,0.0,0.0,0.0,0.0,0.0,0.0,0.0,0.0,0.0,0.0,2.9913,2.9913,0.0,3.0106,2.9309,2.9415,2.9746,3.005,2.9467,2.9212,2.9827,3.0165,3.0467,3.0757,3.0708,3.0877,3.136,3.1662,3.2012,3.2471,3.2748,3.3014,3.3268,3.3268,3.3304,3.3376,3.3376,3.3152,3.2479,3.3152,3.314,3.2479,3.3152,3.3497,3.344,3.2999,3.3035,3.3202,3.167,3.0913,3.0902,3.0235,2.9987,3.0224,3.0687,3.0913,3.0935,3.1114,3.0831,3.0494,3.1103,3.1262,3.1364,3.1815,3.1804,3.1815,3.115,3.0876,3.0857,3.0803,3.1254,3.1685,3.1218,3.1584,3.1683,3.1115,3.1223,3.1256,3.0794,3.06,3.0342,2.9932,2.9825,2.9771,2.9771,2.9307,2.9091,2.9091,2.7954,2.7271,2.7271,2.6586,2.6129,2.6129,2.6129,2.6129,2.6129,2.6129,2.6129,2.6129,2.6129,2.6129,2.6129,2.6129,2.6129,2.6129,2.6129,2.6129,0.0,0.0,0.0,3.3012,0.0,0.0,0.0,0.0,3.1513,0.0,0.0,0.0,0.0,0.0,2.9913,2.9913,2.97,0.0,0.0,2.8639,2.8041,2.7776,2.7916,2.8174,2.897,2.8837,2.9127,3.0165,2.9984,3.0286,3.1336,3.1662,3.1928,3.2205,3.2471,3.2724,3.2978,3.2978,3.3111,3.3376,3.3376,3.3152,3.2479,3.3152,3.314,3.2479,3.3152,3.314,3.249,3.3152,3.314,3.2502,3.1804,3.1578,3.1578,3.0902,3.0687,3.0698,3.1364,3.1578,3.1578,3.1578,3.1578,3.1578,3.1578,3.204,3.2479,3.2479,3.2479,3.2265,3.1815,3.133,3.1042,3.1042,3.1242,3.1639,3.2124,3.1893,3.1486,3.1719,3.1774,3.1474,3.0546,3.0482,3.0395,3.0159,2.9911,2.9771,2.9771,2.976,2.976,2.976,2.8626,2.7944,2.7944,2.6805,2.6129,2.6129,2.6129,2.6129,2.6129,2.6129,2.6129,2.6129,2.6129,2.6129,2.6129,2.6129,2.6129,2.6129,2.6129,2.6129,3.4651,0.0,3.5251,3.4285,0.0,0.0,0.0,0.0,0.0,0.0,0.0,0.0,0.0,0.0,3.014,2.9953,2.9673,2.9553,0.0,2.906,2.8335,2.7702,2.8039,2.8234,2.7956,2.8524,2.9031,2.9393,2.9646,3.0033,3.0588,3.1034,3.1481,3.1928,3.2193,3.2459,3.2724,3.2881,3.3014,3.3111,3.328,3.3152,3.2479,3.2691,3.2691,3.2479,3.2691,3.2786,3.2702,3.2762,3.2821,3.2725,3.1432,3.1353,3.1578,3.0439,2.9987,3.0224,3.1353,3.1578,3.1624,3.2226,3.1953,3.1624,3.2226,3.2394,3.249,3.2916,3.2703,3.23,3.2011,3.1648,3.1544,3.1231,3.2033,3.2505,3.2104,3.1977,3.1915,3.2005,3.1896,3.1752,3.1441,3.1287,3.0814,2.9943,2.9825,2.9771,2.9771,2.9771,2.9771,2.9771,2.9091,2.8647,2.8647,2.7509,2.6586,2.6129,2.6129,2.6129,2.6129,2.6129,2.6129,2.6129,2.6129,2.6129,2.6129,2.6129,2.6129,2.6129,2.6129,2.6129,3.5412,3.5734,3.5895,3.4944,3.4929,0.0,3.3528,0.0,0.0,0.0,0.0,0.0,0.0,0.0,3.0207,3.0221,2.9806,2.9553,0.0,2.9238,2.8613,2.7787,2.7851,2.7989,2.7546,2.8017,2.85,2.8982,2.9236,2.9586,2.9843,3.0454,3.1155,3.1306,3.1879,3.2181,3.2447,3.2724,3.2881,3.2978,3.3243,3.2916,3.2254,3.2467,3.2467,3.2254,3.2467,3.2572,3.2737,3.2881,3.294,3.2843,3.1648,3.1568,3.1466,3.0256,2.9771,3.0008,3.0902,3.1376,3.1624,3.2452,3.2394,3.23,3.2904,3.2833,3.294,3.3364,3.2916,3.23,3.2011,3.1887,3.1978,3.16,3.2356,3.3042,3.2545,3.2411,3.2333,3.2413,3.2192,3.1896,3.1641,3.1574,3.1144,2.9975,2.9911,2.9911,2.9911,2.9911,2.9911,2.9911,2.9381,2.8637,2.8192,2.7727,2.7053,2.6129,2.6368,2.6368,2.6129,2.6129,2.6129,2.6129,2.6129,2.6129,2.6129,2.6129,2.6129,2.6129,2.6129,2.6129]}]]